<?xml version="1.0" encoding="UTF-8" standalone="no" ?>
<gpx xmlns="http://www.topografix.com/GPX/1/1" xmlns:xsi="http://www.w3.org/2001/XMLSchema-instance" xsi:schemaLocation="http://www.topografix.com/GPX/1/1 http://www.topografix.com/GPX/1/1/gpx.xsd" version="1.1" creator="VisuGPX - https://www.visugpx.com">
  <metadata>
    <name>9567123-2019 J4 transfert randonneur</name>
  </metadata>
  <trk>
    <name><![CDATA[9567123-2019 J4 transfert randonneur]]></name>
    <trkseg>
      <trkpt lat="46.07827" lon="6.72632">
        <ele>706</ele>
        <time>2019-06-11T15:33:39Z</time>
      </trkpt>
      <trkpt lat="46.07863" lon="6.72539">
        <ele>703</ele>
        <time>2019-06-11T15:33:52Z</time>
      </trkpt>
      <trkpt lat="46.0788" lon="6.72552">
        <ele>703</ele>
        <time>2019-06-11T15:33:56Z</time>
      </trkpt>
      <trkpt lat="46.07907" lon="6.72566">
        <ele>703</ele>
        <time>2019-06-11T15:34:01Z</time>
      </trkpt>
      <trkpt lat="46.08016" lon="6.72647">
        <ele>704</ele>
        <time>2019-06-11T15:34:22Z</time>
      </trkpt>
      <trkpt lat="46.08031" lon="6.72661">
        <ele>704</ele>
        <time>2019-06-11T15:34:26Z</time>
      </trkpt>
      <trkpt lat="46.08046" lon="6.72683">
        <ele>705</ele>
        <time>2019-06-11T15:34:29Z</time>
      </trkpt>
      <trkpt lat="46.08053" lon="6.72697">
        <ele>705</ele>
        <time>2019-06-11T15:34:32Z</time>
      </trkpt>
      <trkpt lat="46.08047" lon="6.72705">
        <ele>706</ele>
        <time>2019-06-11T15:34:33Z</time>
      </trkpt>
      <trkpt lat="46.08046" lon="6.72717">
        <ele>706</ele>
        <time>2019-06-11T15:34:35Z</time>
      </trkpt>
      <trkpt lat="46.08051" lon="6.72727">
        <ele>707</ele>
        <time>2019-06-11T15:34:36Z</time>
      </trkpt>
      <trkpt lat="46.0806" lon="6.72729">
        <ele>707</ele>
        <time>2019-06-11T15:34:38Z</time>
      </trkpt>
      <trkpt lat="46.08067" lon="6.72724">
        <ele>706</ele>
        <time>2019-06-11T15:34:39Z</time>
      </trkpt>
      <trkpt lat="46.0807" lon="6.72712">
        <ele>706</ele>
        <time>2019-06-11T15:34:41Z</time>
      </trkpt>
      <trkpt lat="46.08069" lon="6.72705">
        <ele>706</ele>
        <time>2019-06-11T15:34:42Z</time>
      </trkpt>
      <trkpt lat="46.08065" lon="6.72698">
        <ele>705</ele>
        <time>2019-06-11T15:34:43Z</time>
      </trkpt>
      <trkpt lat="46.08226" lon="6.72404">
        <ele>701</ele>
        <time>2019-06-11T15:35:29Z</time>
      </trkpt>
      <trkpt lat="46.08228" lon="6.72401">
        <ele>700</ele>
        <time>2019-06-11T15:35:29Z</time>
      </trkpt>
      <trkpt lat="46.08234" lon="6.72408">
        <ele>700</ele>
        <time>2019-06-11T15:35:31Z</time>
      </trkpt>
      <trkpt lat="46.08238" lon="6.7241">
        <ele>700</ele>
        <time>2019-06-11T15:35:32Z</time>
      </trkpt>
      <trkpt lat="46.08243" lon="6.72409">
        <ele>700</ele>
        <time>2019-06-11T15:35:32Z</time>
      </trkpt>
      <trkpt lat="46.08247" lon="6.72405">
        <ele>700</ele>
        <time>2019-06-11T15:35:33Z</time>
      </trkpt>
      <trkpt lat="46.08251" lon="6.72396">
        <ele>700</ele>
        <time>2019-06-11T15:35:35Z</time>
      </trkpt>
      <trkpt lat="46.0825" lon="6.72384">
        <ele>700</ele>
        <time>2019-06-11T15:35:36Z</time>
      </trkpt>
      <trkpt lat="46.08254" lon="6.72379">
        <ele>700</ele>
        <time>2019-06-11T15:35:37Z</time>
      </trkpt>
      <trkpt lat="46.08278" lon="6.72336">
        <ele>700</ele>
        <time>2019-06-11T15:35:44Z</time>
      </trkpt>
      <trkpt lat="46.08302" lon="6.72328">
        <ele>699</ele>
        <time>2019-06-11T15:35:48Z</time>
      </trkpt>
      <trkpt lat="46.08307" lon="6.7233">
        <ele>699</ele>
        <time>2019-06-11T15:35:49Z</time>
      </trkpt>
      <trkpt lat="46.08413" lon="6.72417">
        <ele>707</ele>
        <time>2019-06-11T15:36:11Z</time>
      </trkpt>
      <trkpt lat="46.0842" lon="6.72416">
        <ele>707</ele>
        <time>2019-06-11T15:36:12Z</time>
      </trkpt>
      <trkpt lat="46.08423" lon="6.72411">
        <ele>707</ele>
        <time>2019-06-11T15:36:13Z</time>
      </trkpt>
      <trkpt lat="46.08428" lon="6.72384">
        <ele>706</ele>
        <time>2019-06-11T15:36:16Z</time>
      </trkpt>
      <trkpt lat="46.08429" lon="6.72249">
        <ele>702</ele>
        <time>2019-06-11T15:36:33Z</time>
      </trkpt>
      <trkpt lat="46.08435" lon="6.72188">
        <ele>701</ele>
        <time>2019-06-11T15:36:41Z</time>
      </trkpt>
      <trkpt lat="46.08475" lon="6.72012">
        <ele>695</ele>
        <time>2019-06-11T15:37:04Z</time>
      </trkpt>
      <trkpt lat="46.08539" lon="6.71745">
        <ele>700</ele>
        <time>2019-06-11T15:37:38Z</time>
      </trkpt>
      <trkpt lat="46.08541" lon="6.71724">
        <ele>700</ele>
        <time>2019-06-11T15:37:41Z</time>
      </trkpt>
      <trkpt lat="46.08538" lon="6.71688">
        <ele>701</ele>
        <time>2019-06-11T15:37:45Z</time>
      </trkpt>
      <trkpt lat="46.08533" lon="6.7167">
        <ele>701</ele>
        <time>2019-06-11T15:37:48Z</time>
      </trkpt>
      <trkpt lat="46.08522" lon="6.71645">
        <ele>701</ele>
        <time>2019-06-11T15:37:52Z</time>
      </trkpt>
      <trkpt lat="46.08474" lon="6.71553">
        <ele>698</ele>
        <time>2019-06-11T15:38:06Z</time>
      </trkpt>
      <trkpt lat="46.08463" lon="6.71517">
        <ele>697</ele>
        <time>2019-06-11T15:38:11Z</time>
      </trkpt>
      <trkpt lat="46.08457" lon="6.71481">
        <ele>698</ele>
        <time>2019-06-11T15:38:15Z</time>
      </trkpt>
      <trkpt lat="46.08447" lon="6.71354">
        <ele>700</ele>
        <time>2019-06-11T15:38:31Z</time>
      </trkpt>
      <trkpt lat="46.08442" lon="6.71279">
        <ele>697</ele>
        <time>2019-06-11T15:38:40Z</time>
      </trkpt>
      <trkpt lat="46.08441" lon="6.71196">
        <ele>695</ele>
        <time>2019-06-11T15:38:50Z</time>
      </trkpt>
      <trkpt lat="46.08443" lon="6.7111">
        <ele>691</ele>
        <time>2019-06-11T15:39:01Z</time>
      </trkpt>
      <trkpt lat="46.08448" lon="6.7101">
        <ele>689</ele>
        <time>2019-06-11T15:39:13Z</time>
      </trkpt>
      <trkpt lat="46.08452" lon="6.70971">
        <ele>688</ele>
        <time>2019-06-11T15:39:18Z</time>
      </trkpt>
      <trkpt lat="46.0846" lon="6.709">
        <ele>688</ele>
        <time>2019-06-11T15:39:27Z</time>
      </trkpt>
      <trkpt lat="46.08468" lon="6.70847">
        <ele>688</ele>
        <time>2019-06-11T15:39:34Z</time>
      </trkpt>
      <trkpt lat="46.085" lon="6.70673">
        <ele>684</ele>
        <time>2019-06-11T15:39:56Z</time>
      </trkpt>
      <trkpt lat="46.08519" lon="6.70578">
        <ele>684</ele>
        <time>2019-06-11T15:40:08Z</time>
      </trkpt>
      <trkpt lat="46.08585" lon="6.70218">
        <ele>685</ele>
        <time>2019-06-11T15:40:54Z</time>
      </trkpt>
      <trkpt lat="46.08725" lon="6.69396">
        <ele>685</ele>
        <time>2019-06-11T15:42:39Z</time>
      </trkpt>
      <trkpt lat="46.08776" lon="6.69102">
        <ele>681</ele>
        <time>2019-06-11T15:43:16Z</time>
      </trkpt>
      <trkpt lat="46.08794" lon="6.69032">
        <ele>681</ele>
        <time>2019-06-11T15:43:25Z</time>
      </trkpt>
      <trkpt lat="46.08837" lon="6.68877">
        <ele>681</ele>
        <time>2019-06-11T15:43:46Z</time>
      </trkpt>
      <trkpt lat="46.08843" lon="6.68843">
        <ele>681</ele>
        <time>2019-06-11T15:43:50Z</time>
      </trkpt>
      <trkpt lat="46.0885" lon="6.68788">
        <ele>681</ele>
        <time>2019-06-11T15:43:57Z</time>
      </trkpt>
      <trkpt lat="46.08882" lon="6.68453">
        <ele>685</ele>
        <time>2019-06-11T15:44:39Z</time>
      </trkpt>
      <trkpt lat="46.08927" lon="6.6795">
        <ele>672</ele>
        <time>2019-06-11T15:45:41Z</time>
      </trkpt>
      <trkpt lat="46.0893" lon="6.67951">
        <ele>672</ele>
        <time>2019-06-11T15:45:42Z</time>
      </trkpt>
      <trkpt lat="46.08936" lon="6.67948">
        <ele>672</ele>
        <time>2019-06-11T15:45:43Z</time>
      </trkpt>
      <trkpt lat="46.08939" lon="6.6794">
        <ele>672</ele>
        <time>2019-06-11T15:45:44Z</time>
      </trkpt>
      <trkpt lat="46.08936" lon="6.67928">
        <ele>671</ele>
        <time>2019-06-11T15:45:46Z</time>
      </trkpt>
      <trkpt lat="46.08929" lon="6.67924">
        <ele>671</ele>
        <time>2019-06-11T15:45:47Z</time>
      </trkpt>
      <trkpt lat="46.08951" lon="6.67845">
        <ele>668</ele>
        <time>2019-06-11T15:45:58Z</time>
      </trkpt>
      <trkpt lat="46.09025" lon="6.67605">
        <ele>665</ele>
        <time>2019-06-11T15:46:30Z</time>
      </trkpt>
      <trkpt lat="46.09128" lon="6.67286">
        <ele>666</ele>
        <time>2019-06-11T15:47:14Z</time>
      </trkpt>
      <trkpt lat="46.09169" lon="6.67174">
        <ele>664</ele>
        <time>2019-06-11T15:47:29Z</time>
      </trkpt>
      <trkpt lat="46.09337" lon="6.66745">
        <ele>660</ele>
        <time>2019-06-11T15:48:30Z</time>
      </trkpt>
      <trkpt lat="46.09364" lon="6.66694">
        <ele>661</ele>
        <time>2019-06-11T15:48:38Z</time>
      </trkpt>
      <trkpt lat="46.09438" lon="6.66577">
        <ele>660</ele>
        <time>2019-06-11T15:48:57Z</time>
      </trkpt>
      <trkpt lat="46.09467" lon="6.66527">
        <ele>661</ele>
        <time>2019-06-11T15:49:05Z</time>
      </trkpt>
      <trkpt lat="46.09485" lon="6.6649">
        <ele>661</ele>
        <time>2019-06-11T15:49:11Z</time>
      </trkpt>
      <trkpt lat="46.095" lon="6.66449">
        <ele>663</ele>
        <time>2019-06-11T15:49:17Z</time>
      </trkpt>
      <trkpt lat="46.09511" lon="6.66415">
        <ele>665</ele>
        <time>2019-06-11T15:49:21Z</time>
      </trkpt>
      <trkpt lat="46.096" lon="6.66098">
        <ele>656</ele>
        <time>2019-06-11T15:50:04Z</time>
      </trkpt>
      <trkpt lat="46.09665" lon="6.65893">
        <ele>654</ele>
        <time>2019-06-11T15:50:31Z</time>
      </trkpt>
      <trkpt lat="46.09695" lon="6.65788">
        <ele>654</ele>
        <time>2019-06-11T15:50:45Z</time>
      </trkpt>
      <trkpt lat="46.09859" lon="6.65198">
        <ele>653</ele>
        <time>2019-06-11T15:52:04Z</time>
      </trkpt>
      <trkpt lat="46.09871" lon="6.65141">
        <ele>653</ele>
        <time>2019-06-11T15:52:11Z</time>
      </trkpt>
      <trkpt lat="46.10034" lon="6.64151">
        <ele>644</ele>
        <time>2019-06-11T15:54:17Z</time>
      </trkpt>
      <trkpt lat="46.10108" lon="6.63781">
        <ele>644</ele>
        <time>2019-06-11T15:55:04Z</time>
      </trkpt>
      <trkpt lat="46.10123" lon="6.63702">
        <ele>644</ele>
        <time>2019-06-11T15:55:14Z</time>
      </trkpt>
      <trkpt lat="46.1013" lon="6.63649">
        <ele>643</ele>
        <time>2019-06-11T15:55:21Z</time>
      </trkpt>
      <trkpt lat="46.10139" lon="6.63565">
        <ele>643</ele>
        <time>2019-06-11T15:55:31Z</time>
      </trkpt>
      <trkpt lat="46.10151" lon="6.63343">
        <ele>647</ele>
        <time>2019-06-11T15:55:59Z</time>
      </trkpt>
      <trkpt lat="46.10158" lon="6.63305">
        <ele>646</ele>
        <time>2019-06-11T15:56:04Z</time>
      </trkpt>
      <trkpt lat="46.10168" lon="6.63268">
        <ele>644</ele>
        <time>2019-06-11T15:56:09Z</time>
      </trkpt>
      <trkpt lat="46.10259" lon="6.63005">
        <ele>638</ele>
        <time>2019-06-11T15:56:45Z</time>
      </trkpt>
      <trkpt lat="46.10305" lon="6.62889">
        <ele>639</ele>
        <time>2019-06-11T15:57:01Z</time>
      </trkpt>
      <trkpt lat="46.10359" lon="6.6277">
        <ele>637</ele>
        <time>2019-06-11T15:57:19Z</time>
      </trkpt>
      <trkpt lat="46.10424" lon="6.62588">
        <ele>642</ele>
        <time>2019-06-11T15:57:44Z</time>
      </trkpt>
      <trkpt lat="46.10516" lon="6.62287">
        <ele>642</ele>
        <time>2019-06-11T15:58:25Z</time>
      </trkpt>
      <trkpt lat="46.10536" lon="6.62192">
        <ele>640</ele>
        <time>2019-06-11T15:58:37Z</time>
      </trkpt>
      <trkpt lat="46.10554" lon="6.62077">
        <ele>639</ele>
        <time>2019-06-11T15:58:52Z</time>
      </trkpt>
      <trkpt lat="46.10557" lon="6.6205">
        <ele>638</ele>
        <time>2019-06-11T15:58:55Z</time>
      </trkpt>
      <trkpt lat="46.10559" lon="6.62002">
        <ele>636</ele>
        <time>2019-06-11T15:59:01Z</time>
      </trkpt>
      <trkpt lat="46.10558" lon="6.61628">
        <ele>637</ele>
        <time>2019-06-11T15:59:47Z</time>
      </trkpt>
      <trkpt lat="46.10563" lon="6.61585">
        <ele>637</ele>
        <time>2019-06-11T15:59:52Z</time>
      </trkpt>
      <trkpt lat="46.10577" lon="6.61524">
        <ele>636</ele>
        <time>2019-06-11T16:00:00Z</time>
      </trkpt>
      <trkpt lat="46.10594" lon="6.61419">
        <ele>635</ele>
        <time>2019-06-11T16:00:14Z</time>
      </trkpt>
      <trkpt lat="46.10597" lon="6.61377">
        <ele>634</ele>
        <time>2019-06-11T16:00:19Z</time>
      </trkpt>
      <trkpt lat="46.10606" lon="6.60787">
        <ele>629</ele>
        <time>2019-06-11T16:01:32Z</time>
      </trkpt>
      <trkpt lat="46.10607" lon="6.60757">
        <ele>629</ele>
        <time>2019-06-11T16:01:35Z</time>
      </trkpt>
      <trkpt lat="46.10612" lon="6.60674">
        <ele>630</ele>
        <time>2019-06-11T16:01:46Z</time>
      </trkpt>
      <trkpt lat="46.10625" lon="6.60544">
        <ele>630</ele>
        <time>2019-06-11T16:02:02Z</time>
      </trkpt>
      <trkpt lat="46.1065" lon="6.6043">
        <ele>632</ele>
        <time>2019-06-11T16:02:17Z</time>
      </trkpt>
      <trkpt lat="46.10654" lon="6.604">
        <ele>631</ele>
        <time>2019-06-11T16:02:20Z</time>
      </trkpt>
      <trkpt lat="46.10665" lon="6.60035">
        <ele>631</ele>
        <time>2019-06-11T16:03:05Z</time>
      </trkpt>
      <trkpt lat="46.10669" lon="6.59997">
        <ele>631</ele>
        <time>2019-06-11T16:03:10Z</time>
      </trkpt>
      <trkpt lat="46.10688" lon="6.59883">
        <ele>632</ele>
        <time>2019-06-11T16:03:25Z</time>
      </trkpt>
      <trkpt lat="46.10697" lon="6.59787">
        <ele>633</ele>
        <time>2019-06-11T16:03:37Z</time>
      </trkpt>
      <trkpt lat="46.10722" lon="6.59374">
        <ele>642</ele>
        <time>2019-06-11T16:04:28Z</time>
      </trkpt>
      <trkpt lat="46.10727" lon="6.59341">
        <ele>644</ele>
        <time>2019-06-11T16:04:32Z</time>
      </trkpt>
      <trkpt lat="46.10738" lon="6.59298">
        <ele>645</ele>
        <time>2019-06-11T16:04:38Z</time>
      </trkpt>
      <trkpt lat="46.10741" lon="6.5929">
        <ele>646</ele>
        <time>2019-06-11T16:04:39Z</time>
      </trkpt>
      <trkpt lat="46.10742" lon="6.59279">
        <ele>646</ele>
        <time>2019-06-11T16:04:40Z</time>
      </trkpt>
      <trkpt lat="46.10756" lon="6.59228">
        <ele>647</ele>
        <time>2019-06-11T16:04:47Z</time>
      </trkpt>
      <trkpt lat="46.10787" lon="6.59134">
        <ele>648</ele>
        <time>2019-06-11T16:05:00Z</time>
      </trkpt>
      <trkpt lat="46.10793" lon="6.59133">
        <ele>648</ele>
        <time>2019-06-11T16:05:01Z</time>
      </trkpt>
      <trkpt lat="46.10795" lon="6.5913">
        <ele>648</ele>
        <time>2019-06-11T16:05:01Z</time>
      </trkpt>
      <trkpt lat="46.10797" lon="6.59122">
        <ele>648</ele>
        <time>2019-06-11T16:05:02Z</time>
      </trkpt>
      <trkpt lat="46.10794" lon="6.59115">
        <ele>648</ele>
        <time>2019-06-11T16:05:03Z</time>
      </trkpt>
      <trkpt lat="46.10792" lon="6.59113">
        <ele>648</ele>
        <time>2019-06-11T16:05:04Z</time>
      </trkpt>
      <trkpt lat="46.10796" lon="6.59057">
        <ele>646</ele>
        <time>2019-06-11T16:05:11Z</time>
      </trkpt>
      <trkpt lat="46.10827" lon="6.58476">
        <ele>640</ele>
        <time>2019-06-11T16:06:23Z</time>
      </trkpt>
      <trkpt lat="46.10838" lon="6.58301">
        <ele>637</ele>
        <time>2019-06-11T16:06:44Z</time>
      </trkpt>
      <trkpt lat="46.10847" lon="6.58235">
        <ele>638</ele>
        <time>2019-06-11T16:06:53Z</time>
      </trkpt>
      <trkpt lat="46.10848" lon="6.58228">
        <ele>638</ele>
        <time>2019-06-11T16:06:53Z</time>
      </trkpt>
      <trkpt lat="46.10852" lon="6.58221">
        <ele>638</ele>
        <time>2019-06-11T16:06:55Z</time>
      </trkpt>
      <trkpt lat="46.10854" lon="6.58215">
        <ele>639</ele>
        <time>2019-06-11T16:06:55Z</time>
      </trkpt>
      <trkpt lat="46.10847" lon="6.58186">
        <ele>637</ele>
        <time>2019-06-11T16:06:59Z</time>
      </trkpt>
      <trkpt lat="46.10843" lon="6.58106">
        <ele>635</ele>
        <time>2019-06-11T16:07:09Z</time>
      </trkpt>
      <trkpt lat="46.10835" lon="6.57038">
        <ele>618</ele>
        <time>2019-06-11T16:09:21Z</time>
      </trkpt>
      <trkpt lat="46.1084" lon="6.56978">
        <ele>617</ele>
        <time>2019-06-11T16:09:28Z</time>
      </trkpt>
      <trkpt lat="46.10894" lon="6.56593">
        <ele>613</ele>
        <time>2019-06-11T16:10:17Z</time>
      </trkpt>
      <trkpt lat="46.10904" lon="6.56557">
        <ele>612</ele>
        <time>2019-06-11T16:10:21Z</time>
      </trkpt>
      <trkpt lat="46.11079" lon="6.56045">
        <ele>613</ele>
        <time>2019-06-11T16:11:32Z</time>
      </trkpt>
      <trkpt lat="46.11088" lon="6.56008">
        <ele>618</ele>
        <time>2019-06-11T16:11:37Z</time>
      </trkpt>
      <trkpt lat="46.11095" lon="6.55934">
        <ele>627</ele>
        <time>2019-06-11T16:11:46Z</time>
      </trkpt>
      <trkpt lat="46.11102" lon="6.55723">
        <ele>629</ele>
        <time>2019-06-11T16:12:12Z</time>
      </trkpt>
      <trkpt lat="46.11109" lon="6.55676">
        <ele>630</ele>
        <time>2019-06-11T16:12:18Z</time>
      </trkpt>
      <trkpt lat="46.11119" lon="6.55642">
        <ele>630</ele>
        <time>2019-06-11T16:12:22Z</time>
      </trkpt>
      <trkpt lat="46.11131" lon="6.55612">
        <ele>628</ele>
        <time>2019-06-11T16:12:27Z</time>
      </trkpt>
      <trkpt lat="46.11182" lon="6.55516">
        <ele>623</ele>
        <time>2019-06-11T16:12:42Z</time>
      </trkpt>
      <trkpt lat="46.11194" lon="6.55499">
        <ele>622</ele>
        <time>2019-06-11T16:12:45Z</time>
      </trkpt>
      <trkpt lat="46.11212" lon="6.55478">
        <ele>622</ele>
        <time>2019-06-11T16:12:49Z</time>
      </trkpt>
      <trkpt lat="46.11261" lon="6.55439">
        <ele>622</ele>
        <time>2019-06-11T16:12:59Z</time>
      </trkpt>
      <trkpt lat="46.11379" lon="6.55348">
        <ele>620</ele>
        <time>2019-06-11T16:13:23Z</time>
      </trkpt>
      <trkpt lat="46.11399" lon="6.55336">
        <ele>621</ele>
        <time>2019-06-11T16:13:26Z</time>
      </trkpt>
      <trkpt lat="46.11429" lon="6.55329">
        <ele>621</ele>
        <time>2019-06-11T16:13:32Z</time>
      </trkpt>
      <trkpt lat="46.11713" lon="6.55324">
        <ele>633</ele>
        <time>2019-06-11T16:14:22Z</time>
      </trkpt>
      <trkpt lat="46.11741" lon="6.55316">
        <ele>633</ele>
        <time>2019-06-11T16:14:27Z</time>
      </trkpt>
      <trkpt lat="46.1176" lon="6.55305">
        <ele>632</ele>
        <time>2019-06-11T16:14:31Z</time>
      </trkpt>
      <trkpt lat="46.11778" lon="6.5529">
        <ele>631</ele>
        <time>2019-06-11T16:14:35Z</time>
      </trkpt>
      <trkpt lat="46.11794" lon="6.55269">
        <ele>629</ele>
        <time>2019-06-11T16:14:39Z</time>
      </trkpt>
      <trkpt lat="46.11807" lon="6.55235">
        <ele>627</ele>
        <time>2019-06-11T16:14:43Z</time>
      </trkpt>
      <trkpt lat="46.11824" lon="6.55171">
        <ele>625</ele>
        <time>2019-06-11T16:14:52Z</time>
      </trkpt>
      <trkpt lat="46.11869" lon="6.55063">
        <ele>629</ele>
        <time>2019-06-11T16:15:07Z</time>
      </trkpt>
      <trkpt lat="46.11936" lon="6.54938">
        <ele>632</ele>
        <time>2019-06-11T16:15:27Z</time>
      </trkpt>
      <trkpt lat="46.1201" lon="6.54808">
        <ele>634</ele>
        <time>2019-06-11T16:15:48Z</time>
      </trkpt>
      <trkpt lat="46.12015" lon="6.54795">
        <ele>634</ele>
        <time>2019-06-11T16:15:49Z</time>
      </trkpt>
      <trkpt lat="46.12021" lon="6.54775">
        <ele>634</ele>
        <time>2019-06-11T16:15:52Z</time>
      </trkpt>
      <trkpt lat="46.12057" lon="6.54624">
        <ele>635</ele>
        <time>2019-06-11T16:16:12Z</time>
      </trkpt>
      <trkpt lat="46.12071" lon="6.54591">
        <ele>635</ele>
        <time>2019-06-11T16:16:17Z</time>
      </trkpt>
      <trkpt lat="46.12295" lon="6.54147">
        <ele>645</ele>
        <time>2019-06-11T16:17:24Z</time>
      </trkpt>
      <trkpt lat="46.12308" lon="6.54125">
        <ele>645</ele>
        <time>2019-06-11T16:17:28Z</time>
      </trkpt>
      <trkpt lat="46.1233" lon="6.54093">
        <ele>646</ele>
        <time>2019-06-11T16:17:33Z</time>
      </trkpt>
      <trkpt lat="46.12353" lon="6.5407">
        <ele>647</ele>
        <time>2019-06-11T16:17:38Z</time>
      </trkpt>
      <trkpt lat="46.12556" lon="6.53882">
        <ele>648</ele>
        <time>2019-06-11T16:18:21Z</time>
      </trkpt>
      <trkpt lat="46.12598" lon="6.53852">
        <ele>649</ele>
        <time>2019-06-11T16:18:30Z</time>
      </trkpt>
      <trkpt lat="46.12702" lon="6.53795">
        <ele>652</ele>
        <time>2019-06-11T16:18:50Z</time>
      </trkpt>
      <trkpt lat="46.12732" lon="6.5377">
        <ele>653</ele>
        <time>2019-06-11T16:18:56Z</time>
      </trkpt>
      <trkpt lat="46.12744" lon="6.53754">
        <ele>650</ele>
        <time>2019-06-11T16:18:59Z</time>
      </trkpt>
      <trkpt lat="46.12851" lon="6.53526">
        <ele>652</ele>
        <time>2019-06-11T16:19:33Z</time>
      </trkpt>
      <trkpt lat="46.12912" lon="6.53418">
        <ele>648</ele>
        <time>2019-06-11T16:19:50Z</time>
      </trkpt>
      <trkpt lat="46.12922" lon="6.53394">
        <ele>648</ele>
        <time>2019-06-11T16:19:53Z</time>
      </trkpt>
      <trkpt lat="46.12944" lon="6.53296">
        <ele>641</ele>
        <time>2019-06-11T16:20:06Z</time>
      </trkpt>
      <trkpt lat="46.12955" lon="6.53263">
        <ele>640</ele>
        <time>2019-06-11T16:20:10Z</time>
      </trkpt>
      <trkpt lat="46.12967" lon="6.53236">
        <ele>639</ele>
        <time>2019-06-11T16:20:14Z</time>
      </trkpt>
      <trkpt lat="46.13071" lon="6.53046">
        <ele>634</ele>
        <time>2019-06-11T16:20:44Z</time>
      </trkpt>
      <trkpt lat="46.13226" lon="6.52836">
        <ele>635</ele>
        <time>2019-06-11T16:21:22Z</time>
      </trkpt>
      <trkpt lat="46.1325" lon="6.52782">
        <ele>636</ele>
        <time>2019-06-11T16:21:30Z</time>
      </trkpt>
      <trkpt lat="46.13266" lon="6.52731">
        <ele>636</ele>
        <time>2019-06-11T16:21:37Z</time>
      </trkpt>
      <trkpt lat="46.13273" lon="6.52716">
        <ele>636</ele>
        <time>2019-06-11T16:21:39Z</time>
      </trkpt>
      <trkpt lat="46.13279" lon="6.5271">
        <ele>637</ele>
        <time>2019-06-11T16:21:40Z</time>
      </trkpt>
      <trkpt lat="46.13282" lon="6.52705">
        <ele>637</ele>
        <time>2019-06-11T16:21:41Z</time>
      </trkpt>
      <trkpt lat="46.13305" lon="6.52718">
        <ele>642</ele>
        <time>2019-06-11T16:21:46Z</time>
      </trkpt>
      <trkpt lat="46.13315" lon="6.52716">
        <ele>643</ele>
        <time>2019-06-11T16:21:47Z</time>
      </trkpt>
      <trkpt lat="46.13325" lon="6.5271">
        <ele>644</ele>
        <time>2019-06-11T16:21:49Z</time>
      </trkpt>
      <trkpt lat="46.13354" lon="6.5267">
        <ele>646</ele>
        <time>2019-06-11T16:21:56Z</time>
      </trkpt>
      <trkpt lat="46.13363" lon="6.52656">
        <ele>647</ele>
        <time>2019-06-11T16:21:59Z</time>
      </trkpt>
      <trkpt lat="46.13426" lon="6.52522">
        <ele>651</ele>
        <time>2019-06-11T16:22:19Z</time>
      </trkpt>
      <trkpt lat="46.13432" lon="6.52513">
        <ele>653</ele>
        <time>2019-06-11T16:22:20Z</time>
      </trkpt>
      <trkpt lat="46.13438" lon="6.52507">
        <ele>654</ele>
        <time>2019-06-11T16:22:22Z</time>
      </trkpt>
      <trkpt lat="46.13452" lon="6.52499">
        <ele>657</ele>
        <time>2019-06-11T16:22:24Z</time>
      </trkpt>
      <trkpt lat="46.13477" lon="6.5249">
        <ele>663</ele>
        <time>2019-06-11T16:22:29Z</time>
      </trkpt>
      <trkpt lat="46.13488" lon="6.52479">
        <ele>665</ele>
        <time>2019-06-11T16:22:31Z</time>
      </trkpt>
      <trkpt lat="46.13493" lon="6.52469">
        <ele>666</ele>
        <time>2019-06-11T16:22:33Z</time>
      </trkpt>
      <trkpt lat="46.13517" lon="6.52399">
        <ele>669</ele>
        <time>2019-06-11T16:22:42Z</time>
      </trkpt>
      <trkpt lat="46.13531" lon="6.52344">
        <ele>670</ele>
        <time>2019-06-11T16:22:50Z</time>
      </trkpt>
      <trkpt lat="46.13537" lon="6.52334">
        <ele>670</ele>
        <time>2019-06-11T16:22:51Z</time>
      </trkpt>
      <trkpt lat="46.13549" lon="6.52319">
        <ele>671</ele>
        <time>2019-06-11T16:22:54Z</time>
      </trkpt>
      <trkpt lat="46.13618" lon="6.52276">
        <ele>676</ele>
        <time>2019-06-11T16:23:07Z</time>
      </trkpt>
      <trkpt lat="46.1363" lon="6.52272">
        <ele>677</ele>
        <time>2019-06-11T16:23:10Z</time>
      </trkpt>
      <trkpt lat="46.13655" lon="6.5227">
        <ele>680</ele>
        <time>2019-06-11T16:23:14Z</time>
      </trkpt>
      <trkpt lat="46.13676" lon="6.52265">
        <ele>683</ele>
        <time>2019-06-11T16:23:18Z</time>
      </trkpt>
      <trkpt lat="46.13687" lon="6.52256">
        <ele>685</ele>
        <time>2019-06-11T16:23:20Z</time>
      </trkpt>
      <trkpt lat="46.13706" lon="6.52231">
        <ele>688</ele>
        <time>2019-06-11T16:23:25Z</time>
      </trkpt>
      <trkpt lat="46.13717" lon="6.52214">
        <ele>689</ele>
        <time>2019-06-11T16:23:28Z</time>
      </trkpt>
      <trkpt lat="46.1376" lon="6.52139">
        <ele>692</ele>
        <time>2019-06-11T16:23:40Z</time>
      </trkpt>
      <trkpt lat="46.13784" lon="6.52106">
        <ele>697</ele>
        <time>2019-06-11T16:23:45Z</time>
      </trkpt>
      <trkpt lat="46.13799" lon="6.52078">
        <ele>699</ele>
        <time>2019-06-11T16:23:50Z</time>
      </trkpt>
      <trkpt lat="46.13823" lon="6.52015">
        <ele>700</ele>
        <time>2019-06-11T16:23:59Z</time>
      </trkpt>
      <trkpt lat="46.13828" lon="6.52008">
        <ele>701</ele>
        <time>2019-06-11T16:24:00Z</time>
      </trkpt>
      <trkpt lat="46.13845" lon="6.51995">
        <ele>704</ele>
        <time>2019-06-11T16:24:03Z</time>
      </trkpt>
      <trkpt lat="46.13869" lon="6.51983">
        <ele>707</ele>
        <time>2019-06-11T16:24:08Z</time>
      </trkpt>
      <trkpt lat="46.1388" lon="6.51971">
        <ele>708</ele>
        <time>2019-06-11T16:24:10Z</time>
      </trkpt>
      <trkpt lat="46.13897" lon="6.5194">
        <ele>709</ele>
        <time>2019-06-11T16:24:15Z</time>
      </trkpt>
      <trkpt lat="46.13911" lon="6.51885">
        <ele>708</ele>
        <time>2019-06-11T16:24:22Z</time>
      </trkpt>
      <trkpt lat="46.13913" lon="6.51878">
        <ele>708</ele>
        <time>2019-06-11T16:24:23Z</time>
      </trkpt>
      <trkpt lat="46.13919" lon="6.51869">
        <ele>708</ele>
        <time>2019-06-11T16:24:25Z</time>
      </trkpt>
      <trkpt lat="46.13929" lon="6.51864">
        <ele>709</ele>
        <time>2019-06-11T16:24:27Z</time>
      </trkpt>
      <trkpt lat="46.13933" lon="6.51864">
        <ele>710</ele>
        <time>2019-06-11T16:24:28Z</time>
      </trkpt>
      <trkpt lat="46.13938" lon="6.51866">
        <ele>711</ele>
        <time>2019-06-11T16:24:28Z</time>
      </trkpt>
      <trkpt lat="46.13944" lon="6.51875">
        <ele>712</ele>
        <time>2019-06-11T16:24:30Z</time>
      </trkpt>
      <trkpt lat="46.13947" lon="6.51881">
        <ele>713</ele>
        <time>2019-06-11T16:24:31Z</time>
      </trkpt>
      <trkpt lat="46.13947" lon="6.51889">
        <ele>714</ele>
        <time>2019-06-11T16:24:32Z</time>
      </trkpt>
      <trkpt lat="46.13943" lon="6.51928">
        <ele>716</ele>
        <time>2019-06-11T16:24:37Z</time>
      </trkpt>
      <trkpt lat="46.13944" lon="6.51955">
        <ele>718</ele>
        <time>2019-06-11T16:24:40Z</time>
      </trkpt>
      <trkpt lat="46.1395" lon="6.51996">
        <ele>722</ele>
        <time>2019-06-11T16:24:45Z</time>
      </trkpt>
      <trkpt lat="46.13949" lon="6.5202">
        <ele>724</ele>
        <time>2019-06-11T16:24:48Z</time>
      </trkpt>
      <trkpt lat="46.13934" lon="6.52069">
        <ele>727</ele>
        <time>2019-06-11T16:24:55Z</time>
      </trkpt>
      <trkpt lat="46.13913" lon="6.52132">
        <ele>731</ele>
        <time>2019-06-11T16:25:03Z</time>
      </trkpt>
      <trkpt lat="46.13876" lon="6.52205">
        <ele>730</ele>
        <time>2019-06-11T16:25:15Z</time>
      </trkpt>
      <trkpt lat="46.13871" lon="6.52223">
        <ele>731</ele>
        <time>2019-06-11T16:25:17Z</time>
      </trkpt>
      <trkpt lat="46.13872" lon="6.52239">
        <ele>733</ele>
        <time>2019-06-11T16:25:19Z</time>
      </trkpt>
      <trkpt lat="46.13874" lon="6.52245">
        <ele>734</ele>
        <time>2019-06-11T16:25:20Z</time>
      </trkpt>
      <trkpt lat="46.13882" lon="6.52251">
        <ele>736</ele>
        <time>2019-06-11T16:25:21Z</time>
      </trkpt>
      <trkpt lat="46.13887" lon="6.52252">
        <ele>738</ele>
        <time>2019-06-11T16:25:22Z</time>
      </trkpt>
      <trkpt lat="46.13924" lon="6.52242">
        <ele>743</ele>
        <time>2019-06-11T16:25:29Z</time>
      </trkpt>
      <trkpt lat="46.13959" lon="6.52238">
        <ele>748</ele>
        <time>2019-06-11T16:25:35Z</time>
      </trkpt>
      <trkpt lat="46.14009" lon="6.52213">
        <ele>753</ele>
        <time>2019-06-11T16:25:45Z</time>
      </trkpt>
      <trkpt lat="46.1402" lon="6.52209">
        <ele>754</ele>
        <time>2019-06-11T16:25:47Z</time>
      </trkpt>
      <trkpt lat="46.14038" lon="6.52211">
        <ele>756</ele>
        <time>2019-06-11T16:25:50Z</time>
      </trkpt>
      <trkpt lat="46.1408" lon="6.52231">
        <ele>766</ele>
        <time>2019-06-11T16:25:58Z</time>
      </trkpt>
      <trkpt lat="46.14097" lon="6.52231">
        <ele>770</ele>
        <time>2019-06-11T16:26:01Z</time>
      </trkpt>
      <trkpt lat="46.14105" lon="6.52227">
        <ele>771</ele>
        <time>2019-06-11T16:26:02Z</time>
      </trkpt>
      <trkpt lat="46.14121" lon="6.52213">
        <ele>771</ele>
        <time>2019-06-11T16:26:06Z</time>
      </trkpt>
      <trkpt lat="46.14169" lon="6.52161">
        <ele>768</ele>
        <time>2019-06-11T16:26:16Z</time>
      </trkpt>
      <trkpt lat="46.14227" lon="6.52118">
        <ele>777</ele>
        <time>2019-06-11T16:26:28Z</time>
      </trkpt>
      <trkpt lat="46.14249" lon="6.52093">
        <ele>778</ele>
        <time>2019-06-11T16:26:33Z</time>
      </trkpt>
      <trkpt lat="46.14274" lon="6.52049">
        <ele>777</ele>
        <time>2019-06-11T16:26:40Z</time>
      </trkpt>
      <trkpt lat="46.14283" lon="6.52042">
        <ele>777</ele>
        <time>2019-06-11T16:26:42Z</time>
      </trkpt>
      <trkpt lat="46.14292" lon="6.52037">
        <ele>777</ele>
        <time>2019-06-11T16:26:43Z</time>
      </trkpt>
      <trkpt lat="46.14319" lon="6.52033">
        <ele>780</ele>
        <time>2019-06-11T16:26:48Z</time>
      </trkpt>
      <trkpt lat="46.14355" lon="6.52036">
        <ele>787</ele>
        <time>2019-06-11T16:26:55Z</time>
      </trkpt>
      <trkpt lat="46.14377" lon="6.52031">
        <ele>790</ele>
        <time>2019-06-11T16:26:59Z</time>
      </trkpt>
      <trkpt lat="46.14386" lon="6.52024">
        <ele>791</ele>
        <time>2019-06-11T16:27:00Z</time>
      </trkpt>
      <trkpt lat="46.14394" lon="6.52012">
        <ele>790</ele>
        <time>2019-06-11T16:27:02Z</time>
      </trkpt>
      <trkpt lat="46.14406" lon="6.51989">
        <ele>789</ele>
        <time>2019-06-11T16:27:06Z</time>
      </trkpt>
      <trkpt lat="46.14416" lon="6.51983">
        <ele>790</ele>
        <time>2019-06-11T16:27:08Z</time>
      </trkpt>
      <trkpt lat="46.14422" lon="6.51984">
        <ele>790</ele>
        <time>2019-06-11T16:27:09Z</time>
      </trkpt>
      <trkpt lat="46.14451" lon="6.5201">
        <ele>798</ele>
        <time>2019-06-11T16:27:15Z</time>
      </trkpt>
      <trkpt lat="46.14462" lon="6.52016">
        <ele>801</ele>
        <time>2019-06-11T16:27:17Z</time>
      </trkpt>
      <trkpt lat="46.14472" lon="6.52019">
        <ele>803</ele>
        <time>2019-06-11T16:27:19Z</time>
      </trkpt>
      <trkpt lat="46.14523" lon="6.5202">
        <ele>804</ele>
        <time>2019-06-11T16:27:28Z</time>
      </trkpt>
      <trkpt lat="46.1457" lon="6.52031">
        <ele>803</ele>
        <time>2019-06-11T16:27:37Z</time>
      </trkpt>
      <trkpt lat="46.1461" lon="6.52047">
        <ele>807</ele>
        <time>2019-06-11T16:27:44Z</time>
      </trkpt>
      <trkpt lat="46.14621" lon="6.5205">
        <ele>808</ele>
        <time>2019-06-11T16:27:46Z</time>
      </trkpt>
      <trkpt lat="46.14636" lon="6.52046">
        <ele>807</ele>
        <time>2019-06-11T16:27:49Z</time>
      </trkpt>
      <trkpt lat="46.14642" lon="6.52042">
        <ele>805</ele>
        <time>2019-06-11T16:27:50Z</time>
      </trkpt>
      <trkpt lat="46.14651" lon="6.5203">
        <ele>802</ele>
        <time>2019-06-11T16:27:52Z</time>
      </trkpt>
      <trkpt lat="46.14656" lon="6.52014">
        <ele>797</ele>
        <time>2019-06-11T16:27:54Z</time>
      </trkpt>
      <trkpt lat="46.14657" lon="6.51999">
        <ele>793</ele>
        <time>2019-06-11T16:27:56Z</time>
      </trkpt>
      <trkpt lat="46.14655" lon="6.51992">
        <ele>794</ele>
        <time>2019-06-11T16:27:57Z</time>
      </trkpt>
      <trkpt lat="46.14636" lon="6.51956">
        <ele>792</ele>
        <time>2019-06-11T16:28:03Z</time>
      </trkpt>
      <trkpt lat="46.14631" lon="6.5194">
        <ele>791</ele>
        <time>2019-06-11T16:28:05Z</time>
      </trkpt>
      <trkpt lat="46.14627" lon="6.51926">
        <ele>789</ele>
        <time>2019-06-11T16:28:07Z</time>
      </trkpt>
      <trkpt lat="46.14623" lon="6.51884">
        <ele>788</ele>
        <time>2019-06-11T16:28:12Z</time>
      </trkpt>
      <trkpt lat="46.14626" lon="6.51834">
        <ele>790</ele>
        <time>2019-06-11T16:28:18Z</time>
      </trkpt>
      <trkpt lat="46.14631" lon="6.51811">
        <ele>790</ele>
        <time>2019-06-11T16:28:21Z</time>
      </trkpt>
      <trkpt lat="46.14639" lon="6.51794">
        <ele>791</ele>
        <time>2019-06-11T16:28:23Z</time>
      </trkpt>
      <trkpt lat="46.14667" lon="6.51751">
        <ele>793</ele>
        <time>2019-06-11T16:28:31Z</time>
      </trkpt>
      <trkpt lat="46.14674" lon="6.51727">
        <ele>796</ele>
        <time>2019-06-11T16:28:34Z</time>
      </trkpt>
      <trkpt lat="46.14674" lon="6.51712">
        <ele>796</ele>
        <time>2019-06-11T16:28:36Z</time>
      </trkpt>
      <trkpt lat="46.14672" lon="6.51697">
        <ele>796</ele>
        <time>2019-06-11T16:28:38Z</time>
      </trkpt>
      <trkpt lat="46.14663" lon="6.51647">
        <ele>799</ele>
        <time>2019-06-11T16:28:44Z</time>
      </trkpt>
      <trkpt lat="46.14659" lon="6.51636">
        <ele>800</ele>
        <time>2019-06-11T16:28:46Z</time>
      </trkpt>
      <trkpt lat="46.1465" lon="6.51629">
        <ele>800</ele>
        <time>2019-06-11T16:28:47Z</time>
      </trkpt>
      <trkpt lat="46.14605" lon="6.51606">
        <ele>799</ele>
        <time>2019-06-11T16:28:56Z</time>
      </trkpt>
      <trkpt lat="46.14597" lon="6.516">
        <ele>799</ele>
        <time>2019-06-11T16:28:58Z</time>
      </trkpt>
      <trkpt lat="46.14587" lon="6.51585">
        <ele>801</ele>
        <time>2019-06-11T16:29:00Z</time>
      </trkpt>
      <trkpt lat="46.1458" lon="6.51568">
        <ele>802</ele>
        <time>2019-06-11T16:29:03Z</time>
      </trkpt>
      <trkpt lat="46.14576" lon="6.51549">
        <ele>802</ele>
        <time>2019-06-11T16:29:05Z</time>
      </trkpt>
      <trkpt lat="46.14576" lon="6.5153">
        <ele>804</ele>
        <time>2019-06-11T16:29:07Z</time>
      </trkpt>
      <trkpt lat="46.14579" lon="6.51477">
        <ele>807</ele>
        <time>2019-06-11T16:29:14Z</time>
      </trkpt>
      <trkpt lat="46.14578" lon="6.51455">
        <ele>808</ele>
        <time>2019-06-11T16:29:17Z</time>
      </trkpt>
      <trkpt lat="46.14575" lon="6.51445">
        <ele>808</ele>
        <time>2019-06-11T16:29:18Z</time>
      </trkpt>
      <trkpt lat="46.14566" lon="6.51425">
        <ele>809</ele>
        <time>2019-06-11T16:29:21Z</time>
      </trkpt>
      <trkpt lat="46.14542" lon="6.51385">
        <ele>808</ele>
        <time>2019-06-11T16:29:27Z</time>
      </trkpt>
      <trkpt lat="46.1454" lon="6.51371">
        <ele>808</ele>
        <time>2019-06-11T16:29:29Z</time>
      </trkpt>
      <trkpt lat="46.14541" lon="6.51364">
        <ele>808</ele>
        <time>2019-06-11T16:29:30Z</time>
      </trkpt>
      <trkpt lat="46.14547" lon="6.51353">
        <ele>808</ele>
        <time>2019-06-11T16:29:32Z</time>
      </trkpt>
      <trkpt lat="46.14569" lon="6.51323">
        <ele>810</ele>
        <time>2019-06-11T16:29:37Z</time>
      </trkpt>
      <trkpt lat="46.14611" lon="6.51259">
        <ele>813</ele>
        <time>2019-06-11T16:29:48Z</time>
      </trkpt>
      <trkpt lat="46.14624" lon="6.51248">
        <ele>814</ele>
        <time>2019-06-11T16:29:51Z</time>
      </trkpt>
      <trkpt lat="46.14643" lon="6.5124">
        <ele>815</ele>
        <time>2019-06-11T16:29:54Z</time>
      </trkpt>
      <trkpt lat="46.1466" lon="6.51239">
        <ele>817</ele>
        <time>2019-06-11T16:29:57Z</time>
      </trkpt>
      <trkpt lat="46.14671" lon="6.51245">
        <ele>818</ele>
        <time>2019-06-11T16:29:59Z</time>
      </trkpt>
      <trkpt lat="46.14697" lon="6.51277">
        <ele>824</ele>
        <time>2019-06-11T16:30:05Z</time>
      </trkpt>
      <trkpt lat="46.14714" lon="6.51309">
        <ele>827</ele>
        <time>2019-06-11T16:30:10Z</time>
      </trkpt>
      <trkpt lat="46.14726" lon="6.51348">
        <ele>828</ele>
        <time>2019-06-11T16:30:16Z</time>
      </trkpt>
      <trkpt lat="46.14754" lon="6.51491">
        <ele>829</ele>
        <time>2019-06-11T16:30:34Z</time>
      </trkpt>
      <trkpt lat="46.14765" lon="6.51517">
        <ele>831</ele>
        <time>2019-06-11T16:30:38Z</time>
      </trkpt>
      <trkpt lat="46.14773" lon="6.51533">
        <ele>832</ele>
        <time>2019-06-11T16:30:40Z</time>
      </trkpt>
      <trkpt lat="46.14787" lon="6.51552">
        <ele>835</ele>
        <time>2019-06-11T16:30:44Z</time>
      </trkpt>
      <trkpt lat="46.14799" lon="6.51558">
        <ele>838</ele>
        <time>2019-06-11T16:30:46Z</time>
      </trkpt>
      <trkpt lat="46.14805" lon="6.51557">
        <ele>839</ele>
        <time>2019-06-11T16:30:47Z</time>
      </trkpt>
      <trkpt lat="46.14808" lon="6.51553">
        <ele>840</ele>
        <time>2019-06-11T16:30:48Z</time>
      </trkpt>
      <trkpt lat="46.14811" lon="6.51545">
        <ele>841</ele>
        <time>2019-06-11T16:30:49Z</time>
      </trkpt>
      <trkpt lat="46.14812" lon="6.51537">
        <ele>842</ele>
        <time>2019-06-11T16:30:50Z</time>
      </trkpt>
      <trkpt lat="46.14809" lon="6.5152">
        <ele>842</ele>
        <time>2019-06-11T16:30:52Z</time>
      </trkpt>
      <trkpt lat="46.1479" lon="6.51475">
        <ele>839</ele>
        <time>2019-06-11T16:30:58Z</time>
      </trkpt>
      <trkpt lat="46.14781" lon="6.51443">
        <ele>838</ele>
        <time>2019-06-11T16:31:03Z</time>
      </trkpt>
      <trkpt lat="46.1478" lon="6.51432">
        <ele>838</ele>
        <time>2019-06-11T16:31:04Z</time>
      </trkpt>
      <trkpt lat="46.14782" lon="6.51404">
        <ele>840</ele>
        <time>2019-06-11T16:31:08Z</time>
      </trkpt>
      <trkpt lat="46.14788" lon="6.51354">
        <ele>845</ele>
        <time>2019-06-11T16:31:14Z</time>
      </trkpt>
      <trkpt lat="46.14789" lon="6.51333">
        <ele>847</ele>
        <time>2019-06-11T16:31:16Z</time>
      </trkpt>
      <trkpt lat="46.1478" lon="6.51231">
        <ele>849</ele>
        <time>2019-06-11T16:31:29Z</time>
      </trkpt>
      <trkpt lat="46.14781" lon="6.51212">
        <ele>849</ele>
        <time>2019-06-11T16:31:31Z</time>
      </trkpt>
      <trkpt lat="46.14784" lon="6.51194">
        <ele>850</ele>
        <time>2019-06-11T16:31:34Z</time>
      </trkpt>
      <trkpt lat="46.1479" lon="6.51174">
        <ele>852</ele>
        <time>2019-06-11T16:31:36Z</time>
      </trkpt>
      <trkpt lat="46.14799" lon="6.51161">
        <ele>855</ele>
        <time>2019-06-11T16:31:39Z</time>
      </trkpt>
      <trkpt lat="46.1483" lon="6.51139">
        <ele>863</ele>
        <time>2019-06-11T16:31:45Z</time>
      </trkpt>
      <trkpt lat="46.14841" lon="6.51127">
        <ele>865</ele>
        <time>2019-06-11T16:31:47Z</time>
      </trkpt>
      <trkpt lat="46.14846" lon="6.51113">
        <ele>866</ele>
        <time>2019-06-11T16:31:49Z</time>
      </trkpt>
      <trkpt lat="46.14846" lon="6.51105">
        <ele>866</ele>
        <time>2019-06-11T16:31:50Z</time>
      </trkpt>
      <trkpt lat="46.14845" lon="6.51058">
        <ele>865</ele>
        <time>2019-06-11T16:31:56Z</time>
      </trkpt>
      <trkpt lat="46.14848" lon="6.51032">
        <ele>865</ele>
        <time>2019-06-11T16:31:59Z</time>
      </trkpt>
      <trkpt lat="46.14859" lon="6.51007">
        <ele>868</ele>
        <time>2019-06-11T16:32:03Z</time>
      </trkpt>
      <trkpt lat="46.14911" lon="6.50924">
        <ele>877</ele>
        <time>2019-06-11T16:32:17Z</time>
      </trkpt>
      <trkpt lat="46.1492" lon="6.50899">
        <ele>880</ele>
        <time>2019-06-11T16:32:20Z</time>
      </trkpt>
      <trkpt lat="46.14932" lon="6.50825">
        <ele>885</ele>
        <time>2019-06-11T16:32:29Z</time>
      </trkpt>
      <trkpt lat="46.14938" lon="6.50812">
        <ele>885</ele>
        <time>2019-06-11T16:32:31Z</time>
      </trkpt>
      <trkpt lat="46.14946" lon="6.508">
        <ele>885</ele>
        <time>2019-06-11T16:32:33Z</time>
      </trkpt>
      <trkpt lat="46.15001" lon="6.50754">
        <ele>890</ele>
        <time>2019-06-11T16:32:45Z</time>
      </trkpt>
      <trkpt lat="46.15005" lon="6.50752">
        <ele>891</ele>
        <time>2019-06-11T16:32:46Z</time>
      </trkpt>
      <trkpt lat="46.15009" lon="6.50752">
        <ele>891</ele>
        <time>2019-06-11T16:32:46Z</time>
      </trkpt>
      <trkpt lat="46.15016" lon="6.50757">
        <ele>892</ele>
        <time>2019-06-11T16:32:48Z</time>
      </trkpt>
      <trkpt lat="46.1502" lon="6.50768">
        <ele>894</ele>
        <time>2019-06-11T16:32:49Z</time>
      </trkpt>
      <trkpt lat="46.1502" lon="6.50781">
        <ele>894</ele>
        <time>2019-06-11T16:32:51Z</time>
      </trkpt>
      <trkpt lat="46.15008" lon="6.50803">
        <ele>894</ele>
        <time>2019-06-11T16:32:54Z</time>
      </trkpt>
      <trkpt lat="46.15002" lon="6.50818">
        <ele>894</ele>
        <time>2019-06-11T16:32:56Z</time>
      </trkpt>
      <trkpt lat="46.14997" lon="6.50835">
        <ele>895</ele>
        <time>2019-06-11T16:32:59Z</time>
      </trkpt>
      <trkpt lat="46.14995" lon="6.50853">
        <ele>895</ele>
        <time>2019-06-11T16:33:01Z</time>
      </trkpt>
      <trkpt lat="46.14999" lon="6.50942">
        <ele>897</ele>
        <time>2019-06-11T16:33:12Z</time>
      </trkpt>
      <trkpt lat="46.15003" lon="6.50977">
        <ele>899</ele>
        <time>2019-06-11T16:33:16Z</time>
      </trkpt>
      <trkpt lat="46.15008" lon="6.51003">
        <ele>900</ele>
        <time>2019-06-11T16:33:20Z</time>
      </trkpt>
      <trkpt lat="46.15012" lon="6.51013">
        <ele>900</ele>
        <time>2019-06-11T16:33:21Z</time>
      </trkpt>
      <trkpt lat="46.15021" lon="6.51034">
        <ele>902</ele>
        <time>2019-06-11T16:33:24Z</time>
      </trkpt>
      <trkpt lat="46.15031" lon="6.5105">
        <ele>903</ele>
        <time>2019-06-11T16:33:27Z</time>
      </trkpt>
      <trkpt lat="46.1504" lon="6.51062">
        <ele>904</ele>
        <time>2019-06-11T16:33:29Z</time>
      </trkpt>
      <trkpt lat="46.15049" lon="6.51072">
        <ele>906</ele>
        <time>2019-06-11T16:33:31Z</time>
      </trkpt>
      <trkpt lat="46.15076" lon="6.51089">
        <ele>910</ele>
        <time>2019-06-11T16:33:36Z</time>
      </trkpt>
      <trkpt lat="46.15081" lon="6.51094">
        <ele>911</ele>
        <time>2019-06-11T16:33:37Z</time>
      </trkpt>
      <trkpt lat="46.15109" lon="6.51017">
        <ele>913</ele>
        <time>2019-06-11T16:33:48Z</time>
      </trkpt>
      <trkpt lat="46.15119" lon="6.50999">
        <ele>914</ele>
        <time>2019-06-11T16:33:51Z</time>
      </trkpt>
      <trkpt lat="46.15151" lon="6.50953">
        <ele>917</ele>
        <time>2019-06-11T16:33:59Z</time>
      </trkpt>
      <trkpt lat="46.15194" lon="6.50917">
        <ele>923</ele>
        <time>2019-06-11T16:34:08Z</time>
      </trkpt>
      <trkpt lat="46.15204" lon="6.50905">
        <ele>924</ele>
        <time>2019-06-11T16:34:10Z</time>
      </trkpt>
      <trkpt lat="46.15211" lon="6.50891">
        <ele>924</ele>
        <time>2019-06-11T16:34:12Z</time>
      </trkpt>
      <trkpt lat="46.15226" lon="6.50843">
        <ele>925</ele>
        <time>2019-06-11T16:34:19Z</time>
      </trkpt>
      <trkpt lat="46.15238" lon="6.50814">
        <ele>923</ele>
        <time>2019-06-11T16:34:23Z</time>
      </trkpt>
      <trkpt lat="46.15247" lon="6.50799">
        <ele>923</ele>
        <time>2019-06-11T16:34:25Z</time>
      </trkpt>
      <trkpt lat="46.1528" lon="6.5076">
        <ele>924</ele>
        <time>2019-06-11T16:34:33Z</time>
      </trkpt>
      <trkpt lat="46.15325" lon="6.50716">
        <ele>929</ele>
        <time>2019-06-11T16:34:42Z</time>
      </trkpt>
      <trkpt lat="46.15339" lon="6.50707">
        <ele>930</ele>
        <time>2019-06-11T16:34:45Z</time>
      </trkpt>
      <trkpt lat="46.15355" lon="6.50702">
        <ele>930</ele>
        <time>2019-06-11T16:34:48Z</time>
      </trkpt>
      <trkpt lat="46.15392" lon="6.50698">
        <ele>931</ele>
        <time>2019-06-11T16:34:55Z</time>
      </trkpt>
      <trkpt lat="46.15408" lon="6.50693">
        <ele>931</ele>
        <time>2019-06-11T16:34:58Z</time>
      </trkpt>
      <trkpt lat="46.15416" lon="6.50684">
        <ele>931</ele>
        <time>2019-06-11T16:34:59Z</time>
      </trkpt>
      <trkpt lat="46.1542" lon="6.50677">
        <ele>931</ele>
        <time>2019-06-11T16:35:01Z</time>
      </trkpt>
      <trkpt lat="46.15426" lon="6.50647">
        <ele>930</ele>
        <time>2019-06-11T16:35:04Z</time>
      </trkpt>
      <trkpt lat="46.15446" lon="6.50593">
        <ele>929</ele>
        <time>2019-06-11T16:35:12Z</time>
      </trkpt>
      <trkpt lat="46.15456" lon="6.50569">
        <ele>929</ele>
        <time>2019-06-11T16:35:15Z</time>
      </trkpt>
      <trkpt lat="46.15464" lon="6.50555">
        <ele>928</ele>
        <time>2019-06-11T16:35:18Z</time>
      </trkpt>
      <trkpt lat="46.15555" lon="6.50459">
        <ele>926</ele>
        <time>2019-06-11T16:35:38Z</time>
      </trkpt>
      <trkpt lat="46.15629" lon="6.50357">
        <ele>924</ele>
        <time>2019-06-11T16:35:56Z</time>
      </trkpt>
      <trkpt lat="46.1564" lon="6.50333">
        <ele>924</ele>
        <time>2019-06-11T16:35:59Z</time>
      </trkpt>
      <trkpt lat="46.15655" lon="6.50281">
        <ele>922</ele>
        <time>2019-06-11T16:36:06Z</time>
      </trkpt>
      <trkpt lat="46.15676" lon="6.50229">
        <ele>918</ele>
        <time>2019-06-11T16:36:14Z</time>
      </trkpt>
      <trkpt lat="46.15681" lon="6.50213">
        <ele>917</ele>
        <time>2019-06-11T16:36:16Z</time>
      </trkpt>
      <trkpt lat="46.15684" lon="6.50196">
        <ele>915</ele>
        <time>2019-06-11T16:36:18Z</time>
      </trkpt>
      <trkpt lat="46.15688" lon="6.50109">
        <ele>909</ele>
        <time>2019-06-11T16:36:29Z</time>
      </trkpt>
      <trkpt lat="46.15694" lon="6.50067">
        <ele>906</ele>
        <time>2019-06-11T16:36:34Z</time>
      </trkpt>
      <trkpt lat="46.15747" lon="6.49958">
        <ele>899</ele>
        <time>2019-06-11T16:36:51Z</time>
      </trkpt>
      <trkpt lat="46.15773" lon="6.4988">
        <ele>892</ele>
        <time>2019-06-11T16:37:01Z</time>
      </trkpt>
      <trkpt lat="46.15793" lon="6.49849">
        <ele>889</ele>
        <time>2019-06-11T16:37:06Z</time>
      </trkpt>
      <trkpt lat="46.15824" lon="6.49814">
        <ele>888</ele>
        <time>2019-06-11T16:37:13Z</time>
      </trkpt>
      <trkpt lat="46.15842" lon="6.49797">
        <ele>888</ele>
        <time>2019-06-11T16:37:17Z</time>
      </trkpt>
      <trkpt lat="46.15904" lon="6.49749">
        <ele>888</ele>
        <time>2019-06-11T16:37:30Z</time>
      </trkpt>
      <trkpt lat="46.15936" lon="6.49728">
        <ele>887</ele>
        <time>2019-06-11T16:37:36Z</time>
      </trkpt>
      <trkpt lat="46.16029" lon="6.49676">
        <ele>882</ele>
        <time>2019-06-11T16:37:54Z</time>
      </trkpt>
      <trkpt lat="46.1608" lon="6.49638">
        <ele>879</ele>
        <time>2019-06-11T16:38:04Z</time>
      </trkpt>
      <trkpt lat="46.16116" lon="6.49606">
        <ele>872</ele>
        <time>2019-06-11T16:38:12Z</time>
      </trkpt>
      <trkpt lat="46.16163" lon="6.49556">
        <ele>867</ele>
        <time>2019-06-11T16:38:22Z</time>
      </trkpt>
      <trkpt lat="46.16177" lon="6.49543">
        <ele>867</ele>
        <time>2019-06-11T16:38:25Z</time>
      </trkpt>
      <trkpt lat="46.1627" lon="6.49481">
        <ele>864</ele>
        <time>2019-06-11T16:38:43Z</time>
      </trkpt>
      <trkpt lat="46.16328" lon="6.49466">
        <ele>863</ele>
        <time>2019-06-11T16:38:54Z</time>
      </trkpt>
      <trkpt lat="46.16337" lon="6.49458">
        <ele>862</ele>
        <time>2019-06-11T16:38:55Z</time>
      </trkpt>
      <trkpt lat="46.16343" lon="6.49444">
        <ele>860</ele>
        <time>2019-06-11T16:38:57Z</time>
      </trkpt>
      <trkpt lat="46.16344" lon="6.49428">
        <ele>858</ele>
        <time>2019-06-11T16:38:59Z</time>
      </trkpt>
      <trkpt lat="46.16343" lon="6.49418">
        <ele>857</ele>
        <time>2019-06-11T16:39:01Z</time>
      </trkpt>
      <trkpt lat="46.16341" lon="6.4941">
        <ele>856</ele>
        <time>2019-06-11T16:39:02Z</time>
      </trkpt>
      <trkpt lat="46.16332" lon="6.49396">
        <ele>854</ele>
        <time>2019-06-11T16:39:04Z</time>
      </trkpt>
      <trkpt lat="46.16307" lon="6.49375">
        <ele>851</ele>
        <time>2019-06-11T16:39:09Z</time>
      </trkpt>
      <trkpt lat="46.16238" lon="6.49347">
        <ele>848</ele>
        <time>2019-06-11T16:39:22Z</time>
      </trkpt>
      <trkpt lat="46.16232" lon="6.49337">
        <ele>847</ele>
        <time>2019-06-11T16:39:24Z</time>
      </trkpt>
      <trkpt lat="46.16219" lon="6.49268">
        <ele>839</ele>
        <time>2019-06-11T16:39:32Z</time>
      </trkpt>
      <trkpt lat="46.16209" lon="6.4924">
        <ele>837</ele>
        <time>2019-06-11T16:39:36Z</time>
      </trkpt>
      <trkpt lat="46.16199" lon="6.49189">
        <ele>834</ele>
        <time>2019-06-11T16:39:43Z</time>
      </trkpt>
      <trkpt lat="46.16197" lon="6.49182">
        <ele>834</ele>
        <time>2019-06-11T16:39:44Z</time>
      </trkpt>
      <trkpt lat="46.16218" lon="6.4916">
        <ele>833</ele>
        <time>2019-06-11T16:39:48Z</time>
      </trkpt>
      <trkpt lat="46.16231" lon="6.49151">
        <ele>833</ele>
        <time>2019-06-11T16:39:51Z</time>
      </trkpt>
      <trkpt lat="46.16246" lon="6.49152">
        <ele>833</ele>
        <time>2019-06-11T16:39:54Z</time>
      </trkpt>
      <trkpt lat="46.16374" lon="6.49194">
        <ele>832</ele>
        <time>2019-06-11T16:40:17Z</time>
      </trkpt>
      <trkpt lat="46.16392" lon="6.49202">
        <ele>831</ele>
        <time>2019-06-11T16:40:20Z</time>
      </trkpt>
      <trkpt lat="46.16404" lon="6.49212">
        <ele>832</ele>
        <time>2019-06-11T16:40:23Z</time>
      </trkpt>
      <trkpt lat="46.16451" lon="6.49269">
        <ele>832</ele>
        <time>2019-06-11T16:40:34Z</time>
      </trkpt>
      <trkpt lat="46.16463" lon="6.49282">
        <ele>832</ele>
        <time>2019-06-11T16:40:36Z</time>
      </trkpt>
      <trkpt lat="46.16475" lon="6.49291">
        <ele>832</ele>
        <time>2019-06-11T16:40:39Z</time>
      </trkpt>
      <trkpt lat="46.16499" lon="6.49303">
        <ele>831</ele>
        <time>2019-06-11T16:40:43Z</time>
      </trkpt>
      <trkpt lat="46.16565" lon="6.49323">
        <ele>830</ele>
        <time>2019-06-11T16:40:55Z</time>
      </trkpt>
      <trkpt lat="46.16625" lon="6.49357">
        <ele>832</ele>
        <time>2019-06-11T16:41:07Z</time>
      </trkpt>
      <trkpt lat="46.16713" lon="6.49395">
        <ele>838</ele>
        <time>2019-06-11T16:41:23Z</time>
      </trkpt>
      <trkpt lat="46.16723" lon="6.49405">
        <ele>839</ele>
        <time>2019-06-11T16:41:25Z</time>
      </trkpt>
      <trkpt lat="46.16731" lon="6.49419">
        <ele>841</ele>
        <time>2019-06-11T16:41:28Z</time>
      </trkpt>
      <trkpt lat="46.16757" lon="6.49474">
        <ele>847</ele>
        <time>2019-06-11T16:41:36Z</time>
      </trkpt>
      <trkpt lat="46.16813" lon="6.49543">
        <ele>846</ele>
        <time>2019-06-11T16:41:49Z</time>
      </trkpt>
      <trkpt lat="46.16868" lon="6.49627">
        <ele>845</ele>
        <time>2019-06-11T16:42:03Z</time>
      </trkpt>
      <trkpt lat="46.16913" lon="6.49708">
        <ele>844</ele>
        <time>2019-06-11T16:42:16Z</time>
      </trkpt>
      <trkpt lat="46.16924" lon="6.49725">
        <ele>845</ele>
        <time>2019-06-11T16:42:19Z</time>
      </trkpt>
      <trkpt lat="46.16945" lon="6.49744">
        <ele>846</ele>
        <time>2019-06-11T16:42:23Z</time>
      </trkpt>
      <trkpt lat="46.16999" lon="6.49781">
        <ele>847</ele>
        <time>2019-06-11T16:42:34Z</time>
      </trkpt>
      <trkpt lat="46.17008" lon="6.49791">
        <ele>847</ele>
        <time>2019-06-11T16:42:36Z</time>
      </trkpt>
      <trkpt lat="46.1702" lon="6.49814">
        <ele>848</ele>
        <time>2019-06-11T16:42:39Z</time>
      </trkpt>
      <trkpt lat="46.17084" lon="6.50018">
        <ele>855</ele>
        <time>2019-06-11T16:43:07Z</time>
      </trkpt>
      <trkpt lat="46.17094" lon="6.50074">
        <ele>859</ele>
        <time>2019-06-11T16:43:14Z</time>
      </trkpt>
      <trkpt lat="46.17101" lon="6.50092">
        <ele>860</ele>
        <time>2019-06-11T16:43:17Z</time>
      </trkpt>
      <trkpt lat="46.17113" lon="6.50109">
        <ele>860</ele>
        <time>2019-06-11T16:43:20Z</time>
      </trkpt>
      <trkpt lat="46.17149" lon="6.50139">
        <ele>860</ele>
        <time>2019-06-11T16:43:27Z</time>
      </trkpt>
      <trkpt lat="46.17164" lon="6.50158">
        <ele>860</ele>
        <time>2019-06-11T16:43:31Z</time>
      </trkpt>
      <trkpt lat="46.17167" lon="6.50172">
        <ele>861</ele>
        <time>2019-06-11T16:43:32Z</time>
      </trkpt>
      <trkpt lat="46.17166" lon="6.50188">
        <ele>863</ele>
        <time>2019-06-11T16:43:34Z</time>
      </trkpt>
      <trkpt lat="46.17151" lon="6.50217">
        <ele>868</ele>
        <time>2019-06-11T16:43:39Z</time>
      </trkpt>
      <trkpt lat="46.17133" lon="6.50244">
        <ele>872</ele>
        <time>2019-06-11T16:43:43Z</time>
      </trkpt>
      <trkpt lat="46.17131" lon="6.50253">
        <ele>873</ele>
        <time>2019-06-11T16:43:45Z</time>
      </trkpt>
      <trkpt lat="46.17131" lon="6.50267">
        <ele>875</ele>
        <time>2019-06-11T16:43:46Z</time>
      </trkpt>
      <trkpt lat="46.17135" lon="6.50288">
        <ele>877</ele>
        <time>2019-06-11T16:43:49Z</time>
      </trkpt>
      <trkpt lat="46.17143" lon="6.50307">
        <ele>880</ele>
        <time>2019-06-11T16:43:52Z</time>
      </trkpt>
      <trkpt lat="46.17155" lon="6.50325">
        <ele>882</ele>
        <time>2019-06-11T16:43:55Z</time>
      </trkpt>
      <trkpt lat="46.17166" lon="6.50337">
        <ele>883</ele>
        <time>2019-06-11T16:43:57Z</time>
      </trkpt>
      <trkpt lat="46.1718" lon="6.50347">
        <ele>884</ele>
        <time>2019-06-11T16:44:00Z</time>
      </trkpt>
      <trkpt lat="46.17258" lon="6.50366">
        <ele>884</ele>
        <time>2019-06-11T16:44:14Z</time>
      </trkpt>
      <trkpt lat="46.17276" lon="6.5038">
        <ele>883</ele>
        <time>2019-06-11T16:44:18Z</time>
      </trkpt>
      <trkpt lat="46.17302" lon="6.50407">
        <ele>881</ele>
        <time>2019-06-11T16:44:23Z</time>
      </trkpt>
      <trkpt lat="46.17322" lon="6.50446">
        <ele>882</ele>
        <time>2019-06-11T16:44:29Z</time>
      </trkpt>
      <trkpt lat="46.17338" lon="6.5047">
        <ele>881</ele>
        <time>2019-06-11T16:44:34Z</time>
      </trkpt>
      <trkpt lat="46.17346" lon="6.5049">
        <ele>881</ele>
        <time>2019-06-11T16:44:36Z</time>
      </trkpt>
      <trkpt lat="46.17362" lon="6.50544">
        <ele>884</ele>
        <time>2019-06-11T16:44:44Z</time>
      </trkpt>
      <trkpt lat="46.17383" lon="6.50588">
        <ele>885</ele>
        <time>2019-06-11T16:44:50Z</time>
      </trkpt>
      <trkpt lat="46.17394" lon="6.50601">
        <ele>885</ele>
        <time>2019-06-11T16:44:53Z</time>
      </trkpt>
      <trkpt lat="46.17417" lon="6.50611">
        <ele>883</ele>
        <time>2019-06-11T16:44:57Z</time>
      </trkpt>
      <trkpt lat="46.17427" lon="6.50622">
        <ele>882</ele>
        <time>2019-06-11T16:44:59Z</time>
      </trkpt>
      <trkpt lat="46.17432" lon="6.5063">
        <ele>883</ele>
        <time>2019-06-11T16:45:01Z</time>
      </trkpt>
      <trkpt lat="46.17439" lon="6.50649">
        <ele>884</ele>
        <time>2019-06-11T16:45:03Z</time>
      </trkpt>
      <trkpt lat="46.17443" lon="6.50669">
        <ele>886</ele>
        <time>2019-06-11T16:45:06Z</time>
      </trkpt>
      <trkpt lat="46.17446" lon="6.50739">
        <ele>893</ele>
        <time>2019-06-11T16:45:14Z</time>
      </trkpt>
      <trkpt lat="46.17448" lon="6.50748">
        <ele>894</ele>
        <time>2019-06-11T16:45:16Z</time>
      </trkpt>
      <trkpt lat="46.17451" lon="6.50755">
        <ele>895</ele>
        <time>2019-06-11T16:45:17Z</time>
      </trkpt>
      <trkpt lat="46.1746" lon="6.50767">
        <ele>896</ele>
        <time>2019-06-11T16:45:19Z</time>
      </trkpt>
      <trkpt lat="46.17489" lon="6.50776">
        <ele>896</ele>
        <time>2019-06-11T16:45:24Z</time>
      </trkpt>
      <trkpt lat="46.17502" lon="6.50775">
        <ele>896</ele>
        <time>2019-06-11T16:45:26Z</time>
      </trkpt>
      <trkpt lat="46.17508" lon="6.5077">
        <ele>896</ele>
        <time>2019-06-11T16:45:28Z</time>
      </trkpt>
      <trkpt lat="46.17518" lon="6.50757">
        <ele>895</ele>
        <time>2019-06-11T16:45:30Z</time>
      </trkpt>
      <trkpt lat="46.17535" lon="6.50707">
        <ele>891</ele>
        <time>2019-06-11T16:45:37Z</time>
      </trkpt>
      <trkpt lat="46.17538" lon="6.50682">
        <ele>887</ele>
        <time>2019-06-11T16:45:40Z</time>
      </trkpt>
      <trkpt lat="46.17539" lon="6.50641">
        <ele>879</ele>
        <time>2019-06-11T16:45:45Z</time>
      </trkpt>
      <trkpt lat="46.17543" lon="6.50623">
        <ele>877</ele>
        <time>2019-06-11T16:45:47Z</time>
      </trkpt>
      <trkpt lat="46.17564" lon="6.50576">
        <ele>870</ele>
        <time>2019-06-11T16:45:54Z</time>
      </trkpt>
      <trkpt lat="46.17579" lon="6.50548">
        <ele>868</ele>
        <time>2019-06-11T16:45:59Z</time>
      </trkpt>
      <trkpt lat="46.1759" lon="6.50535">
        <ele>867</ele>
        <time>2019-06-11T16:46:01Z</time>
      </trkpt>
      <trkpt lat="46.17601" lon="6.50526">
        <ele>867</ele>
        <time>2019-06-11T16:46:03Z</time>
      </trkpt>
      <trkpt lat="46.17611" lon="6.50522">
        <ele>867</ele>
        <time>2019-06-11T16:46:05Z</time>
      </trkpt>
      <trkpt lat="46.17621" lon="6.5052">
        <ele>868</ele>
        <time>2019-06-11T16:46:07Z</time>
      </trkpt>
      <trkpt lat="46.17676" lon="6.50541">
        <ele>876</ele>
        <time>2019-06-11T16:46:17Z</time>
      </trkpt>
      <trkpt lat="46.17694" lon="6.50541">
        <ele>876</ele>
        <time>2019-06-11T16:46:20Z</time>
      </trkpt>
      <trkpt lat="46.17733" lon="6.50534">
        <ele>876</ele>
        <time>2019-06-11T16:46:27Z</time>
      </trkpt>
      <trkpt lat="46.17754" lon="6.50534">
        <ele>876</ele>
        <time>2019-06-11T16:46:31Z</time>
      </trkpt>
      <trkpt lat="46.17765" lon="6.50535">
        <ele>877</ele>
        <time>2019-06-11T16:46:33Z</time>
      </trkpt>
      <trkpt lat="46.17815" lon="6.5055">
        <ele>880</ele>
        <time>2019-06-11T16:46:42Z</time>
      </trkpt>
      <trkpt lat="46.17832" lon="6.50552">
        <ele>880</ele>
        <time>2019-06-11T16:46:45Z</time>
      </trkpt>
      <trkpt lat="46.17871" lon="6.50537">
        <ele>880</ele>
        <time>2019-06-11T16:46:52Z</time>
      </trkpt>
      <trkpt lat="46.17911" lon="6.50517">
        <ele>879</ele>
        <time>2019-06-11T16:47:00Z</time>
      </trkpt>
      <trkpt lat="46.1802" lon="6.50479">
        <ele>876</ele>
        <time>2019-06-11T16:47:20Z</time>
      </trkpt>
      <trkpt lat="46.18035" lon="6.5048">
        <ele>876</ele>
        <time>2019-06-11T16:47:23Z</time>
      </trkpt>
      <trkpt lat="46.18112" lon="6.50496">
        <ele>877</ele>
        <time>2019-06-11T16:47:36Z</time>
      </trkpt>
      <trkpt lat="46.18159" lon="6.5052">
        <ele>880</ele>
        <time>2019-06-11T16:47:45Z</time>
      </trkpt>
      <trkpt lat="46.18178" lon="6.50524">
        <ele>881</ele>
        <time>2019-06-11T16:47:49Z</time>
      </trkpt>
      <trkpt lat="46.18227" lon="6.50525">
        <ele>883</ele>
        <time>2019-06-11T16:47:57Z</time>
      </trkpt>
      <trkpt lat="46.18301" lon="6.50548">
        <ele>890</ele>
        <time>2019-06-11T16:48:11Z</time>
      </trkpt>
      <trkpt lat="46.18315" lon="6.50548">
        <ele>891</ele>
        <time>2019-06-11T16:48:13Z</time>
      </trkpt>
      <trkpt lat="46.18329" lon="6.50541">
        <ele>892</ele>
        <time>2019-06-11T16:48:16Z</time>
      </trkpt>
      <trkpt lat="46.18341" lon="6.5053">
        <ele>892</ele>
        <time>2019-06-11T16:48:19Z</time>
      </trkpt>
      <trkpt lat="46.18349" lon="6.5051">
        <ele>892</ele>
        <time>2019-06-11T16:48:21Z</time>
      </trkpt>
      <trkpt lat="46.18356" lon="6.50482">
        <ele>891</ele>
        <time>2019-06-11T16:48:25Z</time>
      </trkpt>
      <trkpt lat="46.18368" lon="6.50417">
        <ele>888</ele>
        <time>2019-06-11T16:48:33Z</time>
      </trkpt>
      <trkpt lat="46.18376" lon="6.50396">
        <ele>889</ele>
        <time>2019-06-11T16:48:36Z</time>
      </trkpt>
      <trkpt lat="46.18389" lon="6.50378">
        <ele>891</ele>
        <time>2019-06-11T16:48:39Z</time>
      </trkpt>
      <trkpt lat="46.18406" lon="6.50364">
        <ele>896</ele>
        <time>2019-06-11T16:48:43Z</time>
      </trkpt>
      <trkpt lat="46.18418" lon="6.50358">
        <ele>898</ele>
        <time>2019-06-11T16:48:45Z</time>
      </trkpt>
      <trkpt lat="46.18432" lon="6.50359">
        <ele>899</ele>
        <time>2019-06-11T16:48:48Z</time>
      </trkpt>
      <trkpt lat="46.18474" lon="6.50374">
        <ele>901</ele>
        <time>2019-06-11T16:48:55Z</time>
      </trkpt>
      <trkpt lat="46.18489" lon="6.50376">
        <ele>902</ele>
        <time>2019-06-11T16:48:58Z</time>
      </trkpt>
      <trkpt lat="46.18505" lon="6.50373">
        <ele>902</ele>
        <time>2019-06-11T16:49:01Z</time>
      </trkpt>
      <trkpt lat="46.18539" lon="6.50358">
        <ele>904</ele>
        <time>2019-06-11T16:49:07Z</time>
      </trkpt>
      <trkpt lat="46.18546" lon="6.50357">
        <ele>905</ele>
        <time>2019-06-11T16:49:09Z</time>
      </trkpt>
      <trkpt lat="46.18559" lon="6.50362">
        <ele>906</ele>
        <time>2019-06-11T16:49:11Z</time>
      </trkpt>
      <trkpt lat="46.18576" lon="6.50377">
        <ele>909</ele>
        <time>2019-06-11T16:49:14Z</time>
      </trkpt>
      <trkpt lat="46.18589" lon="6.50379">
        <ele>910</ele>
        <time>2019-06-11T16:49:17Z</time>
      </trkpt>
      <trkpt lat="46.18605" lon="6.50373">
        <ele>910</ele>
        <time>2019-06-11T16:49:20Z</time>
      </trkpt>
      <trkpt lat="46.18623" lon="6.50358">
        <ele>910</ele>
        <time>2019-06-11T16:49:23Z</time>
      </trkpt>
      <trkpt lat="46.18651" lon="6.50325">
        <ele>910</ele>
        <time>2019-06-11T16:49:30Z</time>
      </trkpt>
      <trkpt lat="46.18659" lon="6.50322">
        <ele>910</ele>
        <time>2019-06-11T16:49:31Z</time>
      </trkpt>
      <trkpt lat="46.18667" lon="6.50323">
        <ele>911</ele>
        <time>2019-06-11T16:49:33Z</time>
      </trkpt>
      <trkpt lat="46.18767" lon="6.50348">
        <ele>918</ele>
        <time>2019-06-11T16:49:51Z</time>
      </trkpt>
      <trkpt lat="46.18801" lon="6.50346">
        <ele>918</ele>
        <time>2019-06-11T16:49:57Z</time>
      </trkpt>
      <trkpt lat="46.18828" lon="6.50338">
        <ele>918</ele>
        <time>2019-06-11T16:50:02Z</time>
      </trkpt>
      <trkpt lat="46.18886" lon="6.50311">
        <ele>917</ele>
        <time>2019-06-11T16:50:13Z</time>
      </trkpt>
      <trkpt lat="46.18901" lon="6.50307">
        <ele>916</ele>
        <time>2019-06-11T16:50:15Z</time>
      </trkpt>
      <trkpt lat="46.18955" lon="6.50296">
        <ele>912</ele>
        <time>2019-06-11T16:50:25Z</time>
      </trkpt>
      <trkpt lat="46.18968" lon="6.50296">
        <ele>911</ele>
        <time>2019-06-11T16:50:27Z</time>
      </trkpt>
      <trkpt lat="46.18989" lon="6.50303">
        <ele>910</ele>
        <time>2019-06-11T16:50:31Z</time>
      </trkpt>
      <trkpt lat="46.19043" lon="6.50338">
        <ele>911</ele>
        <time>2019-06-11T16:50:42Z</time>
      </trkpt>
      <trkpt lat="46.19053" lon="6.5034">
        <ele>910</ele>
        <time>2019-06-11T16:50:44Z</time>
      </trkpt>
      <trkpt lat="46.19088" lon="6.50343">
        <ele>908</ele>
        <time>2019-06-11T16:50:50Z</time>
      </trkpt>
      <trkpt lat="46.19156" lon="6.50381">
        <ele>911</ele>
        <time>2019-06-11T16:51:03Z</time>
      </trkpt>
      <trkpt lat="46.19166" lon="6.5039">
        <ele>911</ele>
        <time>2019-06-11T16:51:05Z</time>
      </trkpt>
      <trkpt lat="46.19173" lon="6.50403">
        <ele>912</ele>
        <time>2019-06-11T16:51:07Z</time>
      </trkpt>
      <trkpt lat="46.19202" lon="6.50485">
        <ele>917</ele>
        <time>2019-06-11T16:51:18Z</time>
      </trkpt>
      <trkpt lat="46.19205" lon="6.5049">
        <ele>917</ele>
        <time>2019-06-11T16:51:19Z</time>
      </trkpt>
      <trkpt lat="46.19215" lon="6.50496">
        <ele>916</ele>
        <time>2019-06-11T16:51:21Z</time>
      </trkpt>
      <trkpt lat="46.19233" lon="6.50496">
        <ele>912</ele>
        <time>2019-06-11T16:51:24Z</time>
      </trkpt>
      <trkpt lat="46.19244" lon="6.50493">
        <ele>910</ele>
        <time>2019-06-11T16:51:26Z</time>
      </trkpt>
      <trkpt lat="46.19266" lon="6.50476">
        <ele>909</ele>
        <time>2019-06-11T16:51:31Z</time>
      </trkpt>
      <trkpt lat="46.19281" lon="6.50455">
        <ele>908</ele>
        <time>2019-06-11T16:51:34Z</time>
      </trkpt>
      <trkpt lat="46.19289" lon="6.50447">
        <ele>908</ele>
        <time>2019-06-11T16:51:36Z</time>
      </trkpt>
      <trkpt lat="46.19296" lon="6.50443">
        <ele>909</ele>
        <time>2019-06-11T16:51:37Z</time>
      </trkpt>
      <trkpt lat="46.19306" lon="6.50442">
        <ele>909</ele>
        <time>2019-06-11T16:51:39Z</time>
      </trkpt>
      <trkpt lat="46.19343" lon="6.5045">
        <ele>911</ele>
        <time>2019-06-11T16:51:46Z</time>
      </trkpt>
      <trkpt lat="46.1939" lon="6.50452">
        <ele>910</ele>
        <time>2019-06-11T16:51:54Z</time>
      </trkpt>
      <trkpt lat="46.19482" lon="6.5047">
        <ele>908</ele>
        <time>2019-06-11T16:52:11Z</time>
      </trkpt>
      <trkpt lat="46.19533" lon="6.50458">
        <ele>906</ele>
        <time>2019-06-11T16:52:20Z</time>
      </trkpt>
      <trkpt lat="46.19541" lon="6.50454">
        <ele>905</ele>
        <time>2019-06-11T16:52:21Z</time>
      </trkpt>
      <trkpt lat="46.19547" lon="6.50446">
        <ele>905</ele>
        <time>2019-06-11T16:52:23Z</time>
      </trkpt>
      <trkpt lat="46.1955" lon="6.50438">
        <ele>904</ele>
        <time>2019-06-11T16:52:24Z</time>
      </trkpt>
      <trkpt lat="46.19553" lon="6.50426">
        <ele>902</ele>
        <time>2019-06-11T16:52:26Z</time>
      </trkpt>
      <trkpt lat="46.19555" lon="6.50407">
        <ele>900</ele>
        <time>2019-06-11T16:52:28Z</time>
      </trkpt>
      <trkpt lat="46.19563" lon="6.50384">
        <ele>899</ele>
        <time>2019-06-11T16:52:31Z</time>
      </trkpt>
      <trkpt lat="46.19569" lon="6.50375">
        <ele>898</ele>
        <time>2019-06-11T16:52:33Z</time>
      </trkpt>
      <trkpt lat="46.19575" lon="6.50369">
        <ele>898</ele>
        <time>2019-06-11T16:52:34Z</time>
      </trkpt>
      <trkpt lat="46.196" lon="6.5035">
        <ele>897</ele>
        <time>2019-06-11T16:52:39Z</time>
      </trkpt>
      <trkpt lat="46.19612" lon="6.50346">
        <ele>897</ele>
        <time>2019-06-11T16:52:41Z</time>
      </trkpt>
      <trkpt lat="46.19751" lon="6.50318">
        <ele>895</ele>
        <time>2019-06-11T16:53:06Z</time>
      </trkpt>
      <trkpt lat="46.19846" lon="6.50275">
        <ele>890</ele>
        <time>2019-06-11T16:53:24Z</time>
      </trkpt>
      <trkpt lat="46.19858" lon="6.50264">
        <ele>890</ele>
        <time>2019-06-11T16:53:26Z</time>
      </trkpt>
      <trkpt lat="46.19864" lon="6.50257">
        <ele>890</ele>
        <time>2019-06-11T16:53:28Z</time>
      </trkpt>
      <trkpt lat="46.1987" lon="6.50234">
        <ele>888</ele>
        <time>2019-06-11T16:53:31Z</time>
      </trkpt>
      <trkpt lat="46.19872" lon="6.5021">
        <ele>887</ele>
        <time>2019-06-11T16:53:34Z</time>
      </trkpt>
      <trkpt lat="46.19869" lon="6.5002">
        <ele>879</ele>
        <time>2019-06-11T16:53:57Z</time>
      </trkpt>
      <trkpt lat="46.19873" lon="6.49988">
        <ele>878</ele>
        <time>2019-06-11T16:54:01Z</time>
      </trkpt>
      <trkpt lat="46.19883" lon="6.49958">
        <ele>878</ele>
        <time>2019-06-11T16:54:05Z</time>
      </trkpt>
      <trkpt lat="46.19892" lon="6.49943">
        <ele>878</ele>
        <time>2019-06-11T16:54:08Z</time>
      </trkpt>
      <trkpt lat="46.19978" lon="6.49831">
        <ele>886</ele>
        <time>2019-06-11T16:54:28Z</time>
      </trkpt>
      <trkpt lat="46.19983" lon="6.49822">
        <ele>887</ele>
        <time>2019-06-11T16:54:30Z</time>
      </trkpt>
      <trkpt lat="46.19985" lon="6.49811">
        <ele>887</ele>
        <time>2019-06-11T16:54:31Z</time>
      </trkpt>
      <trkpt lat="46.20005" lon="6.49811">
        <ele>887</ele>
        <time>2019-06-11T16:54:35Z</time>
      </trkpt>
      <trkpt lat="46.20189" lon="6.4987">
        <ele>887</ele>
        <time>2019-06-11T16:55:08Z</time>
      </trkpt>
      <trkpt lat="46.21013" lon="6.50142">
        <ele>892</ele>
        <time>2019-06-11T16:57:39Z</time>
      </trkpt>
      <trkpt lat="46.21462" lon="6.50294">
        <ele>909</ele>
        <time>2019-06-11T16:59:01Z</time>
      </trkpt>
      <trkpt lat="46.21487" lon="6.50307">
        <ele>910</ele>
        <time>2019-06-11T16:59:05Z</time>
      </trkpt>
      <trkpt lat="46.21511" lon="6.50326">
        <ele>911</ele>
        <time>2019-06-11T16:59:10Z</time>
      </trkpt>
      <trkpt lat="46.21532" lon="6.50347">
        <ele>912</ele>
        <time>2019-06-11T16:59:15Z</time>
      </trkpt>
      <trkpt lat="46.21769" lon="6.50624">
        <ele>942</ele>
        <time>2019-06-11T17:00:09Z</time>
      </trkpt>
      <trkpt lat="46.21812" lon="6.50686">
        <ele>945</ele>
        <time>2019-06-11T17:00:20Z</time>
      </trkpt>
      <trkpt lat="46.2196" lon="6.50841">
        <ele>952</ele>
        <time>2019-06-11T17:00:52Z</time>
      </trkpt>
      <trkpt lat="46.22004" lon="6.5087">
        <ele>954</ele>
        <time>2019-06-11T17:01:01Z</time>
      </trkpt>
      <trkpt lat="46.22052" lon="6.50916">
        <ele>956</ele>
        <time>2019-06-11T17:01:11Z</time>
      </trkpt>
      <trkpt lat="46.22094" lon="6.50945">
        <ele>957</ele>
        <time>2019-06-11T17:01:19Z</time>
      </trkpt>
      <trkpt lat="46.2218" lon="6.51026">
        <ele>966</ele>
        <time>2019-06-11T17:01:38Z</time>
      </trkpt>
      <trkpt lat="46.22263" lon="6.51085">
        <ele>967</ele>
        <time>2019-06-11T17:01:54Z</time>
      </trkpt>
      <trkpt lat="46.22317" lon="6.51135">
        <ele>972</ele>
        <time>2019-06-11T17:02:06Z</time>
      </trkpt>
      <trkpt lat="46.22329" lon="6.51153">
        <ele>976</ele>
        <time>2019-06-11T17:02:09Z</time>
      </trkpt>
      <trkpt lat="46.22342" lon="6.51163">
        <ele>977</ele>
        <time>2019-06-11T17:02:11Z</time>
      </trkpt>
      <trkpt lat="46.22372" lon="6.51169">
        <ele>970</ele>
        <time>2019-06-11T17:02:17Z</time>
      </trkpt>
      <trkpt lat="46.22452" lon="6.51234">
        <ele>974</ele>
        <time>2019-06-11T17:02:33Z</time>
      </trkpt>
      <trkpt lat="46.22498" lon="6.51304">
        <ele>986</ele>
        <time>2019-06-11T17:02:45Z</time>
      </trkpt>
      <trkpt lat="46.22604" lon="6.51362">
        <ele>984</ele>
        <time>2019-06-11T17:03:05Z</time>
      </trkpt>
      <trkpt lat="46.22637" lon="6.51385">
        <ele>987</ele>
        <time>2019-06-11T17:03:12Z</time>
      </trkpt>
      <trkpt lat="46.22674" lon="6.51422">
        <ele>995</ele>
        <time>2019-06-11T17:03:20Z</time>
      </trkpt>
      <trkpt lat="46.22695" lon="6.51438">
        <ele>999</ele>
        <time>2019-06-11T17:03:24Z</time>
      </trkpt>
      <trkpt lat="46.22782" lon="6.51489">
        <ele>1008</ele>
        <time>2019-06-11T17:03:41Z</time>
      </trkpt>
      <trkpt lat="46.22802" lon="6.51491">
        <ele>1006</ele>
        <time>2019-06-11T17:03:44Z</time>
      </trkpt>
      <trkpt lat="46.22816" lon="6.51498">
        <ele>1007</ele>
        <time>2019-06-11T17:03:47Z</time>
      </trkpt>
      <trkpt lat="46.22855" lon="6.51533">
        <ele>1018</ele>
        <time>2019-06-11T17:03:55Z</time>
      </trkpt>
      <trkpt lat="46.22874" lon="6.51543">
        <ele>1020</ele>
        <time>2019-06-11T17:03:58Z</time>
      </trkpt>
      <trkpt lat="46.22887" lon="6.51545">
        <ele>1019</ele>
        <time>2019-06-11T17:04:01Z</time>
      </trkpt>
      <trkpt lat="46.22924" lon="6.51538">
        <ele>1008</ele>
        <time>2019-06-11T17:04:07Z</time>
      </trkpt>
      <trkpt lat="46.22944" lon="6.51547">
        <ele>1009</ele>
        <time>2019-06-11T17:04:11Z</time>
      </trkpt>
      <trkpt lat="46.23042" lon="6.51602">
        <ele>1018</ele>
        <time>2019-06-11T17:04:30Z</time>
      </trkpt>
      <trkpt lat="46.23081" lon="6.51629">
        <ele>1024</ele>
        <time>2019-06-11T17:04:38Z</time>
      </trkpt>
      <trkpt lat="46.23129" lon="6.51673">
        <ele>1027</ele>
        <time>2019-06-11T17:04:48Z</time>
      </trkpt>
      <trkpt lat="46.23161" lon="6.51693">
        <ele>1023</ele>
        <time>2019-06-11T17:04:54Z</time>
      </trkpt>
      <trkpt lat="46.23264" lon="6.51774">
        <ele>1033</ele>
        <time>2019-06-11T17:05:15Z</time>
      </trkpt>
      <trkpt lat="46.23299" lon="6.51794">
        <ele>1034</ele>
        <time>2019-06-11T17:05:21Z</time>
      </trkpt>
      <trkpt lat="46.23344" lon="6.51831">
        <ele>1042</ele>
        <time>2019-06-11T17:05:31Z</time>
      </trkpt>
      <trkpt lat="46.23401" lon="6.51886">
        <ele>1043</ele>
        <time>2019-06-11T17:05:43Z</time>
      </trkpt>
      <trkpt lat="46.23418" lon="6.51896">
        <ele>1041</ele>
        <time>2019-06-11T17:05:46Z</time>
      </trkpt>
      <trkpt lat="46.23458" lon="6.51928">
        <ele>1044</ele>
        <time>2019-06-11T17:05:54Z</time>
      </trkpt>
      <trkpt lat="46.23503" lon="6.51989">
        <ele>1040</ele>
        <time>2019-06-11T17:06:05Z</time>
      </trkpt>
      <trkpt lat="46.23509" lon="6.52004">
        <ele>1041</ele>
        <time>2019-06-11T17:06:07Z</time>
      </trkpt>
      <trkpt lat="46.23511" lon="6.52031">
        <ele>1040</ele>
        <time>2019-06-11T17:06:11Z</time>
      </trkpt>
      <trkpt lat="46.23501" lon="6.52263">
        <ele>1034</ele>
        <time>2019-06-11T17:06:39Z</time>
      </trkpt>
      <trkpt lat="46.23506" lon="6.523">
        <ele>1036</ele>
        <time>2019-06-11T17:06:44Z</time>
      </trkpt>
      <trkpt lat="46.23513" lon="6.52323">
        <ele>1037</ele>
        <time>2019-06-11T17:06:47Z</time>
      </trkpt>
      <trkpt lat="46.23598" lon="6.52524">
        <ele>1024</ele>
        <time>2019-06-11T17:07:16Z</time>
      </trkpt>
      <trkpt lat="46.23612" lon="6.52551">
        <ele>1022</ele>
        <time>2019-06-11T17:07:20Z</time>
      </trkpt>
      <trkpt lat="46.23629" lon="6.5257">
        <ele>1021</ele>
        <time>2019-06-11T17:07:24Z</time>
      </trkpt>
      <trkpt lat="46.23637" lon="6.52575">
        <ele>1021</ele>
        <time>2019-06-11T17:07:26Z</time>
      </trkpt>
      <trkpt lat="46.23679" lon="6.5259">
        <ele>1023</ele>
        <time>2019-06-11T17:07:33Z</time>
      </trkpt>
      <trkpt lat="46.23688" lon="6.52596">
        <ele>1023</ele>
        <time>2019-06-11T17:07:35Z</time>
      </trkpt>
      <trkpt lat="46.23699" lon="6.52611">
        <ele>1022</ele>
        <time>2019-06-11T17:07:38Z</time>
      </trkpt>
      <trkpt lat="46.2372" lon="6.52651">
        <ele>1015</ele>
        <time>2019-06-11T17:07:44Z</time>
      </trkpt>
      <trkpt lat="46.23728" lon="6.5266">
        <ele>1014</ele>
        <time>2019-06-11T17:07:46Z</time>
      </trkpt>
      <trkpt lat="46.23742" lon="6.5267">
        <ele>1013</ele>
        <time>2019-06-11T17:07:48Z</time>
      </trkpt>
      <trkpt lat="46.23757" lon="6.52672">
        <ele>1013</ele>
        <time>2019-06-11T17:07:51Z</time>
      </trkpt>
      <trkpt lat="46.23809" lon="6.52669">
        <ele>1015</ele>
        <time>2019-06-11T17:08:00Z</time>
      </trkpt>
      <trkpt lat="46.23899" lon="6.52693">
        <ele>1014</ele>
        <time>2019-06-11T17:08:17Z</time>
      </trkpt>
      <trkpt lat="46.23917" lon="6.52693">
        <ele>1015</ele>
        <time>2019-06-11T17:08:20Z</time>
      </trkpt>
      <trkpt lat="46.23927" lon="6.52699">
        <ele>1013</ele>
        <time>2019-06-11T17:08:22Z</time>
      </trkpt>
      <trkpt lat="46.23934" lon="6.527">
        <ele>1013</ele>
        <time>2019-06-11T17:08:23Z</time>
      </trkpt>
      <trkpt lat="46.2394" lon="6.52705">
        <ele>1012</ele>
        <time>2019-06-11T17:08:24Z</time>
      </trkpt>
      <trkpt lat="46.24021" lon="6.52708">
        <ele>1004</ele>
        <time>2019-06-11T17:08:39Z</time>
      </trkpt>
      <trkpt lat="46.2403" lon="6.52705">
        <ele>1003</ele>
        <time>2019-06-11T17:08:40Z</time>
      </trkpt>
      <trkpt lat="46.24037" lon="6.52699">
        <ele>1003</ele>
        <time>2019-06-11T17:08:42Z</time>
      </trkpt>
      <trkpt lat="46.24045" lon="6.52684">
        <ele>1004</ele>
        <time>2019-06-11T17:08:44Z</time>
      </trkpt>
      <trkpt lat="46.24061" lon="6.5262">
        <ele>1017</ele>
        <time>2019-06-11T17:08:53Z</time>
      </trkpt>
      <trkpt lat="46.24063" lon="6.52614">
        <ele>1019</ele>
        <time>2019-06-11T17:08:53Z</time>
      </trkpt>
      <trkpt lat="46.24069" lon="6.52604">
        <ele>1020</ele>
        <time>2019-06-11T17:08:55Z</time>
      </trkpt>
      <trkpt lat="46.24077" lon="6.526">
        <ele>1020</ele>
        <time>2019-06-11T17:08:56Z</time>
      </trkpt>
      <trkpt lat="46.24115" lon="6.52599">
        <ele>1018</ele>
        <time>2019-06-11T17:09:03Z</time>
      </trkpt>
      <trkpt lat="46.24121" lon="6.52601">
        <ele>1017</ele>
        <time>2019-06-11T17:09:04Z</time>
      </trkpt>
      <trkpt lat="46.24131" lon="6.52606">
        <ele>1016</ele>
        <time>2019-06-11T17:09:06Z</time>
      </trkpt>
      <trkpt lat="46.24139" lon="6.52616">
        <ele>1013</ele>
        <time>2019-06-11T17:09:08Z</time>
      </trkpt>
      <trkpt lat="46.24143" lon="6.52623">
        <ele>1011</ele>
        <time>2019-06-11T17:09:09Z</time>
      </trkpt>
      <trkpt lat="46.24158" lon="6.52661">
        <ele>1000</ele>
        <time>2019-06-11T17:09:15Z</time>
      </trkpt>
      <trkpt lat="46.24168" lon="6.52677">
        <ele>995</ele>
        <time>2019-06-11T17:09:17Z</time>
      </trkpt>
      <trkpt lat="46.2418" lon="6.52683">
        <ele>996</ele>
        <time>2019-06-11T17:09:20Z</time>
      </trkpt>
      <trkpt lat="46.24219" lon="6.5269">
        <ele>1000</ele>
        <time>2019-06-11T17:09:27Z</time>
      </trkpt>
      <trkpt lat="46.24235" lon="6.527">
        <ele>1000</ele>
        <time>2019-06-11T17:09:30Z</time>
      </trkpt>
      <trkpt lat="46.24247" lon="6.52713">
        <ele>999</ele>
        <time>2019-06-11T17:09:32Z</time>
      </trkpt>
      <trkpt lat="46.24318" lon="6.52807">
        <ele>994</ele>
        <time>2019-06-11T17:09:49Z</time>
      </trkpt>
      <trkpt lat="46.24332" lon="6.52833">
        <ele>993</ele>
        <time>2019-06-11T17:09:53Z</time>
      </trkpt>
      <trkpt lat="46.24341" lon="6.52844">
        <ele>991</ele>
        <time>2019-06-11T17:09:56Z</time>
      </trkpt>
      <trkpt lat="46.2435" lon="6.52847">
        <ele>991</ele>
        <time>2019-06-11T17:09:57Z</time>
      </trkpt>
      <trkpt lat="46.24388" lon="6.52836">
        <ele>993</ele>
        <time>2019-06-11T17:10:04Z</time>
      </trkpt>
      <trkpt lat="46.24435" lon="6.52832">
        <ele>992</ele>
        <time>2019-06-11T17:10:12Z</time>
      </trkpt>
      <trkpt lat="46.24485" lon="6.52812">
        <ele>993</ele>
        <time>2019-06-11T17:10:22Z</time>
      </trkpt>
      <trkpt lat="46.24491" lon="6.52808">
        <ele>994</ele>
        <time>2019-06-11T17:10:23Z</time>
      </trkpt>
      <trkpt lat="46.245" lon="6.52798">
        <ele>996</ele>
        <time>2019-06-11T17:10:25Z</time>
      </trkpt>
      <trkpt lat="46.24514" lon="6.52771">
        <ele>999</ele>
        <time>2019-06-11T17:10:29Z</time>
      </trkpt>
      <trkpt lat="46.24525" lon="6.52756">
        <ele>1001</ele>
        <time>2019-06-11T17:10:32Z</time>
      </trkpt>
      <trkpt lat="46.24535" lon="6.5275">
        <ele>1000</ele>
        <time>2019-06-11T17:10:34Z</time>
      </trkpt>
      <trkpt lat="46.24545" lon="6.52749">
        <ele>997</ele>
        <time>2019-06-11T17:10:35Z</time>
      </trkpt>
      <trkpt lat="46.24599" lon="6.52773">
        <ele>979</ele>
        <time>2019-06-11T17:10:46Z</time>
      </trkpt>
      <trkpt lat="46.24609" lon="6.52772">
        <ele>977</ele>
        <time>2019-06-11T17:10:47Z</time>
      </trkpt>
      <trkpt lat="46.24638" lon="6.52761">
        <ele>974</ele>
        <time>2019-06-11T17:10:53Z</time>
      </trkpt>
      <trkpt lat="46.24654" lon="6.52751">
        <ele>973</ele>
        <time>2019-06-11T17:10:56Z</time>
      </trkpt>
      <trkpt lat="46.24685" lon="6.52716">
        <ele>977</ele>
        <time>2019-06-11T17:11:03Z</time>
      </trkpt>
      <trkpt lat="46.24704" lon="6.52702">
        <ele>978</ele>
        <time>2019-06-11T17:11:07Z</time>
      </trkpt>
      <trkpt lat="46.24769" lon="6.52677">
        <ele>969</ele>
        <time>2019-06-11T17:11:18Z</time>
      </trkpt>
      <trkpt lat="46.24869" lon="6.52616">
        <ele>967</ele>
        <time>2019-06-11T17:11:38Z</time>
      </trkpt>
      <trkpt lat="46.24906" lon="6.526">
        <ele>967</ele>
        <time>2019-06-11T17:11:45Z</time>
      </trkpt>
      <trkpt lat="46.24925" lon="6.52594">
        <ele>967</ele>
        <time>2019-06-11T17:11:48Z</time>
      </trkpt>
      <trkpt lat="46.24951" lon="6.52589">
        <ele>967</ele>
        <time>2019-06-11T17:11:53Z</time>
      </trkpt>
      <trkpt lat="46.24972" lon="6.52592">
        <ele>964</ele>
        <time>2019-06-11T17:11:57Z</time>
      </trkpt>
      <trkpt lat="46.2498" lon="6.52596">
        <ele>962</ele>
        <time>2019-06-11T17:11:58Z</time>
      </trkpt>
      <trkpt lat="46.25012" lon="6.52619">
        <ele>954</ele>
        <time>2019-06-11T17:12:04Z</time>
      </trkpt>
      <trkpt lat="46.25022" lon="6.52623">
        <ele>953</ele>
        <time>2019-06-11T17:12:06Z</time>
      </trkpt>
      <trkpt lat="46.25066" lon="6.52626">
        <ele>954</ele>
        <time>2019-06-11T17:12:14Z</time>
      </trkpt>
      <trkpt lat="46.25107" lon="6.52634">
        <ele>953</ele>
        <time>2019-06-11T17:12:21Z</time>
      </trkpt>
      <trkpt lat="46.25124" lon="6.5264">
        <ele>951</ele>
        <time>2019-06-11T17:12:25Z</time>
      </trkpt>
      <trkpt lat="46.25225" lon="6.52718">
        <ele>935</ele>
        <time>2019-06-11T17:12:45Z</time>
      </trkpt>
      <trkpt lat="46.25235" lon="6.52722">
        <ele>935</ele>
        <time>2019-06-11T17:12:47Z</time>
      </trkpt>
      <trkpt lat="46.25262" lon="6.5272">
        <ele>937</ele>
        <time>2019-06-11T17:12:52Z</time>
      </trkpt>
      <trkpt lat="46.25281" lon="6.52723">
        <ele>937</ele>
        <time>2019-06-11T17:12:55Z</time>
      </trkpt>
      <trkpt lat="46.25368" lon="6.52768">
        <ele>932</ele>
        <time>2019-06-11T17:13:11Z</time>
      </trkpt>
      <trkpt lat="46.25411" lon="6.52784">
        <ele>932</ele>
        <time>2019-06-11T17:13:19Z</time>
      </trkpt>
      <trkpt lat="46.25425" lon="6.52795">
        <ele>933</ele>
        <time>2019-06-11T17:13:22Z</time>
      </trkpt>
      <trkpt lat="46.25436" lon="6.52809">
        <ele>933</ele>
        <time>2019-06-11T17:13:25Z</time>
      </trkpt>
      <trkpt lat="46.25481" lon="6.52887">
        <ele>924</ele>
        <time>2019-06-11T17:13:37Z</time>
      </trkpt>
      <trkpt lat="46.25493" lon="6.52905">
        <ele>922</ele>
        <time>2019-06-11T17:13:40Z</time>
      </trkpt>
      <trkpt lat="46.25501" lon="6.52913">
        <ele>921</ele>
        <time>2019-06-11T17:13:42Z</time>
      </trkpt>
      <trkpt lat="46.25536" lon="6.52935">
        <ele>921</ele>
        <time>2019-06-11T17:13:49Z</time>
      </trkpt>
      <trkpt lat="46.25585" lon="6.52958">
        <ele>922</ele>
        <time>2019-06-11T17:13:58Z</time>
      </trkpt>
      <trkpt lat="46.25599" lon="6.52969">
        <ele>923</ele>
        <time>2019-06-11T17:14:01Z</time>
      </trkpt>
      <trkpt lat="46.25713" lon="6.53127">
        <ele>909</ele>
        <time>2019-06-11T17:14:29Z</time>
      </trkpt>
      <trkpt lat="46.25745" lon="6.53167">
        <ele>904</ele>
        <time>2019-06-11T17:14:37Z</time>
      </trkpt>
      <trkpt lat="46.25767" lon="6.53191">
        <ele>906</ele>
        <time>2019-06-11T17:14:41Z</time>
      </trkpt>
      <trkpt lat="46.25801" lon="6.53216">
        <ele>908</ele>
        <time>2019-06-11T17:14:48Z</time>
      </trkpt>
      <trkpt lat="46.25837" lon="6.53239">
        <ele>907</ele>
        <time>2019-06-11T17:14:55Z</time>
      </trkpt>
      <trkpt lat="46.25855" lon="6.53252">
        <ele>909</ele>
        <time>2019-06-11T17:14:59Z</time>
      </trkpt>
      <trkpt lat="46.25887" lon="6.53284">
        <ele>909</ele>
        <time>2019-06-11T17:15:06Z</time>
      </trkpt>
      <trkpt lat="46.25955" lon="6.53336">
        <ele>902</ele>
        <time>2019-06-11T17:15:19Z</time>
      </trkpt>
      <trkpt lat="46.26049" lon="6.53418">
        <ele>891</ele>
        <time>2019-06-11T17:15:39Z</time>
      </trkpt>
      <trkpt lat="46.26067" lon="6.53431">
        <ele>892</ele>
        <time>2019-06-11T17:15:43Z</time>
      </trkpt>
      <trkpt lat="46.26101" lon="6.5345">
        <ele>892</ele>
        <time>2019-06-11T17:15:49Z</time>
      </trkpt>
      <trkpt lat="46.26144" lon="6.53486">
        <ele>887</ele>
        <time>2019-06-11T17:15:58Z</time>
      </trkpt>
      <trkpt lat="46.26187" lon="6.53505">
        <ele>885</ele>
        <time>2019-06-11T17:16:06Z</time>
      </trkpt>
      <trkpt lat="46.26208" lon="6.53516">
        <ele>885</ele>
        <time>2019-06-11T17:16:10Z</time>
      </trkpt>
      <trkpt lat="46.26282" lon="6.53569">
        <ele>877</ele>
        <time>2019-06-11T17:16:24Z</time>
      </trkpt>
      <trkpt lat="46.26297" lon="6.53575">
        <ele>875</ele>
        <time>2019-06-11T17:16:27Z</time>
      </trkpt>
      <trkpt lat="46.26315" lon="6.53576">
        <ele>875</ele>
        <time>2019-06-11T17:16:30Z</time>
      </trkpt>
      <trkpt lat="46.26417" lon="6.53561">
        <ele>875</ele>
        <time>2019-06-11T17:16:49Z</time>
      </trkpt>
      <trkpt lat="46.26435" lon="6.53562">
        <ele>876</ele>
        <time>2019-06-11T17:16:52Z</time>
      </trkpt>
      <trkpt lat="46.26446" lon="6.53564">
        <ele>877</ele>
        <time>2019-06-11T17:16:54Z</time>
      </trkpt>
      <trkpt lat="46.2651" lon="6.53593">
        <ele>876</ele>
        <time>2019-06-11T17:17:06Z</time>
      </trkpt>
      <trkpt lat="46.26521" lon="6.536">
        <ele>877</ele>
        <time>2019-06-11T17:17:08Z</time>
      </trkpt>
      <trkpt lat="46.26554" lon="6.53628">
        <ele>877</ele>
        <time>2019-06-11T17:17:15Z</time>
      </trkpt>
      <trkpt lat="46.26606" lon="6.53691">
        <ele>868</ele>
        <time>2019-06-11T17:17:27Z</time>
      </trkpt>
      <trkpt lat="46.26635" lon="6.53721">
        <ele>868</ele>
        <time>2019-06-11T17:17:33Z</time>
      </trkpt>
      <trkpt lat="46.26696" lon="6.53795">
        <ele>866</ele>
        <time>2019-06-11T17:17:47Z</time>
      </trkpt>
      <trkpt lat="46.26799" lon="6.53863">
        <ele>869</ele>
        <time>2019-06-11T17:18:07Z</time>
      </trkpt>
      <trkpt lat="46.26851" lon="6.53922">
        <ele>861</ele>
        <time>2019-06-11T17:18:19Z</time>
      </trkpt>
      <trkpt lat="46.26937" lon="6.54003">
        <ele>864</ele>
        <time>2019-06-11T17:18:38Z</time>
      </trkpt>
      <trkpt lat="46.26944" lon="6.54013">
        <ele>864</ele>
        <time>2019-06-11T17:18:39Z</time>
      </trkpt>
      <trkpt lat="46.26971" lon="6.54071">
        <ele>855</ele>
        <time>2019-06-11T17:18:48Z</time>
      </trkpt>
      <trkpt lat="46.2698" lon="6.54088">
        <ele>852</ele>
        <time>2019-06-11T17:18:50Z</time>
      </trkpt>
      <trkpt lat="46.26999" lon="6.54111">
        <ele>852</ele>
        <time>2019-06-11T17:18:55Z</time>
      </trkpt>
      <trkpt lat="46.27047" lon="6.54153">
        <ele>859</ele>
        <time>2019-06-11T17:19:05Z</time>
      </trkpt>
      <trkpt lat="46.27074" lon="6.54194">
        <ele>854</ele>
        <time>2019-06-11T17:19:12Z</time>
      </trkpt>
      <trkpt lat="46.27083" lon="6.54219">
        <ele>849</ele>
        <time>2019-06-11T17:19:15Z</time>
      </trkpt>
      <trkpt lat="46.27084" lon="6.54225">
        <ele>847</ele>
        <time>2019-06-11T17:19:16Z</time>
      </trkpt>
      <trkpt lat="46.27083" lon="6.54291">
        <ele>836</ele>
        <time>2019-06-11T17:19:24Z</time>
      </trkpt>
      <trkpt lat="46.27087" lon="6.54316">
        <ele>835</ele>
        <time>2019-06-11T17:19:27Z</time>
      </trkpt>
      <trkpt lat="46.27126" lon="6.54423">
        <ele>832</ele>
        <time>2019-06-11T17:19:42Z</time>
      </trkpt>
      <trkpt lat="46.27132" lon="6.54435">
        <ele>832</ele>
        <time>2019-06-11T17:19:44Z</time>
      </trkpt>
      <trkpt lat="46.27139" lon="6.54446">
        <ele>831</ele>
        <time>2019-06-11T17:19:46Z</time>
      </trkpt>
      <trkpt lat="46.27152" lon="6.54457">
        <ele>831</ele>
        <time>2019-06-11T17:19:49Z</time>
      </trkpt>
      <trkpt lat="46.27196" lon="6.54478">
        <ele>831</ele>
        <time>2019-06-11T17:19:57Z</time>
      </trkpt>
      <trkpt lat="46.27243" lon="6.54509">
        <ele>829</ele>
        <time>2019-06-11T17:20:06Z</time>
      </trkpt>
      <trkpt lat="46.27261" lon="6.54513">
        <ele>830</ele>
        <time>2019-06-11T17:20:09Z</time>
      </trkpt>
      <trkpt lat="46.27307" lon="6.54516">
        <ele>834</ele>
        <time>2019-06-11T17:20:17Z</time>
      </trkpt>
      <trkpt lat="46.27322" lon="6.54519">
        <ele>835</ele>
        <time>2019-06-11T17:20:20Z</time>
      </trkpt>
      <trkpt lat="46.27336" lon="6.54531">
        <ele>834</ele>
        <time>2019-06-11T17:20:23Z</time>
      </trkpt>
      <trkpt lat="46.27407" lon="6.54647">
        <ele>829</ele>
        <time>2019-06-11T17:20:42Z</time>
      </trkpt>
      <trkpt lat="46.27414" lon="6.54657">
        <ele>827</ele>
        <time>2019-06-11T17:20:44Z</time>
      </trkpt>
      <trkpt lat="46.27496" lon="6.54728">
        <ele>836</ele>
        <time>2019-06-11T17:21:01Z</time>
      </trkpt>
      <trkpt lat="46.27681" lon="6.54935">
        <ele>826</ele>
        <time>2019-06-11T17:21:42Z</time>
      </trkpt>
      <trkpt lat="46.27689" lon="6.54947">
        <ele>826</ele>
        <time>2019-06-11T17:21:44Z</time>
      </trkpt>
      <trkpt lat="46.27695" lon="6.5496">
        <ele>824</ele>
        <time>2019-06-11T17:21:46Z</time>
      </trkpt>
      <trkpt lat="46.27706" lon="6.55004">
        <ele>817</ele>
        <time>2019-06-11T17:21:52Z</time>
      </trkpt>
      <trkpt lat="46.27711" lon="6.55016">
        <ele>817</ele>
        <time>2019-06-11T17:21:54Z</time>
      </trkpt>
      <trkpt lat="46.27741" lon="6.55061">
        <ele>816</ele>
        <time>2019-06-11T17:22:02Z</time>
      </trkpt>
      <trkpt lat="46.2776" lon="6.55099">
        <ele>813</ele>
        <time>2019-06-11T17:22:07Z</time>
      </trkpt>
      <trkpt lat="46.27776" lon="6.5512">
        <ele>813</ele>
        <time>2019-06-11T17:22:11Z</time>
      </trkpt>
      <trkpt lat="46.27786" lon="6.55129">
        <ele>813</ele>
        <time>2019-06-11T17:22:13Z</time>
      </trkpt>
      <trkpt lat="46.27813" lon="6.55148">
        <ele>814</ele>
        <time>2019-06-11T17:22:19Z</time>
      </trkpt>
      <trkpt lat="46.27829" lon="6.55153">
        <ele>815</ele>
        <time>2019-06-11T17:22:22Z</time>
      </trkpt>
      <trkpt lat="46.27839" lon="6.55159">
        <ele>815</ele>
        <time>2019-06-11T17:22:23Z</time>
      </trkpt>
      <trkpt lat="46.27935" lon="6.55246">
        <ele>808</ele>
        <time>2019-06-11T17:22:44Z</time>
      </trkpt>
      <trkpt lat="46.27951" lon="6.55254">
        <ele>807</ele>
        <time>2019-06-11T17:22:47Z</time>
      </trkpt>
      <trkpt lat="46.27967" lon="6.55256">
        <ele>807</ele>
        <time>2019-06-11T17:22:49Z</time>
      </trkpt>
      <trkpt lat="46.28118" lon="6.55251">
        <ele>804</ele>
        <time>2019-06-11T17:23:16Z</time>
      </trkpt>
      <trkpt lat="46.28192" lon="6.55226">
        <ele>809</ele>
        <time>2019-06-11T17:23:30Z</time>
      </trkpt>
      <trkpt lat="46.28303" lon="6.55215">
        <ele>797</ele>
        <time>2019-06-11T17:23:50Z</time>
      </trkpt>
      <trkpt lat="46.28317" lon="6.55208">
        <ele>795</ele>
        <time>2019-06-11T17:23:52Z</time>
      </trkpt>
      <trkpt lat="46.2833" lon="6.55194">
        <ele>794</ele>
        <time>2019-06-11T17:23:55Z</time>
      </trkpt>
      <trkpt lat="46.28363" lon="6.55142">
        <ele>790</ele>
        <time>2019-06-11T17:24:04Z</time>
      </trkpt>
      <trkpt lat="46.28373" lon="6.55121">
        <ele>788</ele>
        <time>2019-06-11T17:24:07Z</time>
      </trkpt>
      <trkpt lat="46.28377" lon="6.55108">
        <ele>787</ele>
        <time>2019-06-11T17:24:09Z</time>
      </trkpt>
      <trkpt lat="46.28388" lon="6.55037">
        <ele>782</ele>
        <time>2019-06-11T17:24:18Z</time>
      </trkpt>
      <trkpt lat="46.28408" lon="6.54882">
        <ele>786</ele>
        <time>2019-06-11T17:24:37Z</time>
      </trkpt>
      <trkpt lat="46.28413" lon="6.54862">
        <ele>790</ele>
        <time>2019-06-11T17:24:40Z</time>
      </trkpt>
      <trkpt lat="46.28417" lon="6.54855">
        <ele>790</ele>
        <time>2019-06-11T17:24:41Z</time>
      </trkpt>
      <trkpt lat="46.28434" lon="6.54836">
        <ele>791</ele>
        <time>2019-06-11T17:24:45Z</time>
      </trkpt>
      <trkpt lat="46.28449" lon="6.54825">
        <ele>791</ele>
        <time>2019-06-11T17:24:48Z</time>
      </trkpt>
      <trkpt lat="46.28512" lon="6.5479">
        <ele>785</ele>
        <time>2019-06-11T17:25:00Z</time>
      </trkpt>
      <trkpt lat="46.28524" lon="6.54779">
        <ele>786</ele>
        <time>2019-06-11T17:25:02Z</time>
      </trkpt>
      <trkpt lat="46.28567" lon="6.54717">
        <ele>793</ele>
        <time>2019-06-11T17:25:13Z</time>
      </trkpt>
      <trkpt lat="46.28579" lon="6.54703">
        <ele>793</ele>
        <time>2019-06-11T17:25:16Z</time>
      </trkpt>
      <trkpt lat="46.28594" lon="6.5469">
        <ele>793</ele>
        <time>2019-06-11T17:25:19Z</time>
      </trkpt>
      <trkpt lat="46.28641" lon="6.54663">
        <ele>787</ele>
        <time>2019-06-11T17:25:28Z</time>
      </trkpt>
      <trkpt lat="46.28663" lon="6.54644">
        <ele>785</ele>
        <time>2019-06-11T17:25:32Z</time>
      </trkpt>
      <trkpt lat="46.28674" lon="6.54638">
        <ele>785</ele>
        <time>2019-06-11T17:25:34Z</time>
      </trkpt>
      <trkpt lat="46.28684" lon="6.54637">
        <ele>784</ele>
        <time>2019-06-11T17:25:36Z</time>
      </trkpt>
      <trkpt lat="46.28717" lon="6.54646">
        <ele>781</ele>
        <time>2019-06-11T17:25:42Z</time>
      </trkpt>
      <trkpt lat="46.28737" lon="6.54643">
        <ele>781</ele>
        <time>2019-06-11T17:25:46Z</time>
      </trkpt>
      <trkpt lat="46.28751" lon="6.5463">
        <ele>781</ele>
        <time>2019-06-11T17:25:49Z</time>
      </trkpt>
      <trkpt lat="46.28762" lon="6.54608">
        <ele>781</ele>
        <time>2019-06-11T17:25:52Z</time>
      </trkpt>
      <trkpt lat="46.28777" lon="6.54559">
        <ele>783</ele>
        <time>2019-06-11T17:25:59Z</time>
      </trkpt>
      <trkpt lat="46.28792" lon="6.54531">
        <ele>784</ele>
        <time>2019-06-11T17:26:03Z</time>
      </trkpt>
      <trkpt lat="46.28806" lon="6.54519">
        <ele>784</ele>
        <time>2019-06-11T17:26:06Z</time>
      </trkpt>
      <trkpt lat="46.28877" lon="6.54476">
        <ele>786</ele>
        <time>2019-06-11T17:26:20Z</time>
      </trkpt>
      <trkpt lat="46.28889" lon="6.54472">
        <ele>786</ele>
        <time>2019-06-11T17:26:22Z</time>
      </trkpt>
      <trkpt lat="46.28905" lon="6.54471">
        <ele>785</ele>
        <time>2019-06-11T17:26:25Z</time>
      </trkpt>
      <trkpt lat="46.28923" lon="6.54479">
        <ele>784</ele>
        <time>2019-06-11T17:26:28Z</time>
      </trkpt>
      <trkpt lat="46.28959" lon="6.54504">
        <ele>782</ele>
        <time>2019-06-11T17:26:35Z</time>
      </trkpt>
      <trkpt lat="46.28985" lon="6.54514">
        <ele>782</ele>
        <time>2019-06-11T17:26:40Z</time>
      </trkpt>
      <trkpt lat="46.29016" lon="6.54514">
        <ele>781</ele>
        <time>2019-06-11T17:26:45Z</time>
      </trkpt>
      <trkpt lat="46.29052" lon="6.54507">
        <ele>781</ele>
        <time>2019-06-11T17:26:52Z</time>
      </trkpt>
      <trkpt lat="46.29078" lon="6.54491">
        <ele>781</ele>
        <time>2019-06-11T17:26:57Z</time>
      </trkpt>
      <trkpt lat="46.29134" lon="6.54437">
        <ele>787</ele>
        <time>2019-06-11T17:27:09Z</time>
      </trkpt>
      <trkpt lat="46.29151" lon="6.54409">
        <ele>788</ele>
        <time>2019-06-11T17:27:14Z</time>
      </trkpt>
      <trkpt lat="46.29178" lon="6.54338">
        <ele>787</ele>
        <time>2019-06-11T17:27:23Z</time>
      </trkpt>
      <trkpt lat="46.29203" lon="6.54282">
        <ele>785</ele>
        <time>2019-06-11T17:27:32Z</time>
      </trkpt>
      <trkpt lat="46.29228" lon="6.54219">
        <ele>783</ele>
        <time>2019-06-11T17:27:41Z</time>
      </trkpt>
      <trkpt lat="46.29244" lon="6.54167">
        <ele>781</ele>
        <time>2019-06-11T17:27:48Z</time>
      </trkpt>
      <trkpt lat="46.29222" lon="6.54152">
        <ele>785</ele>
        <time>2019-06-11T17:27:52Z</time>
      </trkpt>
      <trkpt lat="46.29218" lon="6.54142">
        <ele>786</ele>
        <time>2019-06-11T17:27:53Z</time>
      </trkpt>
      <trkpt lat="46.29217" lon="6.54136">
        <ele>786</ele>
        <time>2019-06-11T17:27:54Z</time>
      </trkpt>
      <trkpt lat="46.29221" lon="6.54117">
        <ele>786</ele>
        <time>2019-06-11T17:27:57Z</time>
      </trkpt>
      <trkpt lat="46.29237" lon="6.54082">
        <ele>786</ele>
        <time>2019-06-11T17:28:02Z</time>
      </trkpt>
      <trkpt lat="46.29241" lon="6.5407">
        <ele>786</ele>
        <time>2019-06-11T17:28:03Z</time>
      </trkpt>
      <trkpt lat="46.29243" lon="6.54055">
        <ele>786</ele>
        <time>2019-06-11T17:28:05Z</time>
      </trkpt>
      <trkpt lat="46.29243" lon="6.54039">
        <ele>787</ele>
        <time>2019-06-11T17:28:07Z</time>
      </trkpt>
      <trkpt lat="46.29236" lon="6.53936">
        <ele>794</ele>
        <time>2019-06-11T17:28:20Z</time>
      </trkpt>
      <trkpt lat="46.29236" lon="6.53916">
        <ele>796</ele>
        <time>2019-06-11T17:28:22Z</time>
      </trkpt>
      <trkpt lat="46.29239" lon="6.53902">
        <ele>796</ele>
        <time>2019-06-11T17:28:24Z</time>
      </trkpt>
      <trkpt lat="46.29265" lon="6.53842">
        <ele>796</ele>
        <time>2019-06-11T17:28:33Z</time>
      </trkpt>
      <trkpt lat="46.29269" lon="6.53828">
        <ele>796</ele>
        <time>2019-06-11T17:28:35Z</time>
      </trkpt>
      <trkpt lat="46.29269" lon="6.53813">
        <ele>796</ele>
        <time>2019-06-11T17:28:37Z</time>
      </trkpt>
      <trkpt lat="46.29265" lon="6.53801">
        <ele>797</ele>
        <time>2019-06-11T17:28:38Z</time>
      </trkpt>
      <trkpt lat="46.29258" lon="6.53791">
        <ele>798</ele>
        <time>2019-06-11T17:28:40Z</time>
      </trkpt>
      <trkpt lat="46.29249" lon="6.53786">
        <ele>800</ele>
        <time>2019-06-11T17:28:42Z</time>
      </trkpt>
      <trkpt lat="46.29152" lon="6.53771">
        <ele>807</ele>
        <time>2019-06-11T17:28:59Z</time>
      </trkpt>
      <trkpt lat="46.29065" lon="6.53738">
        <ele>817</ele>
        <time>2019-06-11T17:29:15Z</time>
      </trkpt>
      <trkpt lat="46.29054" lon="6.53729">
        <ele>819</ele>
        <time>2019-06-11T17:29:17Z</time>
      </trkpt>
      <trkpt lat="46.29039" lon="6.53709">
        <ele>820</ele>
        <time>2019-06-11T17:29:21Z</time>
      </trkpt>
      <trkpt lat="46.29012" lon="6.53649">
        <ele>819</ele>
        <time>2019-06-11T17:29:30Z</time>
      </trkpt>
      <trkpt lat="46.2895" lon="6.53554">
        <ele>823</ele>
        <time>2019-06-11T17:29:46Z</time>
      </trkpt>
      <trkpt lat="46.28909" lon="6.53477">
        <ele>826</ele>
        <time>2019-06-11T17:29:58Z</time>
      </trkpt>
      <trkpt lat="46.28892" lon="6.53452">
        <ele>826</ele>
        <time>2019-06-11T17:30:02Z</time>
      </trkpt>
      <trkpt lat="46.28854" lon="6.5341">
        <ele>826</ele>
        <time>2019-06-11T17:30:11Z</time>
      </trkpt>
      <trkpt lat="46.28839" lon="6.53389">
        <ele>826</ele>
        <time>2019-06-11T17:30:14Z</time>
      </trkpt>
      <trkpt lat="46.28824" lon="6.53362">
        <ele>828</ele>
        <time>2019-06-11T17:30:19Z</time>
      </trkpt>
      <trkpt lat="46.28791" lon="6.53279">
        <ele>831</ele>
        <time>2019-06-11T17:30:30Z</time>
      </trkpt>
      <trkpt lat="46.28743" lon="6.53199">
        <ele>832</ele>
        <time>2019-06-11T17:30:43Z</time>
      </trkpt>
      <trkpt lat="46.28732" lon="6.53175">
        <ele>832</ele>
        <time>2019-06-11T17:30:47Z</time>
      </trkpt>
      <trkpt lat="46.28709" lon="6.53102">
        <ele>832</ele>
        <time>2019-06-11T17:30:57Z</time>
      </trkpt>
      <trkpt lat="46.28695" lon="6.53066">
        <ele>832</ele>
        <time>2019-06-11T17:31:02Z</time>
      </trkpt>
      <trkpt lat="46.28605" lon="6.52884">
        <ele>835</ele>
        <time>2019-06-11T17:31:29Z</time>
      </trkpt>
      <trkpt lat="46.28551" lon="6.52751">
        <ele>838</ele>
        <time>2019-06-11T17:31:48Z</time>
      </trkpt>
      <trkpt lat="46.28534" lon="6.52716">
        <ele>839</ele>
        <time>2019-06-11T17:31:54Z</time>
      </trkpt>
      <trkpt lat="46.28519" lon="6.5269">
        <ele>840</ele>
        <time>2019-06-11T17:31:58Z</time>
      </trkpt>
      <trkpt lat="46.2846" lon="6.52598">
        <ele>843</ele>
        <time>2019-06-11T17:32:13Z</time>
      </trkpt>
      <trkpt lat="46.284" lon="6.52482">
        <ele>843</ele>
        <time>2019-06-11T17:32:31Z</time>
      </trkpt>
      <trkpt lat="46.28389" lon="6.52472">
        <ele>844</ele>
        <time>2019-06-11T17:32:33Z</time>
      </trkpt>
      <trkpt lat="46.2836" lon="6.52461">
        <ele>846</ele>
        <time>2019-06-11T17:32:39Z</time>
      </trkpt>
      <trkpt lat="46.2835" lon="6.52454">
        <ele>847</ele>
        <time>2019-06-11T17:32:41Z</time>
      </trkpt>
      <trkpt lat="46.28301" lon="6.52398">
        <ele>850</ele>
        <time>2019-06-11T17:32:52Z</time>
      </trkpt>
      <trkpt lat="46.28292" lon="6.52383">
        <ele>851</ele>
        <time>2019-06-11T17:32:54Z</time>
      </trkpt>
      <trkpt lat="46.28288" lon="6.52372">
        <ele>851</ele>
        <time>2019-06-11T17:32:56Z</time>
      </trkpt>
      <trkpt lat="46.28288" lon="6.52364">
        <ele>851</ele>
        <time>2019-06-11T17:32:57Z</time>
      </trkpt>
      <trkpt lat="46.28291" lon="6.5235">
        <ele>851</ele>
        <time>2019-06-11T17:32:58Z</time>
      </trkpt>
      <trkpt lat="46.28297" lon="6.52338">
        <ele>851</ele>
        <time>2019-06-11T17:33:00Z</time>
      </trkpt>
      <trkpt lat="46.28326" lon="6.52315">
        <ele>849</ele>
        <time>2019-06-11T17:33:06Z</time>
      </trkpt>
      <trkpt lat="46.28365" lon="6.52271">
        <ele>851</ele>
        <time>2019-06-11T17:33:15Z</time>
      </trkpt>
      <trkpt lat="46.2837" lon="6.52269">
        <ele>851</ele>
        <time>2019-06-11T17:33:16Z</time>
      </trkpt>
      <trkpt lat="46.28378" lon="6.52269">
        <ele>851</ele>
        <time>2019-06-11T17:33:17Z</time>
      </trkpt>
      <trkpt lat="46.28384" lon="6.52245">
        <ele>852</ele>
        <time>2019-06-11T17:33:20Z</time>
      </trkpt>
      <trkpt lat="46.28387" lon="6.52229">
        <ele>852</ele>
        <time>2019-06-11T17:33:23Z</time>
      </trkpt>
      <trkpt lat="46.28394" lon="6.5221">
        <ele>852</ele>
        <time>2019-06-11T17:33:25Z</time>
      </trkpt>
      <trkpt lat="46.2841" lon="6.5217">
        <ele>851</ele>
        <time>2019-06-11T17:33:31Z</time>
      </trkpt>
      <trkpt lat="46.28425" lon="6.52139">
        <ele>854</ele>
        <time>2019-06-11T17:33:35Z</time>
      </trkpt>
      <trkpt lat="46.28432" lon="6.52131">
        <ele>855</ele>
        <time>2019-06-11T17:33:37Z</time>
      </trkpt>
      <trkpt lat="46.28439" lon="6.52125">
        <ele>855</ele>
        <time>2019-06-11T17:33:39Z</time>
      </trkpt>
      <trkpt lat="46.28463" lon="6.52112">
        <ele>858</ele>
        <time>2019-06-11T17:33:43Z</time>
      </trkpt>
      <trkpt lat="46.28501" lon="6.52102">
        <ele>862</ele>
        <time>2019-06-11T17:33:50Z</time>
      </trkpt>
      <trkpt lat="46.28514" lon="6.52095">
        <ele>862</ele>
        <time>2019-06-11T17:33:52Z</time>
      </trkpt>
      <trkpt lat="46.28523" lon="6.52087">
        <ele>862</ele>
        <time>2019-06-11T17:33:54Z</time>
      </trkpt>
      <trkpt lat="46.28562" lon="6.52042">
        <ele>866</ele>
        <time>2019-06-11T17:34:03Z</time>
      </trkpt>
      <trkpt lat="46.28572" lon="6.52024">
        <ele>868</ele>
        <time>2019-06-11T17:34:06Z</time>
      </trkpt>
      <trkpt lat="46.28575" lon="6.52008">
        <ele>871</ele>
        <time>2019-06-11T17:34:08Z</time>
      </trkpt>
      <trkpt lat="46.28574" lon="6.51995">
        <ele>873</ele>
        <time>2019-06-11T17:34:10Z</time>
      </trkpt>
      <trkpt lat="46.28551" lon="6.51905">
        <ele>886</ele>
        <time>2019-06-11T17:34:21Z</time>
      </trkpt>
      <trkpt lat="46.28544" lon="6.51865">
        <ele>891</ele>
        <time>2019-06-11T17:34:27Z</time>
      </trkpt>
      <trkpt lat="46.28543" lon="6.5185">
        <ele>892</ele>
        <time>2019-06-11T17:34:28Z</time>
      </trkpt>
      <trkpt lat="46.28544" lon="6.5183">
        <ele>893</ele>
        <time>2019-06-11T17:34:31Z</time>
      </trkpt>
      <trkpt lat="46.28547" lon="6.51811">
        <ele>895</ele>
        <time>2019-06-11T17:34:33Z</time>
      </trkpt>
      <trkpt lat="46.28552" lon="6.51797">
        <ele>896</ele>
        <time>2019-06-11T17:34:35Z</time>
      </trkpt>
      <trkpt lat="46.28561" lon="6.5178">
        <ele>897</ele>
        <time>2019-06-11T17:34:38Z</time>
      </trkpt>
      <trkpt lat="46.28572" lon="6.51766">
        <ele>898</ele>
        <time>2019-06-11T17:34:40Z</time>
      </trkpt>
      <trkpt lat="46.2872" lon="6.5162">
        <ele>940</ele>
        <time>2019-06-11T17:35:12Z</time>
      </trkpt>
      <trkpt lat="46.28775" lon="6.51591">
        <ele>948</ele>
        <time>2019-06-11T17:35:23Z</time>
      </trkpt>
      <trkpt lat="46.28832" lon="6.51564">
        <ele>950</ele>
        <time>2019-06-11T17:35:33Z</time>
      </trkpt>
      <trkpt lat="46.28841" lon="6.51556">
        <ele>953</ele>
        <time>2019-06-11T17:35:35Z</time>
      </trkpt>
      <trkpt lat="46.28842" lon="6.51547">
        <ele>956</ele>
        <time>2019-06-11T17:35:36Z</time>
      </trkpt>
      <trkpt lat="46.28839" lon="6.51539">
        <ele>958</ele>
        <time>2019-06-11T17:35:38Z</time>
      </trkpt>
      <trkpt lat="46.28829" lon="6.51538">
        <ele>959</ele>
        <time>2019-06-11T17:35:39Z</time>
      </trkpt>
      <trkpt lat="46.28758" lon="6.51571">
        <ele>960</ele>
        <time>2019-06-11T17:35:53Z</time>
      </trkpt>
      <trkpt lat="46.28743" lon="6.51574">
        <ele>960</ele>
        <time>2019-06-11T17:35:55Z</time>
      </trkpt>
      <trkpt lat="46.2872" lon="6.51574">
        <ele>961</ele>
        <time>2019-06-11T17:35:59Z</time>
      </trkpt>
      <trkpt lat="46.28655" lon="6.51562">
        <ele>968</ele>
        <time>2019-06-11T17:36:11Z</time>
      </trkpt>
      <trkpt lat="46.2865" lon="6.51554">
        <ele>972</ele>
        <time>2019-06-11T17:36:12Z</time>
      </trkpt>
      <trkpt lat="46.2865" lon="6.51548">
        <ele>975</ele>
        <time>2019-06-11T17:36:13Z</time>
      </trkpt>
      <trkpt lat="46.28652" lon="6.51543">
        <ele>977</ele>
        <time>2019-06-11T17:36:14Z</time>
      </trkpt>
      <trkpt lat="46.28658" lon="6.51542">
        <ele>978</ele>
        <time>2019-06-11T17:36:15Z</time>
      </trkpt>
      <trkpt lat="46.28677" lon="6.51547">
        <ele>975</ele>
        <time>2019-06-11T17:36:18Z</time>
      </trkpt>
      <trkpt lat="46.28692" lon="6.51548">
        <ele>974</ele>
        <time>2019-06-11T17:36:21Z</time>
      </trkpt>
      <trkpt lat="46.28731" lon="6.51541">
        <ele>977</ele>
        <time>2019-06-11T17:36:28Z</time>
      </trkpt>
      <trkpt lat="46.28739" lon="6.51537">
        <ele>979</ele>
        <time>2019-06-11T17:36:29Z</time>
      </trkpt>
      <trkpt lat="46.28748" lon="6.51531">
        <ele>981</ele>
        <time>2019-06-11T17:36:31Z</time>
      </trkpt>
      <trkpt lat="46.28766" lon="6.51513">
        <ele>986</ele>
        <time>2019-06-11T17:36:35Z</time>
      </trkpt>
      <trkpt lat="46.28787" lon="6.51501">
        <ele>985</ele>
        <time>2019-06-11T17:36:39Z</time>
      </trkpt>
      <trkpt lat="46.28794" lon="6.51496">
        <ele>985</ele>
        <time>2019-06-11T17:36:41Z</time>
      </trkpt>
      <trkpt lat="46.28811" lon="6.51477">
        <ele>987</ele>
        <time>2019-06-11T17:36:44Z</time>
      </trkpt>
      <trkpt lat="46.28833" lon="6.51437">
        <ele>995</ele>
        <time>2019-06-11T17:36:51Z</time>
      </trkpt>
      <trkpt lat="46.28845" lon="6.51428">
        <ele>998</ele>
        <time>2019-06-11T17:36:53Z</time>
      </trkpt>
      <trkpt lat="46.28906" lon="6.51432">
        <ele>991</ele>
        <time>2019-06-11T17:37:04Z</time>
      </trkpt>
      <trkpt lat="46.28948" lon="6.51438">
        <ele>989</ele>
        <time>2019-06-11T17:37:11Z</time>
      </trkpt>
      <trkpt lat="46.28961" lon="6.51436">
        <ele>989</ele>
        <time>2019-06-11T17:37:14Z</time>
      </trkpt>
      <trkpt lat="46.28976" lon="6.51424">
        <ele>991</ele>
        <time>2019-06-11T17:37:17Z</time>
      </trkpt>
      <trkpt lat="46.2902" lon="6.51357">
        <ele>1005</ele>
        <time>2019-06-11T17:37:28Z</time>
      </trkpt>
      <trkpt lat="46.29033" lon="6.51346">
        <ele>1007</ele>
        <time>2019-06-11T17:37:31Z</time>
      </trkpt>
      <trkpt lat="46.29048" lon="6.51341">
        <ele>1006</ele>
        <time>2019-06-11T17:37:34Z</time>
      </trkpt>
      <trkpt lat="46.29087" lon="6.51339">
        <ele>1004</ele>
        <time>2019-06-11T17:37:41Z</time>
      </trkpt>
      <trkpt lat="46.29096" lon="6.5134">
        <ele>1006</ele>
        <time>2019-06-11T17:37:42Z</time>
      </trkpt>
      <trkpt lat="46.29128" lon="6.51362">
        <ele>1009</ele>
        <time>2019-06-11T17:37:48Z</time>
      </trkpt>
      <trkpt lat="46.2914" lon="6.51374">
        <ele>1009</ele>
        <time>2019-06-11T17:37:51Z</time>
      </trkpt>
      <trkpt lat="46.29153" lon="6.5139">
        <ele>1009</ele>
        <time>2019-06-11T17:37:54Z</time>
      </trkpt>
      <trkpt lat="46.29186" lon="6.51447">
        <ele>1015</ele>
        <time>2019-06-11T17:38:03Z</time>
      </trkpt>
      <trkpt lat="46.29193" lon="6.5145">
        <ele>1018</ele>
        <time>2019-06-11T17:38:04Z</time>
      </trkpt>
      <trkpt lat="46.29201" lon="6.51446">
        <ele>1021</ele>
        <time>2019-06-11T17:38:06Z</time>
      </trkpt>
      <trkpt lat="46.29206" lon="6.5144">
        <ele>1023</ele>
        <time>2019-06-11T17:38:07Z</time>
      </trkpt>
      <trkpt lat="46.29209" lon="6.51431">
        <ele>1024</ele>
        <time>2019-06-11T17:38:08Z</time>
      </trkpt>
      <trkpt lat="46.2921" lon="6.5142">
        <ele>1024</ele>
        <time>2019-06-11T17:38:10Z</time>
      </trkpt>
      <trkpt lat="46.29202" lon="6.51384">
        <ele>1025</ele>
        <time>2019-06-11T17:38:14Z</time>
      </trkpt>
      <trkpt lat="46.29191" lon="6.51356">
        <ele>1025</ele>
        <time>2019-06-11T17:38:18Z</time>
      </trkpt>
      <trkpt lat="46.29168" lon="6.51321">
        <ele>1022</ele>
        <time>2019-06-11T17:38:24Z</time>
      </trkpt>
      <trkpt lat="46.29163" lon="6.51302">
        <ele>1025</ele>
        <time>2019-06-11T17:38:27Z</time>
      </trkpt>
      <trkpt lat="46.29162" lon="6.51282">
        <ele>1028</ele>
        <time>2019-06-11T17:38:29Z</time>
      </trkpt>
      <trkpt lat="46.29167" lon="6.51227">
        <ele>1037</ele>
        <time>2019-06-11T17:38:36Z</time>
      </trkpt>
      <trkpt lat="46.29167" lon="6.51214">
        <ele>1039</ele>
        <time>2019-06-11T17:38:38Z</time>
      </trkpt>
      <trkpt lat="46.29164" lon="6.51201">
        <ele>1041</ele>
        <time>2019-06-11T17:38:39Z</time>
      </trkpt>
      <trkpt lat="46.29132" lon="6.51145">
        <ele>1051</ele>
        <time>2019-06-11T17:38:48Z</time>
      </trkpt>
      <trkpt lat="46.29109" lon="6.51068">
        <ele>1060</ele>
        <time>2019-06-11T17:38:59Z</time>
      </trkpt>
      <trkpt lat="46.29105" lon="6.51058">
        <ele>1061</ele>
        <time>2019-06-11T17:39:00Z</time>
      </trkpt>
      <trkpt lat="46.29099" lon="6.51051">
        <ele>1061</ele>
        <time>2019-06-11T17:39:01Z</time>
      </trkpt>
      <trkpt lat="46.29088" lon="6.51049">
        <ele>1060</ele>
        <time>2019-06-11T17:39:03Z</time>
      </trkpt>
      <trkpt lat="46.29077" lon="6.51054">
        <ele>1061</ele>
        <time>2019-06-11T17:39:05Z</time>
      </trkpt>
      <trkpt lat="46.29048" lon="6.51091">
        <ele>1067</ele>
        <time>2019-06-11T17:39:12Z</time>
      </trkpt>
      <trkpt lat="46.29041" lon="6.51096">
        <ele>1068</ele>
        <time>2019-06-11T17:39:14Z</time>
      </trkpt>
      <trkpt lat="46.29033" lon="6.51095">
        <ele>1071</ele>
        <time>2019-06-11T17:39:15Z</time>
      </trkpt>
      <trkpt lat="46.29024" lon="6.51085">
        <ele>1074</ele>
        <time>2019-06-11T17:39:17Z</time>
      </trkpt>
      <trkpt lat="46.29018" lon="6.51069">
        <ele>1075</ele>
        <time>2019-06-11T17:39:19Z</time>
      </trkpt>
      <trkpt lat="46.29017" lon="6.51062">
        <ele>1075</ele>
        <time>2019-06-11T17:39:20Z</time>
      </trkpt>
      <trkpt lat="46.29021" lon="6.5102">
        <ele>1072</ele>
        <time>2019-06-11T17:39:25Z</time>
      </trkpt>
      <trkpt lat="46.2902" lon="6.51003">
        <ele>1071</ele>
        <time>2019-06-11T17:39:28Z</time>
      </trkpt>
      <trkpt lat="46.28999" lon="6.50923">
        <ele>1073</ele>
        <time>2019-06-11T17:39:38Z</time>
      </trkpt>
      <trkpt lat="46.28999" lon="6.50904">
        <ele>1075</ele>
        <time>2019-06-11T17:39:40Z</time>
      </trkpt>
      <trkpt lat="46.29004" lon="6.50885">
        <ele>1079</ele>
        <time>2019-06-11T17:39:43Z</time>
      </trkpt>
      <trkpt lat="46.29017" lon="6.50863">
        <ele>1083</ele>
        <time>2019-06-11T17:39:46Z</time>
      </trkpt>
      <trkpt lat="46.29033" lon="6.50851">
        <ele>1086</ele>
        <time>2019-06-11T17:39:50Z</time>
      </trkpt>
      <trkpt lat="46.29083" lon="6.50832">
        <ele>1093</ele>
        <time>2019-06-11T17:39:59Z</time>
      </trkpt>
      <trkpt lat="46.29093" lon="6.5083">
        <ele>1094</ele>
        <time>2019-06-11T17:40:01Z</time>
      </trkpt>
      <trkpt lat="46.29105" lon="6.50832">
        <ele>1094</ele>
        <time>2019-06-11T17:40:03Z</time>
      </trkpt>
      <trkpt lat="46.29145" lon="6.50852">
        <ele>1092</ele>
        <time>2019-06-11T17:40:10Z</time>
      </trkpt>
      <trkpt lat="46.29159" lon="6.50854">
        <ele>1092</ele>
        <time>2019-06-11T17:40:13Z</time>
      </trkpt>
      <trkpt lat="46.29196" lon="6.50851">
        <ele>1100</ele>
        <time>2019-06-11T17:40:19Z</time>
      </trkpt>
      <trkpt lat="46.29209" lon="6.50856">
        <ele>1102</ele>
        <time>2019-06-11T17:40:22Z</time>
      </trkpt>
      <trkpt lat="46.29216" lon="6.50863">
        <ele>1102</ele>
        <time>2019-06-11T17:40:23Z</time>
      </trkpt>
      <trkpt lat="46.29225" lon="6.50876">
        <ele>1102</ele>
        <time>2019-06-11T17:40:26Z</time>
      </trkpt>
      <trkpt lat="46.2924" lon="6.50916">
        <ele>1100</ele>
        <time>2019-06-11T17:40:31Z</time>
      </trkpt>
      <trkpt lat="46.29251" lon="6.50932">
        <ele>1100</ele>
        <time>2019-06-11T17:40:34Z</time>
      </trkpt>
      <trkpt lat="46.29261" lon="6.50938">
        <ele>1102</ele>
        <time>2019-06-11T17:40:36Z</time>
      </trkpt>
      <trkpt lat="46.29276" lon="6.50943">
        <ele>1105</ele>
        <time>2019-06-11T17:40:39Z</time>
      </trkpt>
      <trkpt lat="46.29296" lon="6.50938">
        <ele>1111</ele>
        <time>2019-06-11T17:40:42Z</time>
      </trkpt>
      <trkpt lat="46.29336" lon="6.50912">
        <ele>1122</ele>
        <time>2019-06-11T17:40:50Z</time>
      </trkpt>
      <trkpt lat="46.29359" lon="6.509">
        <ele>1124</ele>
        <time>2019-06-11T17:40:54Z</time>
      </trkpt>
      <trkpt lat="46.29378" lon="6.50898">
        <ele>1125</ele>
        <time>2019-06-11T17:40:58Z</time>
      </trkpt>
      <trkpt lat="46.29399" lon="6.50902">
        <ele>1126</ele>
        <time>2019-06-11T17:41:02Z</time>
      </trkpt>
      <trkpt lat="46.2941" lon="6.50906">
        <ele>1126</ele>
        <time>2019-06-11T17:41:04Z</time>
      </trkpt>
      <trkpt lat="46.29434" lon="6.50923">
        <ele>1125</ele>
        <time>2019-06-11T17:41:08Z</time>
      </trkpt>
      <trkpt lat="46.29462" lon="6.5094">
        <ele>1125</ele>
        <time>2019-06-11T17:41:14Z</time>
      </trkpt>
      <trkpt lat="46.29497" lon="6.50958">
        <ele>1125</ele>
        <time>2019-06-11T17:41:20Z</time>
      </trkpt>
      <trkpt lat="46.29529" lon="6.50969">
        <ele>1122</ele>
        <time>2019-06-11T17:41:26Z</time>
      </trkpt>
      <trkpt lat="46.29553" lon="6.50974">
        <ele>1119</ele>
        <time>2019-06-11T17:41:31Z</time>
      </trkpt>
      <trkpt lat="46.29621" lon="6.50971">
        <ele>1112</ele>
        <time>2019-06-11T17:41:43Z</time>
      </trkpt>
      <trkpt lat="46.29733" lon="6.50962">
        <ele>1105</ele>
        <time>2019-06-11T17:42:03Z</time>
      </trkpt>
      <trkpt lat="46.29745" lon="6.50959">
        <ele>1105</ele>
        <time>2019-06-11T17:42:05Z</time>
      </trkpt>
      <trkpt lat="46.29784" lon="6.50929">
        <ele>1103</ele>
        <time>2019-06-11T17:42:13Z</time>
      </trkpt>
      <trkpt lat="46.29823" lon="6.5091">
        <ele>1102</ele>
        <time>2019-06-11T17:42:20Z</time>
      </trkpt>
      <trkpt lat="46.2989" lon="6.50835">
        <ele>1095</ele>
        <time>2019-06-11T17:42:35Z</time>
      </trkpt>
      <trkpt lat="46.29975" lon="6.50754">
        <ele>1084</ele>
        <time>2019-06-11T17:42:53Z</time>
      </trkpt>
      <trkpt lat="46.30004" lon="6.50735">
        <ele>1079</ele>
        <time>2019-06-11T17:42:59Z</time>
      </trkpt>
      <trkpt lat="46.30017" lon="6.5073">
        <ele>1076</ele>
        <time>2019-06-11T17:43:01Z</time>
      </trkpt>
      <trkpt lat="46.30027" lon="6.50729">
        <ele>1075</ele>
        <time>2019-06-11T17:43:03Z</time>
      </trkpt>
      <trkpt lat="46.30057" lon="6.50729">
        <ele>1074</ele>
        <time>2019-06-11T17:43:08Z</time>
      </trkpt>
      <trkpt lat="46.30102" lon="6.50738">
        <ele>1074</ele>
        <time>2019-06-11T17:43:16Z</time>
      </trkpt>
      <trkpt lat="46.30144" lon="6.50743">
        <ele>1068</ele>
        <time>2019-06-11T17:43:24Z</time>
      </trkpt>
      <trkpt lat="46.30165" lon="6.50751">
        <ele>1067</ele>
        <time>2019-06-11T17:43:28Z</time>
      </trkpt>
      <trkpt lat="46.30185" lon="6.50764">
        <ele>1071</ele>
        <time>2019-06-11T17:43:32Z</time>
      </trkpt>
      <trkpt lat="46.30206" lon="6.50783">
        <ele>1077</ele>
        <time>2019-06-11T17:43:36Z</time>
      </trkpt>
      <trkpt lat="46.30211" lon="6.50783">
        <ele>1076</ele>
        <time>2019-06-11T17:43:37Z</time>
      </trkpt>
      <trkpt lat="46.30216" lon="6.50778">
        <ele>1073</ele>
        <time>2019-06-11T17:43:38Z</time>
      </trkpt>
      <trkpt lat="46.30217" lon="6.50769">
        <ele>1068</ele>
        <time>2019-06-11T17:43:39Z</time>
      </trkpt>
      <trkpt lat="46.30216" lon="6.50762">
        <ele>1065</ele>
        <time>2019-06-11T17:43:40Z</time>
      </trkpt>
      <trkpt lat="46.3021" lon="6.50751">
        <ele>1061</ele>
        <time>2019-06-11T17:43:42Z</time>
      </trkpt>
      <trkpt lat="46.30189" lon="6.50745">
        <ele>1061</ele>
        <time>2019-06-11T17:43:46Z</time>
      </trkpt>
      <trkpt lat="46.3016" lon="6.5072">
        <ele>1058</ele>
        <time>2019-06-11T17:43:52Z</time>
      </trkpt>
      <trkpt lat="46.30075" lon="6.5067">
        <ele>1047</ele>
        <time>2019-06-11T17:44:08Z</time>
      </trkpt>
      <trkpt lat="46.29992" lon="6.50643">
        <ele>1036</ele>
        <time>2019-06-11T17:44:23Z</time>
      </trkpt>
      <trkpt lat="46.2995" lon="6.50638">
        <ele>1036</ele>
        <time>2019-06-11T17:44:31Z</time>
      </trkpt>
      <trkpt lat="46.29892" lon="6.50623">
        <ele>1035</ele>
        <time>2019-06-11T17:44:41Z</time>
      </trkpt>
      <trkpt lat="46.29876" lon="6.50622">
        <ele>1037</ele>
        <time>2019-06-11T17:44:44Z</time>
      </trkpt>
      <trkpt lat="46.29871" lon="6.50619">
        <ele>1037</ele>
        <time>2019-06-11T17:44:45Z</time>
      </trkpt>
      <trkpt lat="46.29867" lon="6.50612">
        <ele>1035</ele>
        <time>2019-06-11T17:44:46Z</time>
      </trkpt>
      <trkpt lat="46.29865" lon="6.50604">
        <ele>1034</ele>
        <time>2019-06-11T17:44:47Z</time>
      </trkpt>
      <trkpt lat="46.29866" lon="6.50593">
        <ele>1031</ele>
        <time>2019-06-11T17:44:48Z</time>
      </trkpt>
      <trkpt lat="46.29869" lon="6.50588">
        <ele>1030</ele>
        <time>2019-06-11T17:44:49Z</time>
      </trkpt>
      <trkpt lat="46.29873" lon="6.50586">
        <ele>1028</ele>
        <time>2019-06-11T17:44:50Z</time>
      </trkpt>
      <trkpt lat="46.2991" lon="6.50588">
        <ele>1023</ele>
        <time>2019-06-11T17:44:57Z</time>
      </trkpt>
      <trkpt lat="46.2998" lon="6.50573">
        <ele>1011</ele>
        <time>2019-06-11T17:45:09Z</time>
      </trkpt>
      <trkpt lat="46.3001" lon="6.50579">
        <ele>1010</ele>
        <time>2019-06-11T17:45:14Z</time>
      </trkpt>
      <trkpt lat="46.30014" lon="6.50577">
        <ele>1009</ele>
        <time>2019-06-11T17:45:15Z</time>
      </trkpt>
      <trkpt lat="46.30018" lon="6.5057">
        <ele>1007</ele>
        <time>2019-06-11T17:45:16Z</time>
      </trkpt>
      <trkpt lat="46.30019" lon="6.50562">
        <ele>1005</ele>
        <time>2019-06-11T17:45:17Z</time>
      </trkpt>
      <trkpt lat="46.30017" lon="6.50555">
        <ele>1004</ele>
        <time>2019-06-11T17:45:18Z</time>
      </trkpt>
      <trkpt lat="46.30012" lon="6.50547">
        <ele>1002</ele>
        <time>2019-06-11T17:45:20Z</time>
      </trkpt>
      <trkpt lat="46.30004" lon="6.50544">
        <ele>1002</ele>
        <time>2019-06-11T17:45:21Z</time>
      </trkpt>
      <trkpt lat="46.29981" lon="6.50542">
        <ele>1005</ele>
        <time>2019-06-11T17:45:25Z</time>
      </trkpt>
      <trkpt lat="46.29972" lon="6.50536">
        <ele>1005</ele>
        <time>2019-06-11T17:45:27Z</time>
      </trkpt>
      <trkpt lat="46.29966" lon="6.50528">
        <ele>1004</ele>
        <time>2019-06-11T17:45:28Z</time>
      </trkpt>
      <trkpt lat="46.29958" lon="6.50513">
        <ele>1003</ele>
        <time>2019-06-11T17:45:31Z</time>
      </trkpt>
      <trkpt lat="46.2995" lon="6.50479">
        <ele>1000</ele>
        <time>2019-06-11T17:45:35Z</time>
      </trkpt>
      <trkpt lat="46.29926" lon="6.50444">
        <ele>1001</ele>
        <time>2019-06-11T17:45:41Z</time>
      </trkpt>
      <trkpt lat="46.29924" lon="6.50434">
        <ele>1000</ele>
        <time>2019-06-11T17:45:42Z</time>
      </trkpt>
      <trkpt lat="46.29925" lon="6.50422">
        <ele>999</ele>
        <time>2019-06-11T17:45:44Z</time>
      </trkpt>
      <trkpt lat="46.29936" lon="6.50384">
        <ele>994</ele>
        <time>2019-06-11T17:45:49Z</time>
      </trkpt>
      <trkpt lat="46.29938" lon="6.50369">
        <ele>993</ele>
        <time>2019-06-11T17:45:51Z</time>
      </trkpt>
      <trkpt lat="46.29938" lon="6.50359">
        <ele>992</ele>
        <time>2019-06-11T17:45:52Z</time>
      </trkpt>
      <trkpt lat="46.29935" lon="6.50347">
        <ele>992</ele>
        <time>2019-06-11T17:45:54Z</time>
      </trkpt>
      <trkpt lat="46.29921" lon="6.50304">
        <ele>992</ele>
        <time>2019-06-11T17:46:00Z</time>
      </trkpt>
      <trkpt lat="46.2992" lon="6.50293">
        <ele>991</ele>
        <time>2019-06-11T17:46:01Z</time>
      </trkpt>
      <trkpt lat="46.2992" lon="6.50272">
        <ele>991</ele>
        <time>2019-06-11T17:46:04Z</time>
      </trkpt>
      <trkpt lat="46.29924" lon="6.5025">
        <ele>989</ele>
        <time>2019-06-11T17:46:06Z</time>
      </trkpt>
      <trkpt lat="46.29929" lon="6.50229">
        <ele>988</ele>
        <time>2019-06-11T17:46:09Z</time>
      </trkpt>
      <trkpt lat="46.2995" lon="6.5017">
        <ele>981</ele>
        <time>2019-06-11T17:46:17Z</time>
      </trkpt>
      <trkpt lat="46.29954" lon="6.50164">
        <ele>979</ele>
        <time>2019-06-11T17:46:18Z</time>
      </trkpt>
      <trkpt lat="46.29961" lon="6.50161">
        <ele>977</ele>
        <time>2019-06-11T17:46:20Z</time>
      </trkpt>
      <trkpt lat="46.2997" lon="6.50164">
        <ele>974</ele>
        <time>2019-06-11T17:46:21Z</time>
      </trkpt>
      <trkpt lat="46.29985" lon="6.50197">
        <ele>971</ele>
        <time>2019-06-11T17:46:26Z</time>
      </trkpt>
      <trkpt lat="46.2999" lon="6.50203">
        <ele>970</ele>
        <time>2019-06-11T17:46:27Z</time>
      </trkpt>
      <trkpt lat="46.29997" lon="6.50206">
        <ele>969</ele>
        <time>2019-06-11T17:46:28Z</time>
      </trkpt>
      <trkpt lat="46.30016" lon="6.50206">
        <ele>965</ele>
        <time>2019-06-11T17:46:32Z</time>
      </trkpt>
      <trkpt lat="46.30028" lon="6.50214">
        <ele>964</ele>
        <time>2019-06-11T17:46:34Z</time>
      </trkpt>
      <trkpt lat="46.30034" lon="6.50226">
        <ele>963</ele>
        <time>2019-06-11T17:46:36Z</time>
      </trkpt>
      <trkpt lat="46.30047" lon="6.50256">
        <ele>963</ele>
        <time>2019-06-11T17:46:40Z</time>
      </trkpt>
      <trkpt lat="46.30051" lon="6.50263">
        <ele>963</ele>
        <time>2019-06-11T17:46:41Z</time>
      </trkpt>
      <trkpt lat="46.30058" lon="6.50267">
        <ele>962</ele>
        <time>2019-06-11T17:46:43Z</time>
      </trkpt>
      <trkpt lat="46.30085" lon="6.50273">
        <ele>958</ele>
        <time>2019-06-11T17:46:48Z</time>
      </trkpt>
      <trkpt lat="46.30106" lon="6.50283">
        <ele>956</ele>
        <time>2019-06-11T17:46:52Z</time>
      </trkpt>
      <trkpt lat="46.30116" lon="6.50292">
        <ele>955</ele>
        <time>2019-06-11T17:46:54Z</time>
      </trkpt>
      <trkpt lat="46.30122" lon="6.50282">
        <ele>953</ele>
        <time>2019-06-11T17:46:55Z</time>
      </trkpt>
      <trkpt lat="46.30142" lon="6.50265">
        <ele>950</ele>
        <time>2019-06-11T17:46:59Z</time>
      </trkpt>
      <trkpt lat="46.30176" lon="6.50199">
        <ele>942</ele>
        <time>2019-06-11T17:47:10Z</time>
      </trkpt>
      <trkpt lat="46.30191" lon="6.50181">
        <ele>939</ele>
        <time>2019-06-11T17:47:13Z</time>
      </trkpt>
      <trkpt lat="46.30216" lon="6.50158">
        <ele>935</ele>
        <time>2019-06-11T17:47:18Z</time>
      </trkpt>
      <trkpt lat="46.30224" lon="6.50016">
        <ele>930</ele>
        <time>2019-06-11T17:47:36Z</time>
      </trkpt>
      <trkpt lat="46.30229" lon="6.50005">
        <ele>929</ele>
        <time>2019-06-11T17:47:37Z</time>
      </trkpt>
      <trkpt lat="46.3025" lon="6.49992">
        <ele>926</ele>
        <time>2019-06-11T17:47:42Z</time>
      </trkpt>
      <trkpt lat="46.30273" lon="6.49965">
        <ele>922</ele>
        <time>2019-06-11T17:47:47Z</time>
      </trkpt>
      <trkpt lat="46.30301" lon="6.49957">
        <ele>919</ele>
        <time>2019-06-11T17:47:52Z</time>
      </trkpt>
      <trkpt lat="46.30371" lon="6.49973">
        <ele>909</ele>
        <time>2019-06-11T17:48:04Z</time>
      </trkpt>
      <trkpt lat="46.30385" lon="6.49974">
        <ele>906</ele>
        <time>2019-06-11T17:48:07Z</time>
      </trkpt>
      <trkpt lat="46.30414" lon="6.49958">
        <ele>900</ele>
        <time>2019-06-11T17:48:12Z</time>
      </trkpt>
      <trkpt lat="46.30437" lon="6.49955">
        <ele>897</ele>
        <time>2019-06-11T17:48:17Z</time>
      </trkpt>
      <trkpt lat="46.30489" lon="6.49961">
        <ele>888</ele>
        <time>2019-06-11T17:48:26Z</time>
      </trkpt>
      <trkpt lat="46.30528" lon="6.4998">
        <ele>883</ele>
        <time>2019-06-11T17:48:33Z</time>
      </trkpt>
      <trkpt lat="46.3054" lon="6.4998">
        <ele>882</ele>
        <time>2019-06-11T17:48:35Z</time>
      </trkpt>
      <trkpt lat="46.30549" lon="6.4999">
        <ele>881</ele>
        <time>2019-06-11T17:48:37Z</time>
      </trkpt>
      <trkpt lat="46.3057" lon="6.50004">
        <ele>878</ele>
        <time>2019-06-11T17:48:41Z</time>
      </trkpt>
      <trkpt lat="46.30607" lon="6.50044">
        <ele>874</ele>
        <time>2019-06-11T17:48:50Z</time>
      </trkpt>
      <trkpt lat="46.30634" lon="6.50085">
        <ele>871</ele>
        <time>2019-06-11T17:48:57Z</time>
      </trkpt>
      <trkpt lat="46.30651" lon="6.50102">
        <ele>869</ele>
        <time>2019-06-11T17:49:00Z</time>
      </trkpt>
      <trkpt lat="46.3067" lon="6.50113">
        <ele>867</ele>
        <time>2019-06-11T17:49:04Z</time>
      </trkpt>
      <trkpt lat="46.30705" lon="6.50116">
        <ele>862</ele>
        <time>2019-06-11T17:49:10Z</time>
      </trkpt>
      <trkpt lat="46.30712" lon="6.50118">
        <ele>862</ele>
        <time>2019-06-11T17:49:11Z</time>
      </trkpt>
      <trkpt lat="46.30718" lon="6.50123">
        <ele>861</ele>
        <time>2019-06-11T17:49:13Z</time>
      </trkpt>
      <trkpt lat="46.30722" lon="6.5013">
        <ele>860</ele>
        <time>2019-06-11T17:49:14Z</time>
      </trkpt>
      <trkpt lat="46.30724" lon="6.5014">
        <ele>860</ele>
        <time>2019-06-11T17:49:15Z</time>
      </trkpt>
      <trkpt lat="46.30728" lon="6.50182">
        <ele>860</ele>
        <time>2019-06-11T17:49:20Z</time>
      </trkpt>
      <trkpt lat="46.30731" lon="6.5019">
        <ele>860</ele>
        <time>2019-06-11T17:49:21Z</time>
      </trkpt>
      <trkpt lat="46.30736" lon="6.50195">
        <ele>860</ele>
        <time>2019-06-11T17:49:23Z</time>
      </trkpt>
      <trkpt lat="46.30741" lon="6.50197">
        <ele>859</ele>
        <time>2019-06-11T17:49:23Z</time>
      </trkpt>
      <trkpt lat="46.30747" lon="6.50196">
        <ele>858</ele>
        <time>2019-06-11T17:49:25Z</time>
      </trkpt>
      <trkpt lat="46.30756" lon="6.50188">
        <ele>856</ele>
        <time>2019-06-11T17:49:26Z</time>
      </trkpt>
      <trkpt lat="46.30765" lon="6.50168">
        <ele>854</ele>
        <time>2019-06-11T17:49:29Z</time>
      </trkpt>
      <trkpt lat="46.30776" lon="6.50127">
        <ele>853</ele>
        <time>2019-06-11T17:49:35Z</time>
      </trkpt>
      <trkpt lat="46.3078" lon="6.50118">
        <ele>852</ele>
        <time>2019-06-11T17:49:36Z</time>
      </trkpt>
      <trkpt lat="46.30792" lon="6.501">
        <ele>850</ele>
        <time>2019-06-11T17:49:39Z</time>
      </trkpt>
      <trkpt lat="46.30806" lon="6.50072">
        <ele>849</ele>
        <time>2019-06-11T17:49:43Z</time>
      </trkpt>
      <trkpt lat="46.30813" lon="6.50067">
        <ele>848</ele>
        <time>2019-06-11T17:49:45Z</time>
      </trkpt>
      <trkpt lat="46.30819" lon="6.50067">
        <ele>848</ele>
        <time>2019-06-11T17:49:46Z</time>
      </trkpt>
      <trkpt lat="46.30827" lon="6.50074">
        <ele>846</ele>
        <time>2019-06-11T17:49:47Z</time>
      </trkpt>
      <trkpt lat="46.30832" lon="6.50085">
        <ele>844</ele>
        <time>2019-06-11T17:49:49Z</time>
      </trkpt>
      <trkpt lat="46.30842" lon="6.50148">
        <ele>844</ele>
        <time>2019-06-11T17:49:57Z</time>
      </trkpt>
      <trkpt lat="46.30845" lon="6.50163">
        <ele>844</ele>
        <time>2019-06-11T17:49:59Z</time>
      </trkpt>
      <trkpt lat="46.3085" lon="6.50173">
        <ele>843</ele>
        <time>2019-06-11T17:50:00Z</time>
      </trkpt>
      <trkpt lat="46.30862" lon="6.50184">
        <ele>842</ele>
        <time>2019-06-11T17:50:03Z</time>
      </trkpt>
      <trkpt lat="46.30872" lon="6.50189">
        <ele>841</ele>
        <time>2019-06-11T17:50:05Z</time>
      </trkpt>
      <trkpt lat="46.30883" lon="6.50187">
        <ele>840</ele>
        <time>2019-06-11T17:50:07Z</time>
      </trkpt>
      <trkpt lat="46.30888" lon="6.50182">
        <ele>839</ele>
        <time>2019-06-11T17:50:08Z</time>
      </trkpt>
      <trkpt lat="46.30902" lon="6.50156">
        <ele>837</ele>
        <time>2019-06-11T17:50:12Z</time>
      </trkpt>
      <trkpt lat="46.3091" lon="6.5015">
        <ele>836</ele>
        <time>2019-06-11T17:50:14Z</time>
      </trkpt>
      <trkpt lat="46.30947" lon="6.50151">
        <ele>833</ele>
        <time>2019-06-11T17:50:20Z</time>
      </trkpt>
      <trkpt lat="46.30994" lon="6.50142">
        <ele>831</ele>
        <time>2019-06-11T17:50:29Z</time>
      </trkpt>
      <trkpt lat="46.31016" lon="6.50146">
        <ele>830</ele>
        <time>2019-06-11T17:50:33Z</time>
      </trkpt>
      <trkpt lat="46.31032" lon="6.50153">
        <ele>829</ele>
        <time>2019-06-11T17:50:36Z</time>
      </trkpt>
      <trkpt lat="46.3105" lon="6.50171">
        <ele>826</ele>
        <time>2019-06-11T17:50:39Z</time>
      </trkpt>
      <trkpt lat="46.31111" lon="6.50269">
        <ele>816</ele>
        <time>2019-06-11T17:50:56Z</time>
      </trkpt>
      <trkpt lat="46.31106" lon="6.50278">
        <ele>816</ele>
        <time>2019-06-11T17:50:57Z</time>
      </trkpt>
      <trkpt lat="46.31102" lon="6.50294">
        <ele>816</ele>
        <time>2019-06-11T17:50:59Z</time>
      </trkpt>
      <trkpt lat="46.31099" lon="6.50319">
        <ele>816</ele>
        <time>2019-06-11T17:51:02Z</time>
      </trkpt>
      <trkpt lat="46.31099" lon="6.50336">
        <ele>816</ele>
        <time>2019-06-11T17:51:04Z</time>
      </trkpt>
      <trkpt lat="46.31102" lon="6.50368">
        <ele>817</ele>
        <time>2019-06-11T17:51:08Z</time>
      </trkpt>
      <trkpt lat="46.3112" lon="6.50418">
        <ele>817</ele>
        <time>2019-06-11T17:51:15Z</time>
      </trkpt>
      <trkpt lat="46.3116" lon="6.50515">
        <ele>817</ele>
        <time>2019-06-11T17:51:29Z</time>
      </trkpt>
      <trkpt lat="46.31221" lon="6.50685">
        <ele>818</ele>
        <time>2019-06-11T17:51:53Z</time>
      </trkpt>
      <trkpt lat="46.31229" lon="6.50718">
        <ele>818</ele>
        <time>2019-06-11T17:51:57Z</time>
      </trkpt>
      <trkpt lat="46.31238" lon="6.50781">
        <ele>821</ele>
        <time>2019-06-11T17:52:05Z</time>
      </trkpt>
      <trkpt lat="46.31245" lon="6.50816">
        <ele>822</ele>
        <time>2019-06-11T17:52:09Z</time>
      </trkpt>
      <trkpt lat="46.31263" lon="6.50864">
        <ele>824</ele>
        <time>2019-06-11T17:52:16Z</time>
      </trkpt>
      <trkpt lat="46.3127" lon="6.50877">
        <ele>824</ele>
        <time>2019-06-11T17:52:18Z</time>
      </trkpt>
      <trkpt lat="46.3128" lon="6.50888">
        <ele>823</ele>
        <time>2019-06-11T17:52:20Z</time>
      </trkpt>
      <trkpt lat="46.31349" lon="6.50943">
        <ele>817</ele>
        <time>2019-06-11T17:52:34Z</time>
      </trkpt>
      <trkpt lat="46.3137" lon="6.50958">
        <ele>816</ele>
        <time>2019-06-11T17:52:39Z</time>
      </trkpt>
      <trkpt lat="46.31418" lon="6.50979">
        <ele>812</ele>
        <time>2019-06-11T17:52:47Z</time>
      </trkpt>
      <trkpt lat="46.31454" lon="6.50987">
        <ele>810</ele>
        <time>2019-06-11T17:52:54Z</time>
      </trkpt>
      <trkpt lat="46.31472" lon="6.50994">
        <ele>810</ele>
        <time>2019-06-11T17:52:57Z</time>
      </trkpt>
      <trkpt lat="46.31529" lon="6.51023">
        <ele>811</ele>
        <time>2019-06-11T17:53:08Z</time>
      </trkpt>
      <trkpt lat="46.31559" lon="6.51047">
        <ele>813</ele>
        <time>2019-06-11T17:53:14Z</time>
      </trkpt>
      <trkpt lat="46.31566" lon="6.51049">
        <ele>813</ele>
        <time>2019-06-11T17:53:15Z</time>
      </trkpt>
      <trkpt lat="46.31573" lon="6.51068">
        <ele>815</ele>
        <time>2019-06-11T17:53:18Z</time>
      </trkpt>
      <trkpt lat="46.31595" lon="6.51095">
        <ele>816</ele>
        <time>2019-06-11T17:53:23Z</time>
      </trkpt>
      <trkpt lat="46.31624" lon="6.51146">
        <ele>820</ele>
        <time>2019-06-11T17:53:31Z</time>
      </trkpt>
      <trkpt lat="46.31633" lon="6.51157">
        <ele>821</ele>
        <time>2019-06-11T17:53:33Z</time>
      </trkpt>
      <trkpt lat="46.31641" lon="6.51165">
        <ele>821</ele>
        <time>2019-06-11T17:53:35Z</time>
      </trkpt>
      <trkpt lat="46.317" lon="6.51201">
        <ele>826</ele>
        <time>2019-06-11T17:53:46Z</time>
      </trkpt>
      <trkpt lat="46.31745" lon="6.51232">
        <ele>831</ele>
        <time>2019-06-11T17:53:55Z</time>
      </trkpt>
      <trkpt lat="46.3178" lon="6.51248">
        <ele>833</ele>
        <time>2019-06-11T17:54:02Z</time>
      </trkpt>
      <trkpt lat="46.31814" lon="6.51274">
        <ele>838</ele>
        <time>2019-06-11T17:54:09Z</time>
      </trkpt>
      <trkpt lat="46.31849" lon="6.51285">
        <ele>839</ele>
        <time>2019-06-11T17:54:15Z</time>
      </trkpt>
      <trkpt lat="46.3186" lon="6.51293">
        <ele>840</ele>
        <time>2019-06-11T17:54:17Z</time>
      </trkpt>
      <trkpt lat="46.31888" lon="6.51323">
        <ele>846</ele>
        <time>2019-06-11T17:54:23Z</time>
      </trkpt>
      <trkpt lat="46.31943" lon="6.51357">
        <ele>848</ele>
        <time>2019-06-11T17:54:34Z</time>
      </trkpt>
      <trkpt lat="46.31957" lon="6.51373">
        <ele>849</ele>
        <time>2019-06-11T17:54:37Z</time>
      </trkpt>
      <trkpt lat="46.31981" lon="6.51412">
        <ele>852</ele>
        <time>2019-06-11T17:54:44Z</time>
      </trkpt>
      <trkpt lat="46.31992" lon="6.51443">
        <ele>856</ele>
        <time>2019-06-11T17:54:48Z</time>
      </trkpt>
      <trkpt lat="46.31999" lon="6.51454">
        <ele>857</ele>
        <time>2019-06-11T17:54:50Z</time>
      </trkpt>
      <trkpt lat="46.32042" lon="6.51483">
        <ele>854</ele>
        <time>2019-06-11T17:54:58Z</time>
      </trkpt>
      <trkpt lat="46.32058" lon="6.51501">
        <ele>854</ele>
        <time>2019-06-11T17:55:02Z</time>
      </trkpt>
      <trkpt lat="46.32067" lon="6.51516">
        <ele>854</ele>
        <time>2019-06-11T17:55:04Z</time>
      </trkpt>
      <trkpt lat="46.32072" lon="6.51536">
        <ele>856</ele>
        <time>2019-06-11T17:55:07Z</time>
      </trkpt>
      <trkpt lat="46.32076" lon="6.51553">
        <ele>857</ele>
        <time>2019-06-11T17:55:09Z</time>
      </trkpt>
      <trkpt lat="46.32064" lon="6.5155">
        <ele>859</ele>
        <time>2019-06-11T17:55:11Z</time>
      </trkpt>
      <trkpt lat="46.32056" lon="6.51543">
        <ele>860</ele>
        <time>2019-06-11T17:55:13Z</time>
      </trkpt>
      <trkpt lat="46.3204" lon="6.5151">
        <ele>859</ele>
        <time>2019-06-11T17:55:18Z</time>
      </trkpt>
      <trkpt lat="46.32034" lon="6.51503">
        <ele>859</ele>
        <time>2019-06-11T17:55:19Z</time>
      </trkpt>
      <trkpt lat="46.32025" lon="6.51498">
        <ele>861</ele>
        <time>2019-06-11T17:55:21Z</time>
      </trkpt>
      <trkpt lat="46.32009" lon="6.51497">
        <ele>864</ele>
        <time>2019-06-11T17:55:24Z</time>
      </trkpt>
      <trkpt lat="46.31991" lon="6.515">
        <ele>867</ele>
        <time>2019-06-11T17:55:27Z</time>
      </trkpt>
      <trkpt lat="46.31985" lon="6.51509">
        <ele>869</ele>
        <time>2019-06-11T17:55:29Z</time>
      </trkpt>
      <trkpt lat="46.31983" lon="6.51516">
        <ele>870</ele>
        <time>2019-06-11T17:55:30Z</time>
      </trkpt>
      <trkpt lat="46.31982" lon="6.51527">
        <ele>871</ele>
        <time>2019-06-11T17:55:31Z</time>
      </trkpt>
      <trkpt lat="46.31983" lon="6.51529">
        <ele>871</ele>
        <time>2019-06-11T17:55:31Z</time>
      </trkpt>
      <trkpt lat="46.32007" lon="6.51552">
        <ele>870</ele>
        <time>2019-06-11T17:55:36Z</time>
      </trkpt>
      <trkpt lat="46.32011" lon="6.51558">
        <ele>870</ele>
        <time>2019-06-11T17:55:37Z</time>
      </trkpt>
      <trkpt lat="46.32023" lon="6.51592">
        <ele>872</ele>
        <time>2019-06-11T17:55:42Z</time>
      </trkpt>
      <trkpt lat="46.32109" lon="6.51738">
        <ele>873</ele>
        <time>2019-06-11T17:56:06Z</time>
      </trkpt>
      <trkpt lat="46.32121" lon="6.51764">
        <ele>872</ele>
        <time>2019-06-11T17:56:09Z</time>
      </trkpt>
      <trkpt lat="46.32125" lon="6.51777">
        <ele>872</ele>
        <time>2019-06-11T17:56:11Z</time>
      </trkpt>
      <trkpt lat="46.32127" lon="6.51792">
        <ele>873</ele>
        <time>2019-06-11T17:56:13Z</time>
      </trkpt>
      <trkpt lat="46.32125" lon="6.51883">
        <ele>879</ele>
        <time>2019-06-11T17:56:24Z</time>
      </trkpt>
      <trkpt lat="46.32127" lon="6.51901">
        <ele>879</ele>
        <time>2019-06-11T17:56:27Z</time>
      </trkpt>
      <trkpt lat="46.32131" lon="6.51912">
        <ele>879</ele>
        <time>2019-06-11T17:56:28Z</time>
      </trkpt>
      <trkpt lat="46.32149" lon="6.51919">
        <ele>875</ele>
        <time>2019-06-11T17:56:31Z</time>
      </trkpt>
      <trkpt lat="46.32158" lon="6.51901">
        <ele>871</ele>
        <time>2019-06-11T17:56:34Z</time>
      </trkpt>
      <trkpt lat="46.32166" lon="6.5185">
        <ele>867</ele>
        <time>2019-06-11T17:56:41Z</time>
      </trkpt>
      <trkpt lat="46.32166" lon="6.51789">
        <ele>862</ele>
        <time>2019-06-11T17:56:48Z</time>
      </trkpt>
      <trkpt lat="46.32174" lon="6.51814">
        <ele>863</ele>
        <time>2019-06-11T17:56:51Z</time>
      </trkpt>
      <trkpt lat="46.32216" lon="6.5187">
        <ele>857</ele>
        <time>2019-06-11T17:57:02Z</time>
      </trkpt>
      <trkpt lat="46.32252" lon="6.51924">
        <ele>854</ele>
        <time>2019-06-11T17:57:11Z</time>
      </trkpt>
      <trkpt lat="46.32278" lon="6.51957">
        <ele>854</ele>
        <time>2019-06-11T17:57:17Z</time>
      </trkpt>
      <trkpt lat="46.32293" lon="6.51972">
        <ele>853</ele>
        <time>2019-06-11T17:57:20Z</time>
      </trkpt>
      <trkpt lat="46.32307" lon="6.51982">
        <ele>852</ele>
        <time>2019-06-11T17:57:23Z</time>
      </trkpt>
      <trkpt lat="46.32342" lon="6.51996">
        <ele>848</ele>
        <time>2019-06-11T17:57:29Z</time>
      </trkpt>
      <trkpt lat="46.32353" lon="6.51998">
        <ele>847</ele>
        <time>2019-06-11T17:57:31Z</time>
      </trkpt>
      <trkpt lat="46.32378" lon="6.52012">
        <ele>845</ele>
        <time>2019-06-11T17:57:36Z</time>
      </trkpt>
      <trkpt lat="46.32386" lon="6.52019">
        <ele>845</ele>
        <time>2019-06-11T17:57:38Z</time>
      </trkpt>
      <trkpt lat="46.32406" lon="6.52044">
        <ele>843</ele>
        <time>2019-06-11T17:57:43Z</time>
      </trkpt>
      <trkpt lat="46.3248" lon="6.52158">
        <ele>841</ele>
        <time>2019-06-11T17:58:02Z</time>
      </trkpt>
      <trkpt lat="46.32532" lon="6.52272">
        <ele>838</ele>
        <time>2019-06-11T17:58:19Z</time>
      </trkpt>
      <trkpt lat="46.32555" lon="6.52333">
        <ele>835</ele>
        <time>2019-06-11T17:58:27Z</time>
      </trkpt>
      <trkpt lat="46.32578" lon="6.52381">
        <ele>834</ele>
        <time>2019-06-11T17:58:34Z</time>
      </trkpt>
      <trkpt lat="46.32714" lon="6.52612">
        <ele>834</ele>
        <time>2019-06-11T17:59:12Z</time>
      </trkpt>
      <trkpt lat="46.32732" lon="6.52636">
        <ele>834</ele>
        <time>2019-06-11T17:59:16Z</time>
      </trkpt>
      <trkpt lat="46.32759" lon="6.52661">
        <ele>833</ele>
        <time>2019-06-11T17:59:22Z</time>
      </trkpt>
      <trkpt lat="46.32877" lon="6.52754">
        <ele>826</ele>
        <time>2019-06-11T17:59:46Z</time>
      </trkpt>
      <trkpt lat="46.32922" lon="6.52768">
        <ele>823</ele>
        <time>2019-06-11T17:59:54Z</time>
      </trkpt>
      <trkpt lat="46.32936" lon="6.52777">
        <ele>822</ele>
        <time>2019-06-11T17:59:56Z</time>
      </trkpt>
      <trkpt lat="46.33045" lon="6.52869">
        <ele>819</ele>
        <time>2019-06-11T18:00:19Z</time>
      </trkpt>
      <trkpt lat="46.33107" lon="6.52908">
        <ele>816</ele>
        <time>2019-06-11T18:00:31Z</time>
      </trkpt>
      <trkpt lat="46.33258" lon="6.52994">
        <ele>811</ele>
        <time>2019-06-11T18:01:00Z</time>
      </trkpt>
      <trkpt lat="46.33313" lon="6.53034">
        <ele>809</ele>
        <time>2019-06-11T18:01:11Z</time>
      </trkpt>
      <trkpt lat="46.33325" lon="6.53039">
        <ele>808</ele>
        <time>2019-06-11T18:01:13Z</time>
      </trkpt>
      <trkpt lat="46.33337" lon="6.5303">
        <ele>804</ele>
        <time>2019-06-11T18:01:15Z</time>
      </trkpt>
      <trkpt lat="46.3334" lon="6.5302">
        <ele>802</ele>
        <time>2019-06-11T18:01:17Z</time>
      </trkpt>
      <trkpt lat="46.33339" lon="6.52994">
        <ele>798</ele>
        <time>2019-06-11T18:01:20Z</time>
      </trkpt>
      <trkpt lat="46.33335" lon="6.52967">
        <ele>795</ele>
        <time>2019-06-11T18:01:23Z</time>
      </trkpt>
      <trkpt lat="46.33316" lon="6.52871">
        <ele>787</ele>
        <time>2019-06-11T18:01:36Z</time>
      </trkpt>
      <trkpt lat="46.33311" lon="6.5284">
        <ele>784</ele>
        <time>2019-06-11T18:01:39Z</time>
      </trkpt>
      <trkpt lat="46.33308" lon="6.52788">
        <ele>780</ele>
        <time>2019-06-11T18:01:46Z</time>
      </trkpt>
      <trkpt lat="46.33302" lon="6.52723">
        <ele>774</ele>
        <time>2019-06-11T18:01:54Z</time>
      </trkpt>
      <trkpt lat="46.33303" lon="6.52705">
        <ele>772</ele>
        <time>2019-06-11T18:01:56Z</time>
      </trkpt>
      <trkpt lat="46.33312" lon="6.52683">
        <ele>769</ele>
        <time>2019-06-11T18:01:59Z</time>
      </trkpt>
      <trkpt lat="46.33321" lon="6.52674">
        <ele>768</ele>
        <time>2019-06-11T18:02:01Z</time>
      </trkpt>
      <trkpt lat="46.3333" lon="6.52669">
        <ele>766</ele>
        <time>2019-06-11T18:02:03Z</time>
      </trkpt>
      <trkpt lat="46.33341" lon="6.52669">
        <ele>765</ele>
        <time>2019-06-11T18:02:05Z</time>
      </trkpt>
      <trkpt lat="46.33393" lon="6.52683">
        <ele>761</ele>
        <time>2019-06-11T18:02:14Z</time>
      </trkpt>
      <trkpt lat="46.33435" lon="6.527">
        <ele>756</ele>
        <time>2019-06-11T18:02:22Z</time>
      </trkpt>
      <trkpt lat="46.33461" lon="6.5272">
        <ele>753</ele>
        <time>2019-06-11T18:02:27Z</time>
      </trkpt>
      <trkpt lat="46.33469" lon="6.52723">
        <ele>752</ele>
        <time>2019-06-11T18:02:29Z</time>
      </trkpt>
      <trkpt lat="46.33478" lon="6.52723">
        <ele>750</ele>
        <time>2019-06-11T18:02:30Z</time>
      </trkpt>
      <trkpt lat="46.33514" lon="6.52705">
        <ele>740</ele>
        <time>2019-06-11T18:02:37Z</time>
      </trkpt>
      <trkpt lat="46.33521" lon="6.52704">
        <ele>739</ele>
        <time>2019-06-11T18:02:38Z</time>
      </trkpt>
      <trkpt lat="46.33528" lon="6.52706">
        <ele>738</ele>
        <time>2019-06-11T18:02:40Z</time>
      </trkpt>
      <trkpt lat="46.33563" lon="6.52746">
        <ele>733</ele>
        <time>2019-06-11T18:02:48Z</time>
      </trkpt>
      <trkpt lat="46.33578" lon="6.52758">
        <ele>731</ele>
        <time>2019-06-11T18:02:51Z</time>
      </trkpt>
      <trkpt lat="46.33627" lon="6.52781">
        <ele>723</ele>
        <time>2019-06-11T18:03:00Z</time>
      </trkpt>
      <trkpt lat="46.33639" lon="6.52791">
        <ele>721</ele>
        <time>2019-06-11T18:03:02Z</time>
      </trkpt>
      <trkpt lat="46.33694" lon="6.52875">
        <ele>715</ele>
        <time>2019-06-11T18:03:17Z</time>
      </trkpt>
      <trkpt lat="46.33704" lon="6.52885">
        <ele>715</ele>
        <time>2019-06-11T18:03:19Z</time>
      </trkpt>
      <trkpt lat="46.33713" lon="6.52888">
        <ele>715</ele>
        <time>2019-06-11T18:03:20Z</time>
      </trkpt>
      <trkpt lat="46.3373" lon="6.52887">
        <ele>713</ele>
        <time>2019-06-11T18:03:23Z</time>
      </trkpt>
      <trkpt lat="46.33762" lon="6.52881">
        <ele>711</ele>
        <time>2019-06-11T18:03:29Z</time>
      </trkpt>
      <trkpt lat="46.3377" lon="6.52871">
        <ele>710</ele>
        <time>2019-06-11T18:03:31Z</time>
      </trkpt>
      <trkpt lat="46.33772" lon="6.52865">
        <ele>709</ele>
        <time>2019-06-11T18:03:32Z</time>
      </trkpt>
      <trkpt lat="46.33772" lon="6.52849">
        <ele>708</ele>
        <time>2019-06-11T18:03:34Z</time>
      </trkpt>
      <trkpt lat="46.3377" lon="6.5284">
        <ele>707</ele>
        <time>2019-06-11T18:03:35Z</time>
      </trkpt>
      <trkpt lat="46.33762" lon="6.52836">
        <ele>707</ele>
        <time>2019-06-11T18:03:36Z</time>
      </trkpt>
      <trkpt lat="46.33745" lon="6.5282">
        <ele>706</ele>
        <time>2019-06-11T18:03:40Z</time>
      </trkpt>
      <trkpt lat="46.33734" lon="6.52798">
        <ele>705</ele>
        <time>2019-06-11T18:03:43Z</time>
      </trkpt>
      <trkpt lat="46.33702" lon="6.52668">
        <ele>697</ele>
        <time>2019-06-11T18:04:00Z</time>
      </trkpt>
      <trkpt lat="46.33697" lon="6.52643">
        <ele>695</ele>
        <time>2019-06-11T18:04:04Z</time>
      </trkpt>
      <trkpt lat="46.33696" lon="6.52628">
        <ele>694</ele>
        <time>2019-06-11T18:04:05Z</time>
      </trkpt>
      <trkpt lat="46.33697" lon="6.5259">
        <ele>690</ele>
        <time>2019-06-11T18:04:10Z</time>
      </trkpt>
      <trkpt lat="46.33698" lon="6.52567">
        <ele>688</ele>
        <time>2019-06-11T18:04:13Z</time>
      </trkpt>
      <trkpt lat="46.33703" lon="6.52543">
        <ele>685</ele>
        <time>2019-06-11T18:04:16Z</time>
      </trkpt>
      <trkpt lat="46.33703" lon="6.52523">
        <ele>684</ele>
        <time>2019-06-11T18:04:18Z</time>
      </trkpt>
      <trkpt lat="46.33674" lon="6.52249">
        <ele>671</ele>
        <time>2019-06-11T18:04:52Z</time>
      </trkpt>
      <trkpt lat="46.33677" lon="6.52249">
        <ele>671</ele>
        <time>2019-06-11T18:04:53Z</time>
      </trkpt>
      <trkpt lat="46.33682" lon="6.52247">
        <ele>670</ele>
        <time>2019-06-11T18:04:54Z</time>
      </trkpt>
      <trkpt lat="46.33684" lon="6.52244">
        <ele>670</ele>
        <time>2019-06-11T18:04:54Z</time>
      </trkpt>
      <trkpt lat="46.33685" lon="6.52236">
        <ele>669</ele>
        <time>2019-06-11T18:04:55Z</time>
      </trkpt>
      <trkpt lat="46.33681" lon="6.52227">
        <ele>669</ele>
        <time>2019-06-11T18:04:57Z</time>
      </trkpt>
      <trkpt lat="46.33698" lon="6.5218">
        <ele>665</ele>
        <time>2019-06-11T18:05:03Z</time>
      </trkpt>
      <trkpt lat="46.33704" lon="6.52169">
        <ele>664</ele>
        <time>2019-06-11T18:05:05Z</time>
      </trkpt>
      <trkpt lat="46.3371" lon="6.52162">
        <ele>664</ele>
        <time>2019-06-11T18:05:06Z</time>
      </trkpt>
      <trkpt lat="46.33723" lon="6.52152">
        <ele>663</ele>
        <time>2019-06-11T18:05:09Z</time>
      </trkpt>
      <trkpt lat="46.3373" lon="6.52149">
        <ele>663</ele>
        <time>2019-06-11T18:05:10Z</time>
      </trkpt>
      <trkpt lat="46.33741" lon="6.52129">
        <ele>662</ele>
        <time>2019-06-11T18:05:13Z</time>
      </trkpt>
      <trkpt lat="46.33746" lon="6.52127">
        <ele>662</ele>
        <time>2019-06-11T18:05:14Z</time>
      </trkpt>
      <trkpt lat="46.33753" lon="6.52129">
        <ele>661</ele>
        <time>2019-06-11T18:05:16Z</time>
      </trkpt>
      <trkpt lat="46.33756" lon="6.52127">
        <ele>661</ele>
        <time>2019-06-11T18:05:16Z</time>
      </trkpt>
      <trkpt lat="46.33769" lon="6.52108">
        <ele>659</ele>
        <time>2019-06-11T18:05:19Z</time>
      </trkpt>
      <trkpt lat="46.33784" lon="6.52077">
        <ele>656</ele>
        <time>2019-06-11T18:05:24Z</time>
      </trkpt>
      <trkpt lat="46.3379" lon="6.52068">
        <ele>655</ele>
        <time>2019-06-11T18:05:26Z</time>
      </trkpt>
      <trkpt lat="46.33802" lon="6.52058">
        <ele>653</ele>
        <time>2019-06-11T18:05:28Z</time>
      </trkpt>
      <trkpt lat="46.33836" lon="6.52045">
        <ele>648</ele>
        <time>2019-06-11T18:05:34Z</time>
      </trkpt>
      <trkpt lat="46.33848" lon="6.52035">
        <ele>647</ele>
        <time>2019-06-11T18:05:37Z</time>
      </trkpt>
      <trkpt lat="46.33916" lon="6.51944">
        <ele>636</ele>
        <time>2019-06-11T18:05:53Z</time>
      </trkpt>
      <trkpt lat="46.3399" lon="6.5186">
        <ele>631</ele>
        <time>2019-06-11T18:06:10Z</time>
      </trkpt>
      <trkpt lat="46.34008" lon="6.51833">
        <ele>630</ele>
        <time>2019-06-11T18:06:15Z</time>
      </trkpt>
      <trkpt lat="46.34014" lon="6.51816">
        <ele>630</ele>
        <time>2019-06-11T18:06:17Z</time>
      </trkpt>
      <trkpt lat="46.34014" lon="6.51795">
        <ele>630</ele>
        <time>2019-06-11T18:06:20Z</time>
      </trkpt>
      <trkpt lat="46.34018" lon="6.51768">
        <ele>629</ele>
        <time>2019-06-11T18:06:23Z</time>
      </trkpt>
      <trkpt lat="46.34023" lon="6.51749">
        <ele>629</ele>
        <time>2019-06-11T18:06:25Z</time>
      </trkpt>
      <trkpt lat="46.34052" lon="6.51694">
        <ele>628</ele>
        <time>2019-06-11T18:06:34Z</time>
      </trkpt>
      <trkpt lat="46.34067" lon="6.51671">
        <ele>629</ele>
        <time>2019-06-11T18:06:38Z</time>
      </trkpt>
      <trkpt lat="46.34122" lon="6.51568">
        <ele>628</ele>
        <time>2019-06-11T18:06:54Z</time>
      </trkpt>
      <trkpt lat="46.34154" lon="6.51482">
        <ele>626</ele>
        <time>2019-06-11T18:07:06Z</time>
      </trkpt>
      <trkpt lat="46.34163" lon="6.51449">
        <ele>625</ele>
        <time>2019-06-11T18:07:10Z</time>
      </trkpt>
      <trkpt lat="46.34167" lon="6.5142">
        <ele>625</ele>
        <time>2019-06-11T18:07:14Z</time>
      </trkpt>
      <trkpt lat="46.34168" lon="6.51365">
        <ele>624</ele>
        <time>2019-06-11T18:07:21Z</time>
      </trkpt>
      <trkpt lat="46.34172" lon="6.51336">
        <ele>623</ele>
        <time>2019-06-11T18:07:24Z</time>
      </trkpt>
      <trkpt lat="46.34183" lon="6.51304">
        <ele>623</ele>
        <time>2019-06-11T18:07:29Z</time>
      </trkpt>
      <trkpt lat="46.34194" lon="6.51288">
        <ele>623</ele>
        <time>2019-06-11T18:07:31Z</time>
      </trkpt>
      <trkpt lat="46.34219" lon="6.51253">
        <ele>621</ele>
        <time>2019-06-11T18:07:38Z</time>
      </trkpt>
      <trkpt lat="46.3425" lon="6.51201">
        <ele>620</ele>
        <time>2019-06-11T18:07:46Z</time>
      </trkpt>
      <trkpt lat="46.34352" lon="6.51056">
        <ele>621</ele>
        <time>2019-06-11T18:08:11Z</time>
      </trkpt>
      <trkpt lat="46.34409" lon="6.50967">
        <ele>623</ele>
        <time>2019-06-11T18:08:26Z</time>
      </trkpt>
      <trkpt lat="46.3444" lon="6.50895">
        <ele>624</ele>
        <time>2019-06-11T18:08:37Z</time>
      </trkpt>
      <trkpt lat="46.34467" lon="6.50799">
        <ele>626</ele>
        <time>2019-06-11T18:08:50Z</time>
      </trkpt>
      <trkpt lat="46.34473" lon="6.5076">
        <ele>626</ele>
        <time>2019-06-11T18:08:54Z</time>
      </trkpt>
      <trkpt lat="46.34475" lon="6.50704">
        <ele>625</ele>
        <time>2019-06-11T18:09:01Z</time>
      </trkpt>
      <trkpt lat="46.34456" lon="6.50592">
        <ele>620</ele>
        <time>2019-06-11T18:09:16Z</time>
      </trkpt>
      <trkpt lat="46.34459" lon="6.50553">
        <ele>620</ele>
        <time>2019-06-11T18:09:20Z</time>
      </trkpt>
      <trkpt lat="46.34469" lon="6.50536">
        <ele>620</ele>
        <time>2019-06-11T18:09:23Z</time>
      </trkpt>
      <trkpt lat="46.34569" lon="6.50453">
        <ele>619</ele>
        <time>2019-06-11T18:09:44Z</time>
      </trkpt>
      <trkpt lat="46.34614" lon="6.50468">
        <ele>617</ele>
        <time>2019-06-11T18:09:52Z</time>
      </trkpt>
      <trkpt lat="46.34628" lon="6.50461">
        <ele>614</ele>
        <time>2019-06-11T18:09:54Z</time>
      </trkpt>
      <trkpt lat="46.34646" lon="6.50433">
        <ele>609</ele>
        <time>2019-06-11T18:09:59Z</time>
      </trkpt>
      <trkpt lat="46.34684" lon="6.50379">
        <ele>599</ele>
        <time>2019-06-11T18:10:09Z</time>
      </trkpt>
      <trkpt lat="46.34722" lon="6.50334">
        <ele>598</ele>
        <time>2019-06-11T18:10:17Z</time>
      </trkpt>
      <trkpt lat="46.3474" lon="6.50307">
        <ele>598</ele>
        <time>2019-06-11T18:10:22Z</time>
      </trkpt>
      <trkpt lat="46.3478" lon="6.5023">
        <ele>600</ele>
        <time>2019-06-11T18:10:34Z</time>
      </trkpt>
      <trkpt lat="46.34795" lon="6.50189">
        <ele>601</ele>
        <time>2019-06-11T18:10:39Z</time>
      </trkpt>
      <trkpt lat="46.34801" lon="6.50181">
        <ele>601</ele>
        <time>2019-06-11T18:10:41Z</time>
      </trkpt>
      <trkpt lat="46.34829" lon="6.50147">
        <ele>602</ele>
        <time>2019-06-11T18:10:47Z</time>
      </trkpt>
      <trkpt lat="46.34907" lon="6.50075">
        <ele>602</ele>
        <time>2019-06-11T18:11:04Z</time>
      </trkpt>
      <trkpt lat="46.34921" lon="6.50067">
        <ele>602</ele>
        <time>2019-06-11T18:11:07Z</time>
      </trkpt>
      <trkpt lat="46.35022" lon="6.50033">
        <ele>601</ele>
        <time>2019-06-11T18:11:25Z</time>
      </trkpt>
      <trkpt lat="46.35079" lon="6.50026">
        <ele>600</ele>
        <time>2019-06-11T18:11:35Z</time>
      </trkpt>
      <trkpt lat="46.35121" lon="6.50028">
        <ele>600</ele>
        <time>2019-06-11T18:11:43Z</time>
      </trkpt>
      <trkpt lat="46.35212" lon="6.50047">
        <ele>602</ele>
        <time>2019-06-11T18:11:59Z</time>
      </trkpt>
      <trkpt lat="46.35227" lon="6.50046">
        <ele>603</ele>
        <time>2019-06-11T18:12:02Z</time>
      </trkpt>
      <trkpt lat="46.3529" lon="6.50033">
        <ele>606</ele>
        <time>2019-06-11T18:12:13Z</time>
      </trkpt>
      <trkpt lat="46.35399" lon="6.50004">
        <ele>602</ele>
        <time>2019-06-11T18:12:33Z</time>
      </trkpt>
      <trkpt lat="46.35415" lon="6.50003">
        <ele>601</ele>
        <time>2019-06-11T18:12:36Z</time>
      </trkpt>
      <trkpt lat="46.35475" lon="6.50022">
        <ele>593</ele>
        <time>2019-06-11T18:12:47Z</time>
      </trkpt>
      <trkpt lat="46.35538" lon="6.50046">
        <ele>586</ele>
        <time>2019-06-11T18:12:58Z</time>
      </trkpt>
      <trkpt lat="46.35553" lon="6.50059">
        <ele>585</ele>
        <time>2019-06-11T18:13:01Z</time>
      </trkpt>
      <trkpt lat="46.35579" lon="6.50084">
        <ele>583</ele>
        <time>2019-06-11T18:13:07Z</time>
      </trkpt>
      <trkpt lat="46.35591" lon="6.5009">
        <ele>582</ele>
        <time>2019-06-11T18:13:09Z</time>
      </trkpt>
      <trkpt lat="46.35604" lon="6.50092">
        <ele>581</ele>
        <time>2019-06-11T18:13:11Z</time>
      </trkpt>
      <trkpt lat="46.35638" lon="6.50082">
        <ele>575</ele>
        <time>2019-06-11T18:13:18Z</time>
      </trkpt>
      <trkpt lat="46.35725" lon="6.50023">
        <ele>569</ele>
        <time>2019-06-11T18:13:35Z</time>
      </trkpt>
      <trkpt lat="46.35775" lon="6.4998">
        <ele>565</ele>
        <time>2019-06-11T18:13:45Z</time>
      </trkpt>
      <trkpt lat="46.35787" lon="6.49974">
        <ele>563</ele>
        <time>2019-06-11T18:13:47Z</time>
      </trkpt>
      <trkpt lat="46.35818" lon="6.49969">
        <ele>559</ele>
        <time>2019-06-11T18:13:53Z</time>
      </trkpt>
      <trkpt lat="46.35822" lon="6.49964">
        <ele>558</ele>
        <time>2019-06-11T18:13:54Z</time>
      </trkpt>
      <trkpt lat="46.35826" lon="6.49948">
        <ele>555</ele>
        <time>2019-06-11T18:13:56Z</time>
      </trkpt>
      <trkpt lat="46.35824" lon="6.49905">
        <ele>550</ele>
        <time>2019-06-11T18:14:01Z</time>
      </trkpt>
      <trkpt lat="46.35833" lon="6.49821">
        <ele>538</ele>
        <time>2019-06-11T18:14:12Z</time>
      </trkpt>
      <trkpt lat="46.35846" lon="6.4978">
        <ele>533</ele>
        <time>2019-06-11T18:14:17Z</time>
      </trkpt>
      <trkpt lat="46.3586" lon="6.49729">
        <ele>526</ele>
        <time>2019-06-11T18:14:24Z</time>
      </trkpt>
      <trkpt lat="46.3586" lon="6.49714">
        <ele>524</ele>
        <time>2019-06-11T18:14:26Z</time>
      </trkpt>
      <trkpt lat="46.3589" lon="6.49658">
        <ele>519</ele>
        <time>2019-06-11T18:14:34Z</time>
      </trkpt>
      <trkpt lat="46.35898" lon="6.49652">
        <ele>519</ele>
        <time>2019-06-11T18:14:36Z</time>
      </trkpt>
      <trkpt lat="46.35915" lon="6.49647">
        <ele>520</ele>
        <time>2019-06-11T18:14:39Z</time>
      </trkpt>
      <trkpt lat="46.35913" lon="6.4962">
        <ele>517</ele>
        <time>2019-06-11T18:14:42Z</time>
      </trkpt>
      <trkpt lat="46.35918" lon="6.49598">
        <ele>516</ele>
        <time>2019-06-11T18:14:45Z</time>
      </trkpt>
      <trkpt lat="46.35957" lon="6.49521">
        <ele>516</ele>
        <time>2019-06-11T18:14:57Z</time>
      </trkpt>
      <trkpt lat="46.3599" lon="6.49463">
        <ele>516</ele>
        <time>2019-06-11T18:15:06Z</time>
      </trkpt>
      <trkpt lat="46.36002" lon="6.49438">
        <ele>515</ele>
        <time>2019-06-11T18:15:10Z</time>
      </trkpt>
      <trkpt lat="46.36011" lon="6.49413">
        <ele>514</ele>
        <time>2019-06-11T18:15:13Z</time>
      </trkpt>
      <trkpt lat="46.36028" lon="6.49276">
        <ele>505</ele>
        <time>2019-06-11T18:15:30Z</time>
      </trkpt>
      <trkpt lat="46.36041" lon="6.49188">
        <ele>499</ele>
        <time>2019-06-11T18:15:42Z</time>
      </trkpt>
      <trkpt lat="46.36051" lon="6.49164">
        <ele>498</ele>
        <time>2019-06-11T18:15:45Z</time>
      </trkpt>
      <trkpt lat="46.3606" lon="6.49151">
        <ele>497</ele>
        <time>2019-06-11T18:15:47Z</time>
      </trkpt>
      <trkpt lat="46.36082" lon="6.49137">
        <ele>498</ele>
        <time>2019-06-11T18:15:52Z</time>
      </trkpt>
      <trkpt lat="46.36097" lon="6.49136">
        <ele>496</ele>
        <time>2019-06-11T18:15:54Z</time>
      </trkpt>
      <trkpt lat="46.36117" lon="6.49139">
        <ele>494</ele>
        <time>2019-06-11T18:15:58Z</time>
      </trkpt>
      <trkpt lat="46.36134" lon="6.49148">
        <ele>492</ele>
        <time>2019-06-11T18:16:01Z</time>
      </trkpt>
      <trkpt lat="46.36146" lon="6.49164">
        <ele>491</ele>
        <time>2019-06-11T18:16:04Z</time>
      </trkpt>
      <trkpt lat="46.36158" lon="6.4919">
        <ele>491</ele>
        <time>2019-06-11T18:16:08Z</time>
      </trkpt>
      <trkpt lat="46.36184" lon="6.49266">
        <ele>495</ele>
        <time>2019-06-11T18:16:18Z</time>
      </trkpt>
      <trkpt lat="46.36195" lon="6.49283">
        <ele>494</ele>
        <time>2019-06-11T18:16:21Z</time>
      </trkpt>
      <trkpt lat="46.36205" lon="6.49294">
        <ele>492</ele>
        <time>2019-06-11T18:16:23Z</time>
      </trkpt>
      <trkpt lat="46.36204" lon="6.49305">
        <ele>493</ele>
        <time>2019-06-11T18:16:25Z</time>
      </trkpt>
      <trkpt lat="46.36207" lon="6.49317">
        <ele>493</ele>
        <time>2019-06-11T18:16:26Z</time>
      </trkpt>
      <trkpt lat="46.36213" lon="6.49324">
        <ele>492</ele>
        <time>2019-06-11T18:16:28Z</time>
      </trkpt>
      <trkpt lat="46.36217" lon="6.49325">
        <ele>491</ele>
        <time>2019-06-11T18:16:28Z</time>
      </trkpt>
      <trkpt lat="46.36217" lon="6.49341">
        <ele>491</ele>
        <time>2019-06-11T18:16:30Z</time>
      </trkpt>
      <trkpt lat="46.3622" lon="6.49358">
        <ele>491</ele>
        <time>2019-06-11T18:16:32Z</time>
      </trkpt>
      <trkpt lat="46.36247" lon="6.4945">
        <ele>484</ele>
        <time>2019-06-11T18:16:45Z</time>
      </trkpt>
      <trkpt lat="46.36251" lon="6.49546">
        <ele>483</ele>
        <time>2019-06-11T18:16:56Z</time>
      </trkpt>
      <trkpt lat="46.36254" lon="6.49563">
        <ele>483</ele>
        <time>2019-06-11T18:16:59Z</time>
      </trkpt>
      <trkpt lat="46.3626" lon="6.49575">
        <ele>483</ele>
        <time>2019-06-11T18:17:00Z</time>
      </trkpt>
      <trkpt lat="46.36269" lon="6.49584">
        <ele>482</ele>
        <time>2019-06-11T18:17:02Z</time>
      </trkpt>
      <trkpt lat="46.36274" lon="6.49587">
        <ele>482</ele>
        <time>2019-06-11T18:17:03Z</time>
      </trkpt>
      <trkpt lat="46.36307" lon="6.49591">
        <ele>480</ele>
        <time>2019-06-11T18:17:09Z</time>
      </trkpt>
      <trkpt lat="46.36323" lon="6.49597">
        <ele>479</ele>
        <time>2019-06-11T18:17:12Z</time>
      </trkpt>
      <trkpt lat="46.36373" lon="6.49638">
        <ele>478</ele>
        <time>2019-06-11T18:17:22Z</time>
      </trkpt>
      <trkpt lat="46.36395" lon="6.49666">
        <ele>478</ele>
        <time>2019-06-11T18:17:28Z</time>
      </trkpt>
      <trkpt lat="46.36412" lon="6.49691">
        <ele>478</ele>
        <time>2019-06-11T18:17:32Z</time>
      </trkpt>
      <trkpt lat="46.36428" lon="6.49738">
        <ele>480</ele>
        <time>2019-06-11T18:17:38Z</time>
      </trkpt>
      <trkpt lat="46.36436" lon="6.49747">
        <ele>479</ele>
        <time>2019-06-11T18:17:40Z</time>
      </trkpt>
      <trkpt lat="46.36445" lon="6.49751">
        <ele>478</ele>
        <time>2019-06-11T18:17:42Z</time>
      </trkpt>
      <trkpt lat="46.36456" lon="6.4975">
        <ele>475</ele>
        <time>2019-06-11T18:17:44Z</time>
      </trkpt>
      <trkpt lat="46.36508" lon="6.49722">
        <ele>466</ele>
        <time>2019-06-11T18:17:54Z</time>
      </trkpt>
      <trkpt lat="46.3654" lon="6.49691">
        <ele>466</ele>
        <time>2019-06-11T18:18:01Z</time>
      </trkpt>
      <trkpt lat="46.36549" lon="6.49684">
        <ele>467</ele>
        <time>2019-06-11T18:18:02Z</time>
      </trkpt>
      <trkpt lat="46.36565" lon="6.49676">
        <ele>469</ele>
        <time>2019-06-11T18:18:05Z</time>
      </trkpt>
      <trkpt lat="46.36582" lon="6.49675">
        <ele>470</ele>
        <time>2019-06-11T18:18:08Z</time>
      </trkpt>
      <trkpt lat="46.36633" lon="6.49688">
        <ele>461</ele>
        <time>2019-06-11T18:18:18Z</time>
      </trkpt>
      <trkpt lat="46.36647" lon="6.49687">
        <ele>460</ele>
        <time>2019-06-11T18:18:20Z</time>
      </trkpt>
      <trkpt lat="46.36662" lon="6.49679">
        <ele>459</ele>
        <time>2019-06-11T18:18:23Z</time>
      </trkpt>
      <trkpt lat="46.36689" lon="6.49656">
        <ele>458</ele>
        <time>2019-06-11T18:18:28Z</time>
      </trkpt>
      <trkpt lat="46.36717" lon="6.49629">
        <ele>457</ele>
        <time>2019-06-11T18:18:34Z</time>
      </trkpt>
      <trkpt lat="46.36777" lon="6.49549">
        <ele>455</ele>
        <time>2019-06-11T18:18:49Z</time>
      </trkpt>
      <trkpt lat="46.36789" lon="6.49531">
        <ele>454</ele>
        <time>2019-06-11T18:18:52Z</time>
      </trkpt>
      <trkpt lat="46.3682" lon="6.49467">
        <ele>451</ele>
        <time>2019-06-11T18:19:02Z</time>
      </trkpt>
      <trkpt lat="46.36856" lon="6.49408">
        <ele>450</ele>
        <time>2019-06-11T18:19:11Z</time>
      </trkpt>
      <trkpt lat="46.36882" lon="6.49373">
        <ele>448</ele>
        <time>2019-06-11T18:19:18Z</time>
      </trkpt>
      <trkpt lat="46.36897" lon="6.49346">
        <ele>447</ele>
        <time>2019-06-11T18:19:22Z</time>
      </trkpt>
      <trkpt lat="46.3692" lon="6.4928">
        <ele>446</ele>
        <time>2019-06-11T18:19:31Z</time>
      </trkpt>
      <trkpt lat="46.36935" lon="6.49254">
        <ele>445</ele>
        <time>2019-06-11T18:19:35Z</time>
      </trkpt>
      <trkpt lat="46.36949" lon="6.49236">
        <ele>445</ele>
        <time>2019-06-11T18:19:38Z</time>
      </trkpt>
      <trkpt lat="46.36984" lon="6.49207">
        <ele>445</ele>
        <time>2019-06-11T18:19:46Z</time>
      </trkpt>
      <trkpt lat="46.37011" lon="6.49174">
        <ele>446</ele>
        <time>2019-06-11T18:19:52Z</time>
      </trkpt>
      <trkpt lat="46.37021" lon="6.49155">
        <ele>446</ele>
        <time>2019-06-11T18:19:55Z</time>
      </trkpt>
      <trkpt lat="46.37028" lon="6.49137">
        <ele>446</ele>
        <time>2019-06-11T18:19:57Z</time>
      </trkpt>
      <trkpt lat="46.37037" lon="6.49123">
        <ele>446</ele>
        <time>2019-06-11T18:20:00Z</time>
      </trkpt>
      <trkpt lat="46.37049" lon="6.49117">
        <ele>444</ele>
        <time>2019-06-11T18:20:02Z</time>
      </trkpt>
      <trkpt lat="46.3705" lon="6.49121">
        <ele>444</ele>
        <time>2019-06-11T18:20:03Z</time>
      </trkpt>
      <trkpt lat="46.37054" lon="6.49128">
        <ele>443</ele>
        <time>2019-06-11T18:20:04Z</time>
      </trkpt>
      <trkpt lat="46.37057" lon="6.4913">
        <ele>442</ele>
        <time>2019-06-11T18:20:04Z</time>
      </trkpt>
      <trkpt lat="46.37063" lon="6.4913">
        <ele>441</ele>
        <time>2019-06-11T18:20:05Z</time>
      </trkpt>
      <trkpt lat="46.37068" lon="6.49125">
        <ele>440</ele>
        <time>2019-06-11T18:20:06Z</time>
      </trkpt>
      <trkpt lat="46.37083" lon="6.49145">
        <ele>438</ele>
        <time>2019-06-11T18:20:10Z</time>
      </trkpt>
      <trkpt lat="46.37135" lon="6.49242">
        <ele>438</ele>
        <time>2019-06-11T18:20:25Z</time>
      </trkpt>
      <trkpt lat="46.3716" lon="6.49297">
        <ele>438</ele>
        <time>2019-06-11T18:20:33Z</time>
      </trkpt>
      <trkpt lat="46.3717" lon="6.49334">
        <ele>438</ele>
        <time>2019-06-11T18:20:38Z</time>
      </trkpt>
      <trkpt lat="46.3718" lon="6.49387">
        <ele>437</ele>
        <time>2019-06-11T18:20:45Z</time>
      </trkpt>
      <trkpt lat="46.37187" lon="6.49447">
        <ele>437</ele>
        <time>2019-06-11T18:20:52Z</time>
      </trkpt>
      <trkpt lat="46.37183" lon="6.49451">
        <ele>437</ele>
        <time>2019-06-11T18:20:53Z</time>
      </trkpt>
      <trkpt lat="46.37182" lon="6.49457">
        <ele>437</ele>
        <time>2019-06-11T18:20:54Z</time>
      </trkpt>
      <trkpt lat="46.37185" lon="6.49462">
        <ele>437</ele>
        <time>2019-06-11T18:20:55Z</time>
      </trkpt>
      <trkpt lat="46.37189" lon="6.49462">
        <ele>437</ele>
        <time>2019-06-11T18:20:55Z</time>
      </trkpt>
      <trkpt lat="46.37209" lon="6.49561">
        <ele>438</ele>
        <time>2019-06-11T18:21:08Z</time>
      </trkpt>
      <trkpt lat="46.37244" lon="6.49604">
        <ele>437</ele>
        <time>2019-06-11T18:21:16Z</time>
      </trkpt>
      <trkpt lat="46.37278" lon="6.49648">
        <ele>434</ele>
        <time>2019-06-11T18:21:24Z</time>
      </trkpt>
      <trkpt lat="46.37311" lon="6.49724">
        <ele>432</ele>
        <time>2019-06-11T18:21:35Z</time>
      </trkpt>
      <trkpt lat="46.37323" lon="6.49743">
        <ele>431</ele>
        <time>2019-06-11T18:21:39Z</time>
      </trkpt>
      <trkpt lat="46.37344" lon="6.49774">
        <ele>430</ele>
        <time>2019-06-11T18:21:44Z</time>
      </trkpt>
      <trkpt lat="46.37431" lon="6.49878">
        <ele>428</ele>
        <time>2019-06-11T18:22:04Z</time>
      </trkpt>
      <trkpt lat="46.37463" lon="6.49928">
        <ele>427</ele>
        <time>2019-06-11T18:22:12Z</time>
      </trkpt>
      <trkpt lat="46.37479" lon="6.49946">
        <ele>425</ele>
        <time>2019-06-11T18:22:16Z</time>
      </trkpt>
      <trkpt lat="46.37487" lon="6.49951">
        <ele>425</ele>
        <time>2019-06-11T18:22:17Z</time>
      </trkpt>
      <trkpt lat="46.37505" lon="6.49959">
        <ele>423</ele>
        <time>2019-06-11T18:22:21Z</time>
      </trkpt>
      <trkpt lat="46.37523" lon="6.4996">
        <ele>422</ele>
        <time>2019-06-11T18:22:24Z</time>
      </trkpt>
      <trkpt lat="46.37582" lon="6.49944">
        <ele>421</ele>
        <time>2019-06-11T18:22:35Z</time>
      </trkpt>
      <trkpt lat="46.37605" lon="6.49944">
        <ele>421</ele>
        <time>2019-06-11T18:22:39Z</time>
      </trkpt>
      <trkpt lat="46.37686" lon="6.49964">
        <ele>419</ele>
        <time>2019-06-11T18:22:53Z</time>
      </trkpt>
      <trkpt lat="46.37695" lon="6.49965">
        <ele>419</ele>
        <time>2019-06-11T18:22:55Z</time>
      </trkpt>
      <trkpt lat="46.37741" lon="6.49961">
        <ele>419</ele>
        <time>2019-06-11T18:23:03Z</time>
      </trkpt>
      <trkpt lat="46.37765" lon="6.49964">
        <ele>419</ele>
        <time>2019-06-11T18:23:07Z</time>
      </trkpt>
      <trkpt lat="46.37833" lon="6.49996">
        <ele>416</ele>
        <time>2019-06-11T18:23:20Z</time>
      </trkpt>
      <trkpt lat="46.37848" lon="6.50007">
        <ele>415</ele>
        <time>2019-06-11T18:23:23Z</time>
      </trkpt>
      <trkpt lat="46.37864" lon="6.50024">
        <ele>412</ele>
        <time>2019-06-11T18:23:27Z</time>
      </trkpt>
      <trkpt lat="46.37875" lon="6.5004">
        <ele>410</ele>
        <time>2019-06-11T18:23:30Z</time>
      </trkpt>
      <trkpt lat="46.37936" lon="6.50144">
        <ele>405</ele>
        <time>2019-06-11T18:23:46Z</time>
      </trkpt>
      <trkpt lat="46.37966" lon="6.50207">
        <ele>404</ele>
        <time>2019-06-11T18:23:56Z</time>
      </trkpt>
      <trkpt lat="46.37987" lon="6.50241">
        <ele>403</ele>
        <time>2019-06-11T18:24:01Z</time>
      </trkpt>
      <trkpt lat="46.37999" lon="6.50256">
        <ele>403</ele>
        <time>2019-06-11T18:24:04Z</time>
      </trkpt>
      <trkpt lat="46.38072" lon="6.50322">
        <ele>403</ele>
        <time>2019-06-11T18:24:19Z</time>
      </trkpt>
      <trkpt lat="46.38088" lon="6.50331">
        <ele>403</ele>
        <time>2019-06-11T18:24:22Z</time>
      </trkpt>
      <trkpt lat="46.38145" lon="6.50358">
        <ele>402</ele>
        <time>2019-06-11T18:24:33Z</time>
      </trkpt>
      <trkpt lat="46.38192" lon="6.50403">
        <ele>401</ele>
        <time>2019-06-11T18:24:43Z</time>
      </trkpt>
      <trkpt lat="46.38209" lon="6.50417">
        <ele>402</ele>
        <time>2019-06-11T18:24:47Z</time>
      </trkpt>
      <trkpt lat="46.38271" lon="6.50442">
        <ele>401</ele>
        <time>2019-06-11T18:24:58Z</time>
      </trkpt>
      <trkpt lat="46.38272" lon="6.50446">
        <ele>401</ele>
        <time>2019-06-11T18:24:59Z</time>
      </trkpt>
      <trkpt lat="46.38289" lon="6.50531">
        <ele>399</ele>
        <time>2019-06-11T18:25:09Z</time>
      </trkpt>
      <trkpt lat="46.38294" lon="6.50564">
        <ele>398</ele>
        <time>2019-06-11T18:25:14Z</time>
      </trkpt>
      <trkpt lat="46.38295" lon="6.5059">
        <ele>397</ele>
        <time>2019-06-11T18:25:17Z</time>
      </trkpt>
      <trkpt lat="46.38292" lon="6.50715">
        <ele>394</ele>
        <time>2019-06-11T18:25:32Z</time>
      </trkpt>
      <trkpt lat="46.38287" lon="6.50852">
        <ele>397</ele>
        <time>2019-06-11T18:25:49Z</time>
      </trkpt>
      <trkpt lat="46.38285" lon="6.50989">
        <ele>398</ele>
        <time>2019-06-11T18:26:06Z</time>
      </trkpt>
      <trkpt lat="46.38286" lon="6.51019">
        <ele>398</ele>
        <time>2019-06-11T18:26:09Z</time>
      </trkpt>
      <trkpt lat="46.3829" lon="6.51067">
        <ele>398</ele>
        <time>2019-06-11T18:26:15Z</time>
      </trkpt>
      <trkpt lat="46.38299" lon="6.51111">
        <ele>398</ele>
        <time>2019-06-11T18:26:21Z</time>
      </trkpt>
      <trkpt lat="46.38307" lon="6.51139">
        <ele>398</ele>
        <time>2019-06-11T18:26:25Z</time>
      </trkpt>
      <trkpt lat="46.38321" lon="6.51174">
        <ele>397</ele>
        <time>2019-06-11T18:26:30Z</time>
      </trkpt>
      <trkpt lat="46.38321" lon="6.51187">
        <ele>398</ele>
        <time>2019-06-11T18:26:31Z</time>
      </trkpt>
      <trkpt lat="46.38341" lon="6.51235">
        <ele>399</ele>
        <time>2019-06-11T18:26:38Z</time>
      </trkpt>
      <trkpt lat="46.38352" lon="6.51257">
        <ele>400</ele>
        <time>2019-06-11T18:26:42Z</time>
      </trkpt>
      <trkpt lat="46.38372" lon="6.51294">
        <ele>400</ele>
        <time>2019-06-11T18:26:47Z</time>
      </trkpt>
      <trkpt lat="46.38384" lon="6.51311">
        <ele>399</ele>
        <time>2019-06-11T18:26:50Z</time>
      </trkpt>
      <trkpt lat="46.38396" lon="6.51322">
        <ele>398</ele>
        <time>2019-06-11T18:26:53Z</time>
      </trkpt>
      <trkpt lat="46.38402" lon="6.51325">
        <ele>397</ele>
        <time>2019-06-11T18:26:54Z</time>
      </trkpt>
      <trkpt lat="46.38413" lon="6.51322">
        <ele>396</ele>
        <time>2019-06-11T18:26:56Z</time>
      </trkpt>
      <trkpt lat="46.38425" lon="6.51311">
        <ele>395</ele>
        <time>2019-06-11T18:26:58Z</time>
      </trkpt>
      <trkpt lat="46.3843" lon="6.5131">
        <ele>395</ele>
        <time>2019-06-11T18:26:59Z</time>
      </trkpt>
      <trkpt lat="46.38435" lon="6.51315">
        <ele>395</ele>
        <time>2019-06-11T18:27:00Z</time>
      </trkpt>
      <trkpt lat="46.38531" lon="6.51536">
        <ele>395</ele>
        <time>2019-06-11T18:27:33Z</time>
      </trkpt>
      <trkpt lat="46.38544" lon="6.51558">
        <ele>395</ele>
        <time>2019-06-11T18:27:36Z</time>
      </trkpt>
      <trkpt lat="46.38555" lon="6.51566">
        <ele>395</ele>
        <time>2019-06-11T18:27:38Z</time>
      </trkpt>
      <trkpt lat="46.38572" lon="6.51575">
        <ele>394</ele>
        <time>2019-06-11T18:27:41Z</time>
      </trkpt>
      <trkpt lat="46.38577" lon="6.51581">
        <ele>393</ele>
        <time>2019-06-11T18:27:43Z</time>
      </trkpt>
      <trkpt lat="46.38581" lon="6.51589">
        <ele>393</ele>
        <time>2019-06-11T18:27:44Z</time>
      </trkpt>
      <trkpt lat="46.38583" lon="6.51605">
        <ele>393</ele>
        <time>2019-06-11T18:27:46Z</time>
      </trkpt>
      <trkpt lat="46.38581" lon="6.51641">
        <ele>394</ele>
        <time>2019-06-11T18:27:50Z</time>
      </trkpt>
      <trkpt lat="46.38582" lon="6.51658">
        <ele>394</ele>
        <time>2019-06-11T18:27:52Z</time>
      </trkpt>
      <trkpt lat="46.38696" lon="6.51919">
        <ele>393</ele>
        <time>2019-06-11T18:28:30Z</time>
      </trkpt>
      <trkpt lat="46.38717" lon="6.51963">
        <ele>393</ele>
        <time>2019-06-11T18:28:37Z</time>
      </trkpt>
      <trkpt lat="46.38721" lon="6.51975">
        <ele>393</ele>
        <time>2019-06-11T18:28:38Z</time>
      </trkpt>
      <trkpt lat="46.3873" lon="6.52021">
        <ele>393</ele>
        <time>2019-06-11T18:28:44Z</time>
      </trkpt>
      <trkpt lat="46.38779" lon="6.52208">
        <ele>393</ele>
        <time>2019-06-11T18:29:09Z</time>
      </trkpt>
      <trkpt lat="46.38789" lon="6.52241">
        <ele>393</ele>
        <time>2019-06-11T18:29:13Z</time>
      </trkpt>
      <trkpt lat="46.388" lon="6.52269">
        <ele>394</ele>
        <time>2019-06-11T18:29:17Z</time>
      </trkpt>
      <trkpt lat="46.38809" lon="6.52285">
        <ele>394</ele>
        <time>2019-06-11T18:29:20Z</time>
      </trkpt>
      <trkpt lat="46.38821" lon="6.52301">
        <ele>392</ele>
        <time>2019-06-11T18:29:23Z</time>
      </trkpt>
      <trkpt lat="46.38882" lon="6.52372">
        <ele>388</ele>
        <time>2019-06-11T18:29:37Z</time>
      </trkpt>
      <trkpt lat="46.38896" lon="6.52386">
        <ele>388</ele>
        <time>2019-06-11T18:29:40Z</time>
      </trkpt>
      <trkpt lat="46.38922" lon="6.52406">
        <ele>386</ele>
        <time>2019-06-11T18:29:45Z</time>
      </trkpt>
      <trkpt lat="46.3894" lon="6.52428">
        <ele>386</ele>
        <time>2019-06-11T18:29:49Z</time>
      </trkpt>
      <trkpt lat="46.38925" lon="6.52453">
        <ele>386</ele>
        <time>2019-06-11T18:29:53Z</time>
      </trkpt>
      <trkpt lat="46.38902" lon="6.5247">
        <ele>388</ele>
        <time>2019-06-11T18:29:58Z</time>
      </trkpt>
      <trkpt lat="46.38894" lon="6.52473">
        <ele>389</ele>
        <time>2019-06-11T18:29:59Z</time>
      </trkpt>
      <trkpt lat="46.3888" lon="6.52475">
        <ele>390</ele>
        <time>2019-06-11T18:30:02Z</time>
      </trkpt>
      <trkpt lat="46.38872" lon="6.52478">
        <ele>390</ele>
        <time>2019-06-11T18:30:03Z</time>
      </trkpt>
      <trkpt lat="46.38864" lon="6.52487">
        <ele>391</ele>
        <time>2019-06-11T18:30:05Z</time>
      </trkpt>
      <trkpt lat="46.3886" lon="6.52497">
        <ele>392</ele>
        <time>2019-06-11T18:30:06Z</time>
      </trkpt>
      <trkpt lat="46.38859" lon="6.5251">
        <ele>392</ele>
        <time>2019-06-11T18:30:08Z</time>
      </trkpt>
      <trkpt lat="46.3886" lon="6.52522">
        <ele>392</ele>
        <time>2019-06-11T18:30:10Z</time>
      </trkpt>
      <trkpt lat="46.38865" lon="6.52531">
        <ele>392</ele>
        <time>2019-06-11T18:30:11Z</time>
      </trkpt>
      <trkpt lat="46.38889" lon="6.52558">
        <ele>391</ele>
        <time>2019-06-11T18:30:16Z</time>
      </trkpt>
      <trkpt lat="46.38909" lon="6.52602">
        <ele>391</ele>
        <time>2019-06-11T18:30:23Z</time>
      </trkpt>
      <trkpt lat="46.3892" lon="6.52619">
        <ele>391</ele>
        <time>2019-06-11T18:30:26Z</time>
      </trkpt>
      <trkpt lat="46.3899" lon="6.52699">
        <ele>387</ele>
        <time>2019-06-11T18:30:42Z</time>
      </trkpt>
      <trkpt lat="46.39003" lon="6.52716">
        <ele>387</ele>
        <time>2019-06-11T18:30:45Z</time>
      </trkpt>
      <trkpt lat="46.39019" lon="6.52744">
        <ele>386</ele>
        <time>2019-06-11T18:30:49Z</time>
      </trkpt>
      <trkpt lat="46.39031" lon="6.52753">
        <ele>386</ele>
        <time>2019-06-11T18:30:52Z</time>
      </trkpt>
      <trkpt lat="46.39052" lon="6.5276">
        <ele>386</ele>
        <time>2019-06-11T18:30:55Z</time>
      </trkpt>
      <trkpt lat="46.39055" lon="6.52765">
        <ele>386</ele>
        <time>2019-06-11T18:30:56Z</time>
      </trkpt>
      <trkpt lat="46.39061" lon="6.52783">
        <ele>386</ele>
        <time>2019-06-11T18:30:59Z</time>
      </trkpt>
      <trkpt lat="46.39078" lon="6.52859">
        <ele>387</ele>
        <time>2019-06-11T18:31:08Z</time>
      </trkpt>
      <trkpt lat="46.3909" lon="6.52931">
        <ele>386</ele>
        <time>2019-06-11T18:31:17Z</time>
      </trkpt>
      <trkpt lat="46.39098" lon="6.52999">
        <ele>384</ele>
        <time>2019-06-11T18:31:26Z</time>
      </trkpt>
      <trkpt lat="46.39117" lon="6.53097">
        <ele>386</ele>
        <time>2019-06-11T18:31:38Z</time>
      </trkpt>
      <trkpt lat="46.39133" lon="6.53151">
        <ele>386</ele>
        <time>2019-06-11T18:31:46Z</time>
      </trkpt>
      <trkpt lat="46.39148" lon="6.53193">
        <ele>386</ele>
        <time>2019-06-11T18:31:51Z</time>
      </trkpt>
      <trkpt lat="46.39236" lon="6.53368">
        <ele>382</ele>
        <time>2019-06-11T18:32:18Z</time>
      </trkpt>
      <trkpt lat="46.39257" lon="6.53421">
        <ele>381</ele>
        <time>2019-06-11T18:32:26Z</time>
      </trkpt>
      <trkpt lat="46.3927" lon="6.53475">
        <ele>379</ele>
        <time>2019-06-11T18:32:33Z</time>
      </trkpt>
      <trkpt lat="46.39274" lon="6.53509">
        <ele>378</ele>
        <time>2019-06-11T18:32:37Z</time>
      </trkpt>
      <trkpt lat="46.3927" lon="6.53517">
        <ele>378</ele>
        <time>2019-06-11T18:32:38Z</time>
      </trkpt>
      <trkpt lat="46.39269" lon="6.53525">
        <ele>378</ele>
        <time>2019-06-11T18:32:39Z</time>
      </trkpt>
      <trkpt lat="46.3927" lon="6.53538">
        <ele>378</ele>
        <time>2019-06-11T18:32:41Z</time>
      </trkpt>
      <trkpt lat="46.39274" lon="6.53546">
        <ele>378</ele>
        <time>2019-06-11T18:32:42Z</time>
      </trkpt>
      <trkpt lat="46.39284" lon="6.53553">
        <ele>378</ele>
        <time>2019-06-11T18:32:44Z</time>
      </trkpt>
      <trkpt lat="46.39292" lon="6.53552">
        <ele>378</ele>
        <time>2019-06-11T18:32:45Z</time>
      </trkpt>
      <trkpt lat="46.39323" lon="6.53628">
        <ele>379</ele>
        <time>2019-06-11T18:32:56Z</time>
      </trkpt>
      <trkpt lat="46.39415" lon="6.53883">
        <ele>378</ele>
        <time>2019-06-11T18:33:31Z</time>
      </trkpt>
      <trkpt lat="46.39423" lon="6.53899">
        <ele>378</ele>
        <time>2019-06-11T18:33:34Z</time>
      </trkpt>
      <trkpt lat="46.39472" lon="6.53973">
        <ele>378</ele>
        <time>2019-06-11T18:33:46Z</time>
      </trkpt>
      <trkpt lat="46.39487" lon="6.54001">
        <ele>377</ele>
        <time>2019-06-11T18:33:51Z</time>
      </trkpt>
      <trkpt lat="46.39493" lon="6.54021">
        <ele>377</ele>
        <time>2019-06-11T18:33:53Z</time>
      </trkpt>
      <trkpt lat="46.395" lon="6.54063">
        <ele>378</ele>
        <time>2019-06-11T18:33:59Z</time>
      </trkpt>
      <trkpt lat="46.39502" lon="6.54095">
        <ele>378</ele>
        <time>2019-06-11T18:34:03Z</time>
      </trkpt>
      <trkpt lat="46.39501" lon="6.54226">
        <ele>379</ele>
        <time>2019-06-11T18:34:19Z</time>
      </trkpt>
      <trkpt lat="46.39494" lon="6.5429">
        <ele>378</ele>
        <time>2019-06-11T18:34:27Z</time>
      </trkpt>
      <trkpt lat="46.39464" lon="6.5445">
        <ele>375</ele>
        <time>2019-06-11T18:34:47Z</time>
      </trkpt>
      <trkpt lat="46.39459" lon="6.54511">
        <ele>376</ele>
        <time>2019-06-11T18:34:55Z</time>
      </trkpt>
      <trkpt lat="46.39459" lon="6.54549">
        <ele>377</ele>
        <time>2019-06-11T18:34:59Z</time>
      </trkpt>
      <trkpt lat="46.39467" lon="6.54664">
        <ele>378</ele>
        <time>2019-06-11T18:35:13Z</time>
      </trkpt>
      <trkpt lat="46.39472" lon="6.54764">
        <ele>381</ele>
        <time>2019-06-11T18:35:26Z</time>
      </trkpt>
      <trkpt lat="46.39503" lon="6.55222">
        <ele>392</ele>
        <time>2019-06-11T18:36:22Z</time>
      </trkpt>
      <trkpt lat="46.39568" lon="6.55593">
        <ele>394</ele>
        <time>2019-06-11T18:37:09Z</time>
      </trkpt>
      <trkpt lat="46.39658" lon="6.56187">
        <ele>401</ele>
        <time>2019-06-11T18:38:24Z</time>
      </trkpt>
      <trkpt lat="46.39811" lon="6.57246">
        <ele>395</ele>
        <time>2019-06-11T18:40:37Z</time>
      </trkpt>
      <trkpt lat="46.39812" lon="6.57263">
        <ele>395</ele>
        <time>2019-06-11T18:40:39Z</time>
      </trkpt>
      <trkpt lat="46.39808" lon="6.57265">
        <ele>396</ele>
        <time>2019-06-11T18:40:39Z</time>
      </trkpt>
      <trkpt lat="46.39807" lon="6.5727">
        <ele>396</ele>
        <time>2019-06-11T18:40:40Z</time>
      </trkpt>
      <trkpt lat="46.39812" lon="6.57308">
        <ele>397</ele>
        <time>2019-06-11T18:40:45Z</time>
      </trkpt>
      <trkpt lat="46.39815" lon="6.57313">
        <ele>397</ele>
        <time>2019-06-11T18:40:46Z</time>
      </trkpt>
      <trkpt lat="46.39822" lon="6.57314">
        <ele>395</ele>
        <time>2019-06-11T18:40:47Z</time>
      </trkpt>
      <trkpt lat="46.39866" lon="6.57607">
        <ele>399</ele>
        <time>2019-06-11T18:41:24Z</time>
      </trkpt>
      <trkpt lat="46.39885" lon="6.57671">
        <ele>397</ele>
        <time>2019-06-11T18:41:32Z</time>
      </trkpt>
      <trkpt lat="46.39887" lon="6.57698">
        <ele>397</ele>
        <time>2019-06-11T18:41:36Z</time>
      </trkpt>
      <trkpt lat="46.39884" lon="6.57697">
        <ele>398</ele>
        <time>2019-06-11T18:41:36Z</time>
      </trkpt>
      <trkpt lat="46.39878" lon="6.57699">
        <ele>399</ele>
        <time>2019-06-11T18:41:37Z</time>
      </trkpt>
      <trkpt lat="46.39873" lon="6.57709">
        <ele>400</ele>
        <time>2019-06-11T18:41:39Z</time>
      </trkpt>
      <trkpt lat="46.39873" lon="6.57714">
        <ele>400</ele>
        <time>2019-06-11T18:41:39Z</time>
      </trkpt>
      <trkpt lat="46.39877" lon="6.57724">
        <ele>399</ele>
        <time>2019-06-11T18:41:41Z</time>
      </trkpt>
      <trkpt lat="46.39883" lon="6.57727">
        <ele>399</ele>
        <time>2019-06-11T18:41:42Z</time>
      </trkpt>
      <trkpt lat="46.39933" lon="6.58078">
        <ele>392</ele>
        <time>2019-06-11T18:42:26Z</time>
      </trkpt>
      <trkpt lat="46.39932" lon="6.58116">
        <ele>392</ele>
        <time>2019-06-11T18:42:31Z</time>
      </trkpt>
      <trkpt lat="46.39933" lon="6.58129">
        <ele>392</ele>
        <time>2019-06-11T18:42:32Z</time>
      </trkpt>
      <trkpt lat="46.39948" lon="6.58146">
        <ele>389</ele>
        <time>2019-06-11T18:42:36Z</time>
      </trkpt>
      <trkpt lat="46.39955" lon="6.58149">
        <ele>388</ele>
        <time>2019-06-11T18:42:37Z</time>
      </trkpt>
      <trkpt lat="46.4004" lon="6.58332">
        <ele>381</ele>
        <time>2019-06-11T18:43:04Z</time>
      </trkpt>
      <trkpt lat="46.40046" lon="6.58356">
        <ele>381</ele>
        <time>2019-06-11T18:43:07Z</time>
      </trkpt>
      <trkpt lat="46.40059" lon="6.58384">
        <ele>381</ele>
        <time>2019-06-11T18:43:11Z</time>
      </trkpt>
      <trkpt lat="46.40062" lon="6.58392">
        <ele>381</ele>
        <time>2019-06-11T18:43:12Z</time>
      </trkpt>
      <trkpt lat="46.40067" lon="6.58396">
        <ele>380</ele>
        <time>2019-06-11T18:43:13Z</time>
      </trkpt>
      <trkpt lat="46.40089" lon="6.58443">
        <ele>379</ele>
        <time>2019-06-11T18:43:20Z</time>
      </trkpt>
      <trkpt lat="46.4009" lon="6.58448">
        <ele>379</ele>
        <time>2019-06-11T18:43:21Z</time>
      </trkpt>
      <trkpt lat="46.4014" lon="6.58558">
        <ele>376</ele>
        <time>2019-06-11T18:43:37Z</time>
      </trkpt>
      <trkpt lat="46.40157" lon="6.58603">
        <ele>376</ele>
        <time>2019-06-11T18:43:43Z</time>
      </trkpt>
      <trkpt lat="46.40167" lon="6.58643">
        <ele>376</ele>
        <time>2019-06-11T18:43:49Z</time>
      </trkpt>
      <trkpt lat="46.40172" lon="6.58671">
        <ele>376</ele>
        <time>2019-06-11T18:43:52Z</time>
      </trkpt>
      <trkpt lat="46.40175" lon="6.58695">
        <ele>376</ele>
        <time>2019-06-11T18:43:55Z</time>
      </trkpt>
      <trkpt lat="46.4017" lon="6.58699">
        <ele>376</ele>
        <time>2019-06-11T18:43:56Z</time>
      </trkpt>
      <trkpt lat="46.40167" lon="6.58707">
        <ele>376</ele>
        <time>2019-06-11T18:43:57Z</time>
      </trkpt>
      <trkpt lat="46.40166" lon="6.58717">
        <ele>377</ele>
        <time>2019-06-11T18:43:58Z</time>
      </trkpt>
      <trkpt lat="46.40167" lon="6.58724">
        <ele>377</ele>
        <time>2019-06-11T18:43:59Z</time>
      </trkpt>
      <trkpt lat="46.40172" lon="6.58732">
        <ele>376</ele>
        <time>2019-06-11T18:44:01Z</time>
      </trkpt>
      <trkpt lat="46.40176" lon="6.58735">
        <ele>376</ele>
        <time>2019-06-11T18:44:02Z</time>
      </trkpt>
      <trkpt lat="46.40184" lon="6.58734">
        <ele>375</ele>
        <time>2019-06-11T18:44:03Z</time>
      </trkpt>
      <trkpt lat="46.40184" lon="6.5874">
        <ele>375</ele>
        <time>2019-06-11T18:44:04Z</time>
      </trkpt>
      <trkpt lat="46.40189" lon="6.58755">
        <ele>375</ele>
        <time>2019-06-11T18:44:06Z</time>
      </trkpt>
      <trkpt lat="46.40198" lon="6.58803">
        <ele>375</ele>
        <time>2019-06-11T18:44:12Z</time>
      </trkpt>
      <trkpt lat="46.40201" lon="6.58832">
        <ele>375</ele>
        <time>2019-06-11T18:44:15Z</time>
      </trkpt>
      <trkpt lat="46.40201" lon="6.58855">
        <ele>375</ele>
        <time>2019-06-11T18:44:18Z</time>
      </trkpt>
      <trkpt lat="46.40205" lon="6.58916">
        <ele>375</ele>
        <time>2019-06-11T18:44:26Z</time>
      </trkpt>
      <trkpt lat="46.40203" lon="6.58984">
        <ele>375</ele>
        <time>2019-06-11T18:44:34Z</time>
      </trkpt>
      <trkpt lat="46.40195" lon="6.59072">
        <ele>374</ele>
        <time>2019-06-11T18:44:45Z</time>
      </trkpt>
      <trkpt lat="46.40189" lon="6.5912">
        <ele>375</ele>
        <time>2019-06-11T18:44:51Z</time>
      </trkpt>
      <trkpt lat="46.40179" lon="6.59168">
        <ele>376</ele>
        <time>2019-06-11T18:44:57Z</time>
      </trkpt>
      <trkpt lat="46.40153" lon="6.59252">
        <ele>382</ele>
        <time>2019-06-11T18:45:08Z</time>
      </trkpt>
      <trkpt lat="46.40144" lon="6.59299">
        <ele>382</ele>
        <time>2019-06-11T18:45:14Z</time>
      </trkpt>
      <trkpt lat="46.40129" lon="6.59412">
        <ele>378</ele>
        <time>2019-06-11T18:45:29Z</time>
      </trkpt>
      <trkpt lat="46.40128" lon="6.59435">
        <ele>378</ele>
        <time>2019-06-11T18:45:31Z</time>
      </trkpt>
      <trkpt lat="46.40148" lon="6.59595">
        <ele>377</ele>
        <time>2019-06-11T18:45:51Z</time>
      </trkpt>
      <trkpt lat="46.40146" lon="6.59624">
        <ele>379</ele>
        <time>2019-06-11T18:45:55Z</time>
      </trkpt>
      <trkpt lat="46.40142" lon="6.59635">
        <ele>380</ele>
        <time>2019-06-11T18:45:56Z</time>
      </trkpt>
      <trkpt lat="46.40147" lon="6.59663">
        <ele>381</ele>
        <time>2019-06-11T18:46:00Z</time>
      </trkpt>
      <trkpt lat="46.40148" lon="6.59711">
        <ele>380</ele>
        <time>2019-06-11T18:46:06Z</time>
      </trkpt>
      <trkpt lat="46.40143" lon="6.59854">
        <ele>379</ele>
        <time>2019-06-11T18:46:23Z</time>
      </trkpt>
      <trkpt lat="46.40141" lon="6.59927">
        <ele>380</ele>
        <time>2019-06-11T18:46:32Z</time>
      </trkpt>
      <trkpt lat="46.40142" lon="6.59963">
        <ele>379</ele>
        <time>2019-06-11T18:46:37Z</time>
      </trkpt>
      <trkpt lat="46.40174" lon="6.60376">
        <ele>377</ele>
        <time>2019-06-11T18:47:28Z</time>
      </trkpt>
      <trkpt lat="46.40174" lon="6.60375">
        <ele>377</ele>
        <time>2019-06-11T18:47:28Z</time>
      </trkpt>
      <trkpt lat="46.40142" lon="6.6038">
        <ele>381</ele>
        <time>2019-06-11T18:47:34Z</time>
      </trkpt>
    </trkseg>
  </trk>
</gpx>